[[{"header":{"parameterUnit":"m.s-1","parameterCategory":1,"la1":31.0,"la2":29.5877,"lo1":-88.7671,"lo2":-86.6584,"dy":0.0162,"dx":0.0185,"nx":115,"ny":88,"refTime":"2023-09-28T06:00:00:Z","depth":0,"parameterNumber":2,"parameterNumberName":"U-component_of_WINDS"},"data":[0.0,0.0,0.0,0.0,0.0,0.0,0.0,0.0,0.0,0.0,0.0,0.0,0.0,0.0,0.0,0.0,0.0,0.0,0.0,0.0,0.0,0.0,0.0,0.0,0.0,0.0,0.0,0.0,0.0,0.0,0.0,0.0,0.0,0.0,0.0,0.0,0.0,0.0,0.0,0.0,0.0,0.0,0.0,0.0,0.0,0.0,0.0,0.0,0.0,0.0,0.0,0.0,0.0,0.0,0.0,0.0,0.0,0.0,0.0,0.0,0.0,0.0,0.0,0.0,0.0,0.0,0.0,0.0,0.0,0.0,0.0,0.0,0.0,0.0,0.0,0.0,0.0,0.0,0.0,0.0,0.0,0.0,0.0,0.0,0.0,0.0,0.0,0.0,0.0,0.0,0.0,0.0,0.0,0.0,0.0,0.0,0.0,0.0,0.0,0.0,0.0,0.0,0.0,0.0,0.0,0.0,0.0,0.0,0.0,0.0,0.0,0.0,0.0,0.0,0.0,0.0,0.0,0.0,0.0,0.0,0.0,0.0,0.0,0.0,0.0,0.0,0.0,0.0,0.0,0.0,0.0,0.0,0.0,0.0,0.0,0.0,0.0,0.0,0.0,0.0,0.0,0.0,0.0,0.0,0.0,0.0,0.0,0.0,0.0,0.0,0.0,0.0,0.0,0.0,0.0,0.0,0.0,0.0,0.0,0.0,0.0,0.0,0.0,0.0,0.0,0.0,0.0,0.0,0.0,0.0,0.0,0.0,0.0,0.0,0.0,0.0,0.0,0.0,0.0,0.0,0.0,0.0,0.0,0.0,0.0,0.0,0.0,0.0,0.0,0.0,0.0,0.0,0.0,0.0,0.0,0.0,0.0,0.0,0.0,0.0,0.0,0.0,0.0,0.0,0.0,0.0,0.0,0.0,0.0,0.0,0.0,0.0,0.0,0.0,0.0,0.0,0.0,0.0,0.0,0.0,0.0,0.0,0.0,0.0,0.0,0.0,0.0,0.0,0.0,0.0,0.0,0.0,0.0,0.0,0.0,0.0,0.0,0.0,0.0,0.0,0.0,0.0,0.0,0.0,0.0,0.0,0.0,0.0,0.0,0.0,0.0,0.0,0.0,0.0,0.0,0.0,0.0,0.0,0.0,0.0,0.0,0.0,0.0,0.0,0.0,0.0,0.0,0.0,0.0,0.0,0.0,0.0,0.0,0.0,0.0,0.0,0.0,0.0,0.0,0.0,0.0,0.0,0.0,0.0,0.0,0.0,0.0,0.0,0.0,0.0,0.0,0.0,0.0,0.0,0.0,0.0,0.0,0.0,0.0,0.0,0.0,0.0,0.0,0.0,0.0,0.0,0.0,0.0,0.0,0.0,0.0,0.0,0.0,0.0,0.0,0.0,0.0,0.0,0.0,0.0,0.0,0.0,0.0,0.0,0.0,0.0,0.0,0.0,0.0,0.0,0.0,0.0,0.0,0.0,0.0,0.0,0.0,0.0,0.0,0.0,0.0,0.0,0.0,0.0,0.0,0.0,0.0,0.0,0.0,0.0,0.0,0.0,0.0,0.0,0.0,0.0,0.0,0.0,0.0,0.0,0.0,0.0,0.0,0.0,0.0,0.0,0.0,0.0,0.0,0.0,0.0,0.0,0.0,0.0,0.0,0.0,0.0,0.0,0.0,0.0,0.0,0.0,0.0,0.0,0.0,0.0,0.0,0.0,0.0,0.0,0.0,0.0,0.0,0.0,0.0,0.0,0.0,0.0,0.0,0.0,0.0,0.0,0.0,0.0,0.0,0.0,0.0,0.0,0.0,0.0,0.0,0.0,0.0,0.0,0.0,0.0,0.0,0.0,0.0,0.0,0.0,0.0,0.0,0.0,0.0,0.0,0.0,0.0,0.0,0.0,0.0,0.0,0.0,0.0,0.0,0.0,0.0,0.0,0.0,0.0,0.0,0.0,0.0,0.0,0.0,0.0,0.0,0.0,0.0,0.0,0.0,0.0,0.0,0.0,0.0,0.0,0.0,0.0,0.0,0.0,0.0,0.0,0.0,0.0,0.0,0.0,0.0,0.0,0.0,0.0,0.0,0.0,0.0,0.0,0.0,0.0,0.0,0.0,0.0,0.0,0.0,0.0,0.0,0.0,0.0,0.0,0.0,0.0,0.0,0.0,0.0,0.0,0.0,0.0,0.0,0.0,0.0,0.0,0.0,0.0,0.0,0.0,0.0,0.0,0.0,0.0,0.0,0.0,0.0,0.0,0.0,0.0,0.0,0.0,0.0,0.0,0.0,0.0,0.0,0.0,0.0,0.0,0.0,0.0,0.0,0.0,0.0,0.0,0.0,0.0,0.0,0.0,0.0,0.0,0.0,0.0,0.0,0.0,0.0,0.0,0.0,0.0,0.0,0.0,0.0,0.0,0.0,0.0,0.0,0.0,0.0,0.0,0.0,0.0,0.0,0.0,0.0,0.0,0.0,0.0,0.0,0.0,0.0,0.0,0.0,0.0,0.0,0.0,0.0,0.0,0.0,0.0,0.0,0.0,0.0,0.0,0.0,0.0,0.0,0.0,0.0,0.0,0.0,0.0,0.0,0.0,0.0,0.0,0.0,0.0,0.0,0.0,0.0,0.0,0.0,0.0,0.0,0.0,0.0,0.0,0.0,0.0,0.0,0.0,0.0,0.0,0.0,0.0,0.0,0.0,0.0,0.0,0.0,0.0,0.0,0.0,0.0,0.0,0.0,0.0,0.0,0.0,0.0,0.0,0.0,0.0,0.0,0.0,0.0,0.0,0.0,0.0,0.0,0.0,0.0,0.0,0.0,0.0,0.0,0.0,0.0,0.0,0.0,0.0,0.0,0.0,0.0,0.0,0.0,0.0,0.0,0.0,0.0,0.0,0.0,0.0,0.0,0.0,0.0,0.0,0.0,0.0,0.0,0.0,0.0,0.0,0.0,0.0,0.0,0.0,0.0,0.0,0.0,0.0,0.0,0.0,0.0,0.0,0.0,0.0,0.0,0.0,0.0,0.0,0.0,0.0,0.0,0.0,0.0,0.0,0.0,0.0,0.0,0.0,0.0,0.0,0.0,0.0,0.0,0.0,0.0,0.0,0.0,0.0,0.0,0.0,0.0,0.0,0.0,0.0,0.0,0.0,0.0,0.0,0.0,0.0,0.0,0.0,0.0,0.0,0.0,0.0,0.0,0.0,0.0,0.0,0.0,0.0,0.0,0.0,0.0,0.0,0.0,0.0,0.0,0.0,0.0,0.0,0.0,0.0,0.0,0.0,0.0,0.0,0.0,0.0,0.0,0.0,0.0,0.0,0.0,0.0,0.0,0.0,0.0,0.0,0.0,0.0,0.0,0.0,0.0,0.0,0.0,0.0,0.0,0.0,0.0,0.0,0.0,0.0,0.0,0.0,0.0,0.0,0.0,0.0,0.0,0.0,0.0,0.0,0.0,0.0,0.0,0.0,0.0,0.0,0.0,0.0,0.0,0.0,0.0,0.0,0.0,0.0,0.0,0.0,0.0,0.0,0.0,0.0,0.0,0.0,0.0,0.0,0.0,0.0,0.0,0.0,0.0,0.0,0.0,0.0,0.0,0.0,0.0,0.0,0.0,0.0,0.0,0.0,0.0,0.0,0.0,0.0,0.0,0.0,0.0,0.0,0.0,0.0,0.0,0.0,0.0,0.0,0.0,0.0,0.0,0.0,0.0,0.0,0.0,0.0,0.0,0.0,0.0,0.0,0.0,0.0,0.0,0.0,0.0,0.0,0.0,0.0,0.0,0.0,0.0,0.0,0.0,0.0,0.0,0.0,0.0,0.0,0.0,0.0,0.0,0.0,0.0,0.0,0.0,0.0,0.0,0.0,0.0,0.0,0.0,0.0,0.0,0.0,0.0,0.0,0.0,0.0,0.0,0.0,0.0,0.0,0.0,0.0,0.0,0.0,0.0,0.0,0.0,0.0,0.0,0.0,0.0,0.0,0.0,0.0,0.0,0.0,0.0,0.0,0.0,0.0,0.0,0.0,0.0,0.0,0.0,0.0,0.0,0.0,0.0,0.0,0.0,0.0,0.0,0.0,0.0,0.0,0.0,0.0,0.0,0.0,0.0,0.0,0.0,0.0,0.0,0.0,0.0,0.0,0.0,0.0,0.0,0.0,0.0,0.0,0.0,0.0,0.0,0.0,0.0,0.0,0.0,0.0,0.0,0.0,0.0,0.0,0.0,0.0,0.0,0.0,0.0,0.0,0.0,0.0,0.0,0.0,0.0,0.0,0.0,0.0,0.0,0.0,0.0,0.0,0.0,0.0,0.0,0.0,0.0,0.0,0.0,0.0,0.0,0.0,0.0,0.0,0.0,0.0,0.0,0.0,0.0,0.0,0.0,0.0,0.0,0.0,0.0,0.0,0.0,0.0,0.0,0.0,0.0,0.0,0.0,0.0,0.0,0.0,0.0,0.0,0.0,0.0,0.0,0.0,0.0,0.0,0.0,0.0,0.0,0.0,0.0,0.0,0.0,0.0,0.0,0.0,0.0,0.0,0.0,0.0,0.0,0.0,0.0,0.0,0.0,0.0,0.0,0.0,0.0,0.0,0.0,0.0,0.0,0.0,0.0,0.0,0.0,0.0,0.0,0.0,0.0,0.0,0.0,0.0,0.0,0.0,0.0,0.0,0.0,0.0,0.0,0.0,0.0,0.0,0.0,0.0,0.0,0.0,0.0,0.0,0.0,0.0,0.0,0.0,0.0,0.0,0.0,0.0,0.0,0.0213,0.0228,0.0209,0.0214,0.0234,0.0,0.0,0.0,0.0,0.0,0.0,0.0,0.0,0.0,0.0,0.0,0.0,0.0,0.0,0.0,0.0,0.0,0.0,0.0,0.0,0.0,0.0,0.0,0.0,0.0,0.0,0.0,0.0,0.0,0.0,0.0,0.0,0.0,0.0,0.0,0.0,0.0,0.0,0.0,0.0,0.0,0.0,0.0,0.0,0.0,0.0,0.0,0.0,0.0,0.0,0.0,0.0,0.0,0.0,0.0,0.0,0.0,0.0,0.0,0.0,0.0,0.0,0.0,0.0,0.0,0.0,0.0,0.0,0.0,0.0,0.0,0.0,0.0,0.0,0.0,0.0,0.0,0.0,0.0,0.0,0.0,0.0,0.0,0.0,0.0,0.0,0.0,0.0,0.0,0.0,0.0,0.0,0.0,0.0,0.0,0.0,0.0,0.0,0.0,0.0,0.0,0.0,0.0,0.0,0.0,0.0,0.0,0.0,0.0,0.0,0.0,0.0,0.04,0.0398,0.0395,0.0,0.0,0.0,0.0,0.0,0.0,0.0,0.0,0.0,0.0,0.0,0.0,0.0,0.0,0.0,0.0,0.0,0.0,0.0,0.0,0.0,0.0,0.0,0.0,0.0,0.0,0.0,0.0,0.0,0.0,0.0,0.0,0.0,0.0,0.0,0.0,0.0,0.0,0.0,0.0,0.0,0.0,0.0,0.0,0.0,0.0,0.0,0.0,0.0,0.0,0.0,0.0,0.0,0.0,0.0,0.0,0.0,0.0,0.0,0.0,0.0,0.0,0.0,0.0,0.0,0.0,0.0,0.0,0.0,0.0,0.0,0.0,0.0,0.0,0.0,0.0,0.0,0.0,0.0,0.0,0.0,0.0,0.0,0.0,0.0,0.0,0.0,0.0,0.0,0.0,0.0,0.0,0.0,0.0,0.0,0.0,0.0,0.0,0.0,0.0,0.0,0.0,0.0,0.0,0.0,0.0,0.0,0.0,0.0,0.0,0.0401,0.0397,0.0397,0.0,0.0401,0.0,0.0,0.0,0.0,0.0,0.0,0.0,0.0,0.0,0.0,0.0,0.0,0.0,0.0,0.0,0.0,0.0,0.0,0.0,0.0,0.0,0.0,0.0,0.0,0.0,0.0,0.0,0.0,0.0,0.0,0.0,0.0,0.0,0.0,0.0,0.0,0.0,0.0,0.0,0.0,0.0,0.0,0.0,0.0,0.0,0.0,0.0,0.0,0.0,0.0,0.0,0.0,0.0,0.0,0.0,0.0,0.0,0.0,0.0,0.0,0.0,0.0,0.0,0.0,0.0,0.0,0.0,0.0,0.0,0.0,0.0,0.0,0.0,0.0,0.0,0.0,0.0,0.0,0.0,0.0,0.0,0.0,0.0,0.0,0.0,0.0,0.0,0.0,0.0,0.0,0.0,0.0,0.0,0.0,0.0,0.0,0.0,0.0,0.0,0.0,0.0,0.0,0.0,0.0,0.0,0.0,0.0,0.0,0.0,0.0,0.0581,0.058,0.0569,0.0563,0.0,0.0,0.0,0.0,0.0,0.0,0.0,0.0,0.0,0.0,0.0,0.0,0.0,0.0,0.0,0.0,0.0,0.0,0.0,0.0,0.0,0.0,0.0,0.0,0.0,0.0,0.0,0.0,0.0,0.0,0.0,0.0,0.0,0.0,0.0,0.0,0.0,0.0,0.0,0.0,0.0,0.0,0.0,0.0,0.0,0.0,0.0,0.0,0.0,0.0,0.0,0.0,0.0,0.0,0.0,0.0,0.0,0.0,0.0,0.0,0.0,0.0,0.0,0.0,0.0,0.0,0.0,0.0,0.0,0.0,0.0,0.0,0.0,0.0,0.0,0.0,0.0,0.0,0.0,0.0,0.0,0.0,0.0,0.0,0.0,0.0,0.0,0.0,0.0,0.0,0.0,0.0,0.0,0.0,0.0,0.0,0.0,0.0,0.0,0.0,0.0,0.0,0.0,0.0,0.0,0.0,0.0,0.0,0.0,0.0,0.0696,0.0697,0.0697,0.0697,0.0697,0.0697,0.0,0.0,0.0,0.0,0.0,0.0,0.0,0.0,0.0,0.0,0.0,0.0,0.0,0.0,0.0,0.0,0.0,0.0,0.0,0.0,0.0,0.0,0.0,0.0,0.0,0.0,0.0,0.0,0.0,0.0,0.0,0.0,0.0,0.0,0.0,0.0,0.0,0.0,0.0,0.0,0.0,0.0,0.0,0.0,0.0,0.0,0.0,0.0,0.0,0.0,0.0,0.0,0.0,0.0,0.0,0.0,0.0,0.0,0.0,0.0,0.0,0.0,0.0,0.0,0.0,0.0,0.0,0.0,0.0,0.0,0.0,0.0,0.0,0.0,0.0,0.0,0.0,0.0,0.0,0.0,0.0,0.0,0.0,0.0,0.0,0.0,0.0,0.0,0.0,0.0,0.0,0.0,0.0,0.0,0.0,0.0,0.0,0.0,0.0,0.0,0.0,0.0,0.0,0.0,0.0,0.0,0.0,0.0,0.0705,0.0707,0.0697,0.0697,0.0697,0.0697,0.0,0.0,0.0,0.0,0.0,0.0,0.0,0.0,0.0,0.0,0.0,0.0,0.0,0.0,0.0,0.0,0.0,0.0,0.0,0.0,0.0,0.0,0.0,0.0,0.0,0.0,0.0,0.0,0.0,0.0,0.0,0.0,0.0,0.0,0.0,0.0,0.0,0.0,0.0,0.0,0.0,0.0,0.0,0.0,0.0,0.0,0.0,0.0,0.0,0.0,0.0,0.0,0.0,0.0,0.0,0.0,0.0,0.0,0.0,0.0,0.0,0.0,0.0,0.0,0.0,0.0,0.0,0.0,0.0,0.0,0.0,0.0,0.0,0.0,0.0,0.0,0.0,0.0,0.0,0.0,0.0,0.0,0.0,0.0,0.0,0.0,0.0,0.0,0.0,0.0,0.0,0.0,0.0,0.0,0.0,0.0,0.0,0.0,0.0,0.0,0.0,0.0,0.0,0.0,0.0,0.0,0.0,0.0,0.0,0.0707,0.0697,0.0697,0.0697,0.0697,0.0731,0.0,0.0,0.0,0.0,0.0,0.0,0.0,0.0,0.0,0.0,0.0,0.0,0.0,0.0,0.0,0.0,0.0,0.0,0.0,0.0,0.0,0.0,0.0,0.0,0.0,0.0,0.0,0.0,0.0,0.0,0.0,0.0,0.0,0.0,0.0,0.0,0.0,0.0,0.0,0.0,0.0,0.0,0.0,0.0,0.0,0.0,0.0,0.0,0.0,0.0,0.0,0.0,0.0,0.0,0.0,0.0,0.0,0.0,0.0,0.0,0.0,0.0,0.0,0.0,0.0,0.0,0.0,0.0,0.0,0.0,0.0,0.0,0.0,0.0,0.0,0.0,0.0,0.0,0.0,0.0,0.0,0.0,0.0,0.0,0.0,0.0,0.0,0.0,0.0,0.0,0.0,0.0,0.0,0.0,0.0,0.0,0.0,0.0,0.0,0.0,0.0,0.0,0.0,0.0,0.0,0.0,0.0,0.0,0.0,0.0745,0.0,0.0737,0.0735,0.0735,0.0789,0.0,0.0,0.0,0.0,0.0,0.0,0.0,0.0,0.0,0.0,0.0,0.0,0.0,0.0,0.0,0.0,0.0,0.0,0.0,0.0,0.0,0.0,0.0,0.0,0.0,0.0,0.0,0.0,0.0,0.0,0.0,0.0,0.0,0.0,0.0,0.0,0.0,0.0,0.0,0.0,0.0,0.0,0.0,0.0,0.0,0.0,0.0,0.0,0.0,0.0,0.0,0.0,0.0,0.0,0.0,0.0,0.0,0.0,0.0,0.0,0.0,0.0,0.0,0.0,0.0,0.0,0.0,0.0,0.0,0.0,0.0,0.0,0.0,0.0,0.0,0.0,0.0,0.0,0.0,0.0,0.0,0.0,0.0,0.0,0.0,0.0,0.0,0.0,0.0,0.0,0.0,0.0,0.0,0.0,0.0,0.0,0.0,0.0,0.0,0.0,0.0,0.0,0.0,0.0,0.0,0.0,0.0,0.0,0.0876,0.0802,0.0792,0.0806,0.0794,0.0806,0.0829,0.0,0.0,0.0,0.0,0.0,0.0,0.0,0.0,0.0,0.0,0.0,0.0,0.0,0.0,0.0,0.0,0.0,0.0,0.0,0.0,0.0,0.0,0.0,0.0,0.0,0.0,0.0,0.0,0.0,0.0,0.0,0.0,0.0,0.0,0.0,0.0,0.0,0.0,0.0,0.0,0.0,0.0,0.0,0.0,0.0,0.0,0.0,0.0,0.0,0.0,0.0,0.0,0.0,0.0,0.0,0.0,0.0,0.0,0.0,0.0,0.0,0.0,0.0,0.0,0.0,0.0,0.0,0.0,0.0,0.0,0.0,0.0,0.0,0.0,0.0,0.0,0.0,0.0,0.0,0.0,0.0,0.0,0.0,0.0,0.0,0.0,0.0,0.0,0.0,0.0,0.0,0.0,0.0,0.0,0.0,0.0,0.0,0.0,0.0,0.0,0.0,0.0,0.0,0.0,0.0,0.0,0.0,0.0,0.0,0.0876,0.0872,0.0865,0.0865,0.0878,0.0939,0.0,0.0,0.0,0.0,0.0,0.0,0.0,0.0,0.0,0.0,0.0,0.0,0.0,0.0,0.0,0.0,0.0,0.0,0.0,0.0,0.0,0.0,0.0,0.0,0.0,0.0,0.0,0.0,0.0,0.0,0.0,0.0,0.0,0.0,0.0,0.0,0.0,0.0,0.0,0.0,0.0,0.0,0.0,0.0,0.0,0.0,0.0,0.0,0.0,0.0,0.0,0.0,0.0,0.0,0.0,0.0,0.0,0.0,0.0,0.0,0.0,0.0,0.0,0.0,0.0,0.0,0.0,0.0,0.0,0.0,0.0,0.0,0.0,0.0,0.0,0.0,0.0,0.0,0.0,0.0,0.0,0.0,0.0,0.0,0.0,0.0,0.0,0.0,0.0,0.0,0.0,0.0,0.0,0.0,0.0,0.0,0.0,0.0,0.0,0.0,0.0,0.0,0.0,0.0,0.0,0.0,0.0,0.0,0.0,0.0948,0.0938,0.0945,0.0946,0.0945,0.1021,0.1211,0.0,0.0,0.0,0.0,0.0,0.0,0.0,0.0,0.0,0.0,0.0,0.0,0.0,0.0,0.0,0.0,0.0,0.0,0.0,0.0,0.0,0.0,0.0,0.0,0.0,0.0,0.0,0.0,0.0,0.0,0.0,0.0,0.0,0.0,0.0,0.0,0.0,0.0,0.0,0.0,0.0,0.0,0.0,0.0,0.0,0.0,0.0,0.0,0.0,0.0,0.0,0.0,0.0,0.0,0.0,0.0,0.0,0.0,0.0,0.0,0.0,0.0,0.0,0.0,0.0,0.0,0.0,0.0,0.0,0.0,0.0,0.0,0.0,0.0,0.0,0.0,0.0,0.0,0.0,0.0,0.0,0.0,0.0,0.0,0.0,0.0,0.0,0.0,0.0,0.0,0.0,0.0,0.0,0.0,0.0,0.0,0.0,0.0,0.0,0.0,0.0,0.0,0.0,0.0,0.0,0.0,0.0,0.0,0.1019,0.1043,0.1026,0.1005,0.1005,0.1098,0.0,0.0,0.0,0.0,0.0,0.0,0.0,0.0,0.0,0.0,0.0,0.0,0.0,0.0,0.0,0.0,0.0,0.0,0.0,0.0,0.0,0.0,0.0,0.0,0.0,0.0,0.0,0.0,0.0,0.0,0.0,0.0,0.0,0.0,0.0,0.0,0.0,0.0,0.0,0.0,0.0,0.0,0.0,0.0,0.0,0.0,0.0,0.0,0.0,0.0,0.0,0.0,0.0,0.0,0.0,0.0,0.0,0.0,0.0,0.0,0.0,0.0,0.0,0.0,0.0,0.0,0.0,0.0,0.0,0.0,0.0,0.0,0.0,0.0,0.0,0.0,0.0,0.0,0.0,0.0,0.0,0.0,0.0,0.0,0.0,0.0,0.0,0.0,0.0,0.0,0.0,0.0,0.0,0.0,0.0,0.0,0.0,0.0,0.0,0.0,0.0,0.0,0.0,0.0,0.0,0.0,0.0,0.0,0.0,0.1314,0.1497,0.1395,0.1025,0.1005,0.1118,0.0,0.0,0.0,0.0,0.0,0.0,0.0,0.0,0.0,0.0,0.0,0.0,0.0,0.0,0.0,0.0,0.0,0.0,0.0,0.0,0.0,0.0,0.0,0.0,0.0,0.0,0.0,0.0,0.0,0.0,0.0,0.0,0.0,0.0,0.0,0.0,0.0,0.0,0.0,0.0,0.0,0.0,0.0,0.0,0.0,0.0,0.0,0.0,0.0,0.0,0.0,0.0,0.0,0.0,0.0,0.0,0.0,0.0,0.0,0.0,0.0,0.0,0.0,0.0,0.0,0.0,0.0,0.0,0.0,0.0,0.0,0.0,0.0,0.0,0.0,0.0,0.0,0.0,0.0,0.0,0.0,0.0,0.0,0.0,0.0,0.0,0.0,0.0,0.0,0.0,0.0,0.0,0.0,0.0,0.0,0.0,0.0,0.0,0.0,0.0,0.0,0.0,0.0,0.0,0.0,0.0,0.0,0.0,0.1871,0.1583,0.1723,0.1678,0.1465,0.138,0.146,0.0,0.0,0.0,0.0,0.0,0.0,0.0,0.0,0.0,0.0,0.0,0.0,0.0,0.0,0.0,0.0,0.0,0.0,0.0,0.0,0.0,0.0,0.0,0.0,0.0,0.0,0.0,0.0,0.0,0.0,0.0,0.0,0.0,0.0,0.0,0.0,0.0,0.0,0.0,0.0,0.0,0.0,0.0,0.0,0.0,0.0,0.0,0.0,0.0,0.0,0.0,0.0,0.0,0.0,0.0,0.0,0.0,0.0,0.0,0.0,0.0,0.0,0.0,0.0,0.0,0.0,0.0,0.0,0.0,0.0,0.0,0.0,0.0,0.0,0.0,0.0,0.0,0.0,0.0,0.0,0.0,0.0,0.0,0.0,0.0,0.0,0.0,0.0,0.0,0.0,0.0,0.0,0.0,0.0,0.0,0.0,0.0,0.0,0.0,0.0,0.0,0.0,0.0,0.0,0.0,0.0,0.0,0.0,0.2182,0.1921,0.1927,0.2021,0.2186,0.1957,0.1958,0.0,0.0,0.0,0.0,0.0,0.0,0.0,0.0,0.0,0.0,0.0,0.0,0.0,0.0,0.0,0.0,0.0,0.0,0.0,0.0,0.0,0.0,0.0,0.0,0.0,0.0,0.0,0.0,0.0,0.0,0.0,0.0,0.0,0.0,0.0,0.0,0.0,0.0,0.0,0.0,0.0,0.0,0.0,0.0,0.0,0.0,0.0,0.0,0.0,0.0,0.0,0.0,0.0,0.0,0.0,0.0,0.0,0.0,0.0,0.0,0.0,0.0,0.0,0.0,0.0,0.0,0.0,0.0,0.0,0.0,0.0,0.0,0.0,0.0,0.0,0.0,0.0,0.0,0.0,0.0,0.0,0.0,0.0,0.0,0.0,0.0,0.0,0.0,0.0,0.0,0.0,0.0,0.0,0.0,0.0,0.0,0.0,0.0,0.0,0.0,0.0,0.0,0.0,0.0,0.0,0.0,0.0,0.0,0.2969,0.2607,0.2755,0.2841,0.2899,0.2347,0.2225,0.0,0.0,0.0,0.0,0.0,0.0,0.0,0.0,0.0,0.0,0.0,0.0,0.0,0.0,0.0,0.0,0.0,0.0,0.0,0.0,0.0,0.0,0.0,0.0,0.0,0.0,0.0,0.0,0.0,0.0,0.0,0.0,0.0,0.0,0.0,0.0,0.0,0.0,0.0,0.0,0.0,0.0,0.0,0.0,0.0,0.0,0.0,0.0,1.1203,0.0,0.0,0.0,0.0,0.0,0.0,0.0,0.0,0.0,0.0,0.0,0.0,0.0,0.0,0.0,0.0,0.0,0.0,0.0,0.0,0.0,0.0,0.0,0.0,0.0,0.0,0.0,0.0,0.0,0.0,0.0,0.0,0.0,0.0,0.0,0.0,0.0,0.0,0.0,0.0,0.0,0.0,0.0,0.0,0.0,0.0,0.0,0.0,0.0,0.0,0.0,0.0,0.0,0.0,0.0,0.0,0.0,0.0,0.0,0.3461,0.3191,0.3224,0.3346,0.3524,0.3171,0.3003,0.0,0.0,0.0,0.0,0.0,0.0,0.0,0.0,0.0,0.0,0.0,0.0,0.0,0.0,0.0,0.0,0.0,0.0,0.0,0.0,0.0,0.0,0.0,0.0,0.0,0.0,0.0,0.0,0.0,0.0,0.0,0.0,0.0,0.0,0.0,0.0,0.0,0.0,0.0,0.0,0.0,0.0,0.0,0.0,0.0,0.0,0.0,0.0,0.0,0.0,0.0,0.0,0.0,0.0,0.0,0.0,0.0,0.0,0.0,0.0,0.0,0.0,0.0,0.0,0.0,0.0,0.0,0.0,0.0,0.0,0.0,0.0,0.0,0.0,0.0,0.0,0.0,0.0,0.0,0.0,0.0,0.0,0.0,0.0,0.0,0.0,0.0,0.0,0.0,0.0,0.0,0.0,0.0,0.0,0.0,0.0,0.0,0.0,0.0,0.0,0.0,0.0,0.0,0.0,0.0,0.0,0.0,0.3918,0.3938,0.3773,0.3662,0.3804,0.416,0.4146,0.4042,0.3861,0.0,0.0,0.0,0.0,0.0,0.0,0.0,0.0,0.0,0.0,0.0,0.0,0.0,0.0,0.0,0.0,0.0,0.0,0.0,0.0,0.0,0.0,0.0,0.0,0.0,0.0,0.0,0.0,0.0,0.0,0.0,0.0,0.0,0.0,0.0,0.0,0.0,0.0,1.0774,1.156,0.0,0.0,0.0,0.0,0.0,0.0,0.0,0.0,1.3233,0.0,0.0,0.0,0.0,0.0,0.0,0.0,0.0,0.0,0.0,0.0,0.0,0.0,0.0,0.0,0.0,0.0,0.0,0.0,0.0,0.0,0.0,0.0,0.0,0.0,0.0,0.0,0.0,0.0,0.0,0.0,0.0,0.0,0.0,0.0,0.0,0.0,0.0,0.0,0.0,0.0,0.0,0.0,0.0,0.0,0.0,0.0,0.0,0.0,0.0,0.0,0.0,0.0,0.0,0.0,0.0,0.4538,0.4773,0.4759,0.4529,0.4502,0.4515,0.462,0.4955,0.5089,0.4947,0.0,0.0,0.0,0.0,0.0,0.0,0.0,0.0,0.0,0.0,0.0,0.0,0.0,0.0,0.0,0.0,0.0,0.0,0.0,0.0,0.0,0.0,0.0,0.0,0.0,0.0,0.0,0.0,0.0,0.0,0.0,0.0,0.0,0.0,0.0,0.0,0.0,0.0,0.0,1.2572,1.2986,0.0,0.0,0.0,0.0,0.0,0.0,0.0,0.0,1.3313,0.0,0.0,0.0,0.0,0.0,0.0,0.0,0.0,0.0,0.0,0.0,0.0,0.0,0.0,0.0,0.0,0.0,0.0,0.0,0.0,0.0,0.0,0.0,0.0,0.0,0.0,0.0,0.0,0.0,0.0,0.0,0.0,0.0,0.0,0.0,0.0,0.0,0.0,0.0,0.0,0.0,0.0,0.0,0.0,0.0,0.0,0.0,0.0,0.0,0.0,0.0,0.0,0.0,0.0,0.0,0.5012,0.51,0.5077,0.4954,0.4901,0.4968,0.5206,0.5368,0.5556,0.0,0.0,0.0,0.0,0.0,0.0,0.0,0.0,0.0,0.0,0.0,0.0,0.0,0.0,0.0,0.0,0.0,0.0,0.0,0.0,0.0,0.0,0.0,0.0,0.0,0.0,0.0,0.0,0.0,0.0,0.0,0.0,0.0,0.0,0.0,0.0,0.0,0.0,0.0,0.0,1.2959,1.3474,1.3641,0.0,0.0,0.0,0.0,0.0,0.0,1.4108,1.3927,0.0,0.0,0.0,0.0,0.0,0.0,0.0,0.0,0.0,0.0,0.0,0.0,0.0,0.0,0.0,0.0,0.0,0.0,0.0,0.0,0.0,0.0,0.0,0.0,0.0,0.0,0.0,0.0,0.0,0.0,0.0,0.0,0.0,0.0,0.0,0.0,0.0,0.0,0.0,0.0,0.0,0.0,0.0,0.0,0.0,0.0,0.0,0.0,0.0,0.0,0.0,0.0,0.0,0.0,0.0,0.5413,0.5341,0.5301,0.528,0.5191,0.5347,0.5764,0.572,0.5882,0.0,0.0,0.0,0.0,0.0,0.0,0.0,0.0,0.0,0.0,0.0,0.0,0.0,0.0,0.0,0.0,0.0,0.0,0.0,0.0,0.0,0.0,0.0,0.0,0.0,0.0,0.0,0.0,0.0,0.0,0.0,0.0,0.0,0.0,0.0,0.0,0.0,0.0,0.0,0.0,0.0,1.3762,1.405,1.4329,0.0,0.0,0.0,0.0,1.4941,1.4697,0.0,0.0,0.0,0.0,0.0,0.0,0.0,0.0,0.0,0.0,0.0,0.0,0.0,0.0,0.0,0.0,0.0,0.0,0.0,0.0,0.0,0.0,0.0,0.0,0.0,0.0,0.0,0.0,0.0,0.0,0.0,0.0,0.0,0.0,0.0,0.0,0.0,0.0,0.0,0.0,0.0,0.0,0.0,0.0,0.0,0.0,0.0,0.0,0.0,0.0,0.0,0.0,0.0,0.0,0.0,0.0,0.5793,0.5698,0.5647,0.5647,0.5636,0.5752,0.6041,0.6217,0.6294,0.0,0.0,0.0,0.0,0.0,0.0,0.0,0.0,0.0,0.0,0.0,0.0,0.0,0.0,0.0,0.0,0.0,0.0,0.0,0.0,0.0,0.0,0.0,0.0,0.0,0.0,0.0,0.0,0.0,0.0,0.0,0.0,0.0,0.0,0.0,0.0,0.0,0.0,0.0,0.0,0.0,1.3852,1.4065,1.4378,1.461,0.0,0.0,1.4918,1.4681,1.461,0.0,0.0,0.0,0.0,0.0,0.0,0.0,0.0,0.0,0.0,0.0,0.0,0.0,0.0,0.0,0.0,0.0,0.0,0.0,0.0,0.0,0.0,0.0,0.0,0.0,0.0,0.0,0.0,0.0,0.0,0.0,0.0,0.0,0.0,0.0,0.0,0.0,0.0,0.0,0.0,0.0,0.0,0.0,0.0,0.0,0.0,0.0,0.0,0.0,0.0,0.0,0.0,0.0,0.0,0.0,0.5807,0.6055,0.5913,0.5828,0.5811,0.5899,0.6092,0.6483,0.6497,0.6592,0.0,0.0,0.0,0.0,0.0,0.0,0.0,0.0,0.0,0.0,0.0,0.0,0.0,0.0,0.0,0.0,0.0,0.0,0.0,0.0,0.0,0.0,0.0,0.0,0.0,0.0,0.0,0.0,0.0,0.0,0.0,0.0,0.0,0.0,0.0,0.0,0.0,0.0,0.0,0.0,0.0,0.0,1.4311,1.4647,0.0,0.0,0.0,1.5302,1.5342,0.0,0.0,0.0,0.0,0.0,0.0,0.0,0.0,0.0,0.0,0.0,0.0,0.0,0.0,0.0,0.0,0.0,0.0,0.0,0.0,0.0,0.0,0.0,0.0,0.0,0.0,0.0,0.0,0.0,0.0,0.0,0.0,0.0,0.0,0.0,0.0,0.0,0.0,0.0,0.0,0.0,0.0,0.0,0.0,0.0,0.0,0.0,0.0,0.0,0.0,0.0,0.0,0.0,0.0,0.0,0.0,0.0,0.6271,0.6037,0.5915,0.5953,0.604,0.6301,0.6673,0.667,0.0,0.0,0.0,0.0,0.0,0.0,0.0,0.0,0.0,0.0,0.0,0.0,0.0,0.0,0.0,0.0,0.0,0.0,0.0,0.0,0.0,0.0,0.0,0.0,0.0,0.0,0.0,0.906,0.0,0.0,0.0,0.0,0.0,0.0,0.0,0.0,0.0,0.0,0.0,0.0,0.0,0.0,1.3562,1.4293,1.4651,1.5008,0.0,0.0,1.541,1.5553,1.5018,1.4587,0.0,0.0,0.0,0.0,0.0,0.0,0.0,0.0,0.0,0.0,0.0,0.0,0.0,0.0,0.0,0.0,0.0,0.0,0.0,0.0,0.0,0.0,0.0,0.0,0.0,0.0,0.0,0.0,0.0,0.0,0.0,0.0,0.0,0.0,0.0,0.0,0.0,0.0,0.0,0.0,0.0,0.0,0.0,0.0,0.0,0.0,0.0,0.0,0.0,0.0,0.0,0.0,0.0,0.0,0.6044,0.6542,0.6122,0.5964,0.6072,0.6107,0.6201,0.6408,0.6643,0.6773,0.0,0.0,0.0,0.0,0.0,0.0,0.0,0.0,0.0,0.0,0.0,0.0,0.0,0.0,0.0,0.0,0.0,0.0,0.0,0.0,0.0,0.0,0.0,0.0,0.0,0.0,0.0,0.0,0.0,0.0,0.0,0.0,0.0,0.0,0.0,0.0,0.0,0.0,0.0,0.0,0.0,1.3014,1.3765,1.4132,1.4428,0.0,1.4901,1.4951,1.4735,1.4649,1.453,1.4271,0.0,0.0,0.0,0.0,0.0,0.0,0.0,0.0,0.0,0.0,0.0,0.0,0.0,0.0,0.0,0.0,0.0,0.0,0.0,0.0,0.0,0.0,0.0,0.0,0.0,0.0,0.0,0.0,0.0,0.0,0.0,0.0,0.0,0.0,0.0,0.0,0.0,0.0,0.0,0.0,0.0,0.0,0.0,0.0,0.0,0.0,0.0,0.0,0.0,0.0,0.0,0.0,0.0,0.5956,0.6173,0.6004,0.5862,0.574,0.5927,0.6154,0.6399,0.6568,0.6822,0.0,0.0,0.0,0.0,0.0,0.0,0.0,0.0,0.0,0.0,0.0,0.0,0.0,0.0,0.0,0.0,0.0,0.0,0.0,0.0,0.0,0.0,0.0,0.0,0.0,0.0,0.0,0.0,0.9869,0.9871,0.9862,0.0,0.0,0.0,0.0,0.0,0.0,0.0,0.0,0.0,0.0,1.2487,1.3262,1.3718,0.0,0.0,1.4302,1.4322,1.4559,1.4173,1.3897,1.3948,1.351,0.0,0.0,0.0,0.0,0.0,0.0,0.0,0.0,0.0,0.0,0.0,0.0,0.0,0.0,0.0,0.0,0.0,0.0,0.0,0.0,0.0,0.0,0.0,0.0,0.0,0.0,0.0,0.0,0.0,0.0,0.0,0.0,0.0,0.0,0.0,0.0,0.0,0.0,0.0,0.0,0.0,0.0,0.0,0.0,0.0,0.0,0.0,0.0,0.0,0.0,0.0,0.0,0.5758,0.5867,0.5816,0.5699,0.5532,0.5812,0.6022,0.6162,0.6443,0.6751,0.0,0.0,0.0,0.0,0.0,0.0,0.0,0.0,0.0,0.0,0.0,0.0,0.0,0.0,0.0,0.0,0.0,0.0,0.0,0.0,0.0,0.0,0.0,0.0,0.0,0.0,0.0,0.0,0.9517,0.9333,0.905,0.0,0.0,0.0,0.0,0.0,0.0,0.0,0.0,0.0,0.0,1.1954,1.2567,1.2936,1.32,1.3387,1.3388,1.3483,1.3853,1.3545,1.336,1.3519,0.0,0.0,0.0,0.0,0.0,0.0,0.0,0.0,0.0,0.0,0.0,0.0,0.0,0.0,0.0,0.0,0.0,0.0,0.0,0.0,0.0,0.0,0.0,0.0,0.0,0.0,0.0,0.3509,0.0,0.0,0.37,0.0,0.0,0.0,0.0,0.0,0.0,0.0,0.0,0.0,0.0,0.0,0.0,0.0,0.0,0.0,0.0,0.0,0.0,0.0,0.0,0.0,0.0,0.5463,0.5786,0.5586,0.5517,0.5561,0.5711,0.572,0.5646,0.6246,0.6477,0.6255,0.0,0.0,0.0,0.0,0.0,0.0,0.0,0.0,0.0,0.0,0.0,0.0,0.0,0.0,0.0,0.0,0.0,0.0,0.0,0.0,0.0,0.0,0.0,0.0,0.0,0.0,0.9024,0.9187,0.9108,0.0,0.0,0.0,0.0,0.0,0.0,0.0,0.0,0.0,1.0769,1.1084,1.1384,1.1618,1.1655,1.1692,1.1701,1.2045,1.2358,1.2386,1.2721,1.3013,0.0,0.0,0.0,0.0,0.0,0.0,0.0,0.0,0.0,0.0,0.0,0.0,0.0,0.0,0.0,0.0,0.0,0.0,0.0,0.0,0.0,0.0,0.0,0.0,0.0,0.0,0.0,0.3243,0.3298,0.0,0.0,0.0,0.0,0.0,0.0,0.0,0.0,0.0,0.0,0.0,0.2685,0.2428,0.0,0.0,0.0,0.0,0.0,0.0,0.0,0.0,0.0,0.0,0.0,0.0,0.4771,0.4785,0.483,0.4775,0.4676,0.4886,0.5095,0.5279,0.5644,0.603,0.6338,0.0,0.0,0.0,0.0,0.0,0.0,0.0,0.0,0.0,0.0,0.0,0.0,0.0,0.0,0.0,0.0,0.0,0.0,0.0,0.0,0.0,0.0,0.0,0.0,0.0,0.8497,0.0,0.0,0.0,0.0,0.0,0.0,0.0,0.0,0.0,0.0,0.0,0.9844,1.0145,1.0416,1.071,1.1001,1.1181,1.1254,0.0,0.0,0.0,0.0,0.0,0.0,0.0,0.0,0.0,0.0,0.0,0.0,0.0,0.0,1.0688,1.1142,1.1256,1.1151,1.0887,0.0,0.0,0.0,0.0,0.0,0.0,0.0,0.0,0.0,0.0,0.0,0.0,0.0,0.0,0.2681,0.266,0.2825,0.0,0.0,0.0,0.0,0.0,0.0,0.0,0.0,0.2905,0.2726,0.2316,0.2133,0.2026,0.0,0.2085,0.2171,0.0,0.0,0.0,0.0,0.0,0.0,0.0,0.0,0.4012,0.3952,0.4031,0.4051,0.4073,0.4256,0.4496,0.479,0.5161,0.5732,0.6516,0.7051,0.7266,0.0,0.0,0.0,0.0,0.0,0.0,0.0,0.0,0.0,0.0,0.0,0.0,0.0,0.0,0.0,0.0,0.0,0.0,0.0,0.0,0.0,0.0,0.0,0.8371,0.0,0.0,0.0,0.0,0.0,0.0,0.0,0.0,0.0,0.912,0.9378,0.9648,0.9903,1.0105,1.0306,1.0442,0.0,0.0,0.0,0.0,0.0,0.0,0.0,1.1203,1.1419,1.1395,1.1284,1.1166,1.0972,1.0882,1.0882,0.0,0.0,1.102,1.1098,1.1031,1.0928,1.0758,1.0623,1.0513,1.0463,1.0406,0.0,0.0,0.0,0.0,0.2491,0.0,0.0,0.0,0.2289,0.2048,0.0,0.2113,0.0,0.0,0.0,0.0,0.2698,0.2777,0.0,0.0,0.2538,0.2415,0.2156,0.1941,0.1861,0.1845,0.1674,0.1565,0.1609,0.2296,0.0,0.0,0.0,0.0,0.0,0.0,0.3138,0.3271,0.3273,0.3435,0.374,0.3826,0.3968,0.4199,0.4779,0.5625,0.6674,0.678,0.7035,0.7541,0.7468,0.0,0.0,0.0,0.0,0.0,0.0,0.0,0.0,0.0,0.0,0.0,0.0,0.0,0.0,0.0,0.0,0.0,0.0,0.0,0.0,0.8362,0.0,0.0,0.0,0.0,0.0,0.0,0.0,0.0,0.0,0.8982,0.9224,0.9537,0.9843,0.9985,0.0,0.0,0.0,0.0,0.9735,0.9509,0.9921,1.0322,1.0322,1.0789,1.115,1.115,0.0,0.0,1.1165,1.1158,1.1143,1.1158,1.1128,1.0997,1.0428,1.0382,1.0427,1.0547,1.0688,1.0845,1.094,1.0974,1.098,0.1705,0.0,0.0,0.0,0.0,0.2078,0.2101,0.2212,0.1877,0.1743,0.1812,0.1952,0.0,0.0,0.0,0.0,0.0,0.0,0.2382,0.2138,0.2022,0.1809,0.1553,0.1267,0.1115,0.1121,0.1068,0.1019,0.1024,0.1234,0.1506,0.1834,0.0,0.0,0.0,0.0,0.2521,0.279,0.2794,0.2857,0.301,0.3054,0.328,0.3771,0.4806,0.5471,0.5669,0.6447,0.6941,0.7041,0.7451,0.0,0.0,0.0,0.0,0.0,0.0,0.0,0.0,0.0,0.0,0.0,0.0,0.0,0.0,0.0,0.0,0.0,0.0,0.0,0.8634,0.856,0.8567,0.0,0.0,0.0,0.0,0.0,0.0,0.0,0.0,0.0,0.9597,0.9557,0.9607,0.0,0.0,0.9986,1.0146,1.0143,1.0118,1.0056,1.0187,0.0,1.0304,1.0443,1.0562,1.0562,1.0562,1.0597,1.067,1.0632,1.0562,1.0569,1.0569,1.05,1.0384,1.0669,1.0931,1.0983,1.0902,1.0813,1.0832,1.0693,1.0565,0.1102,0.1664,0.1583,0.157,0.1588,0.1434,0.1448,0.1587,0.1329,0.1259,0.1309,0.1432,0.1373,0.1262,0.1523,0.0,0.0,0.0,0.166,0.1521,0.1405,0.1258,0.1104,0.0916,0.0814,0.0852,0.0825,0.0855,0.0833,0.0695,0.0797,0.1076,0.0,0.1334,0.1541,0.1612,0.1718,0.1915,0.1916,0.2049,0.2351,0.2612,0.3018,0.3627,0.438,0.4968,0.535,0.6018,0.6536,0.6894,0.7298,0.7528,0.0,0.0,0.0,0.0,0.0,0.0,0.0,0.0,0.0,0.0,0.0,0.7034,0.7161,0.0,0.0,0.0,0.8437,0.8777,0.9083,0.8947,0.0,0.0,0.0,0.0,0.0,0.0,0.0,0.941,0.9496,0.9673,0.9958,0.9849,0.9839,0.9978,1.0005,1.0073,1.0288,0.0,1.0308,1.0308,1.0356,1.0365,1.0397,1.0412,1.0453,1.046,1.0453,1.0507,1.0643,1.0602,1.0568,1.0648,1.0662,1.0662,1.0662,1.0958,1.117,1.1023,1.0873,1.0811,1.093,1.0793,1.0689,0.0751,0.0721,0.0661,0.067,0.0693,0.0705,0.071,0.0711,0.0775,0.0676,0.0468,0.0676,0.0677,0.0469,0.0678,0.0,0.0805,0.0805,0.0833,0.0807,0.078,0.0759,0.077,0.0743,0.0783,0.0835,0.0835,0.0841,0.0794,0.053,0.0354,0.0383,0.0622,0.0784,0.0863,0.0864,0.087,0.0883,0.0883,0.1179,0.1742,0.2393,0.301,0.3511,0.3629,0.4242,0.5379,0.5526,0.5998,0.6969,0.7098,0.7351,0.7788,0.0,0.0,0.0,0.0,0.0,0.0,0.0,0.0,0.0,0.0,0.0,0.0,0.0,0.0,0.858,0.8961,0.0,0.9381,0.9388,0.0,0.0,0.0,0.9388,0.9444,0.9415,0.953,0.9822,0.0,0.0,1.0295,1.031,1.0349,1.0349,1.0304,1.0335,1.0317,1.0324,1.0317,1.0363,1.0432,1.0514,1.0548,1.0663,1.0758,1.0758,1.0718,1.0806,1.0894,1.0921,1.0982,1.1138,1.1193,1.1179,1.1193,1.1186,1.1084,1.088,1.0772,1.0833,1.1091,1.1145,1.1152,0.0198,0.0169,0.0167,0.038,0.0785,0.0762,0.0764,0.0764,0.0793,0.0769,0.0716,0.0769,0.0774,0.0702,0.0756,0.0824,0.0876,0.0876,0.0882,0.0863,0.0605,0.049,0.0492,0.029,0.0203,0.0205,0.0205,0.0205,0.0206,0.0118,0.0089,0.009,0.015,0.0298,0.0498,0.0527,0.0645,0.0883,0.0883,0.0978,0.114,0.182,0.2214,0.2341,0.2998,0.3636,0.415,0.4848,0.556,0.633,0.7022,0.7607,0.8094,0.8203,0.0,0.0,0.0,0.0,0.0,0.0,0.0,0.0,0.0,0.8192,0.8425,0.0,0.9098,0.0,0.9294,0.9417,0.9537,0.9478,0.0,0.0,0.9449,0.9469,0.9656,0.9683,0.9836,1.0134,1.0263,1.0358,1.0432,1.0541,1.0616,1.0616,1.0514,1.0487,1.0595,1.0616,1.0616,1.0616,1.061,1.0677,1.0786,1.0962,1.105,1.1056,1.1056,1.1104,1.1138,1.1145,1.1124,1.1193,1.12,1.12,1.1213,1.12,1.1274,1.1341,1.1226,1.1111,1.1186,1.1206,1.1234,0.0,0.0,0.0,0.0172,0.0447,0.0447,0.0447,0.0447,0.0447,0.0447,0.0447,0.0447,0.0449,0.0452,0.0452,0.0457,0.0494,0.0494,0.0497,0.0471,0.0294,0.0237,0.0208,0.006,0.0,0.0,0.0,0.0,0.0,0.0,0.0,0.0,0.0,0.0062,0.0215,0.0215,0.0307,0.0492,0.0645,0.071,0.0747,0.1285,0.1624,0.1725,0.2216,0.2779,0.337,0.4025,0.4787,0.567,0.6469,0.7277,0.806,0.829,0.8519,0.0,0.0,0.0,0.0,0.0,0.0,0.0,0.0,0.0,0.0,0.0,0.9478,0.9659,0.9741,0.9846,0.9897,0.9836,0.9815,0.9897,0.9866,0.9873,1.0005,1.0025,1.0114,1.0344,1.0446,1.0514,1.0582,1.067,1.0711,1.0779,1.0711,1.0697,1.0684,1.0738,1.0786,1.0792,1.0873,1.0941,1.0995,1.1111,1.12,1.12,1.12,1.1213,1.1281,1.1302,1.1301,1.1465,1.1457,1.1484,1.1581,1.1601,1.1662,1.1735,1.1687,1.1615,1.1601,1.1601,1.1628,0.0,0.0,0.0,0.0,0.0,0.0,0.0,0.0,0.0,0.0,0.0,0.0,0.0,0.0,0.0,0.0,0.0,0.0,0.0,0.0,0.0,0.0,0.0,0.0,0.0,0.0,0.0,0.0,0.0,0.0,0.0,0.0,0.0,0.0,0.0,0.0,0.0,0.0,0.0291,0.0452,0.0452,0.0742,0.1089,0.1361,0.1423,0.1885,0.2826,0.3193,0.394,0.5043,0.5736,0.66,0.7818,0.8131,0.8497,0.0,0.9091,0.0,0.0,0.0,0.0,0.0,0.0,0.0,0.0,0.9517,0.9771,1.0028,1.0202,1.0308,1.0308,1.0308,1.0308,1.0308,1.0308,1.0322,1.0335,1.0342,1.0365,1.0533,1.0541,1.0602,1.0698,1.0732,1.0833,1.0914,1.0934,1.0921,1.0792,1.086,1.0941,1.0948,1.1097,1.1213,1.1227,1.1247,1.1281,1.1288,1.1315,1.1336,1.1506,1.1491,1.1565,1.1782,1.1837,1.1891,1.2077,1.2077,1.2091,1.2104,1.2118,1.2111,1.2064,1.2043,1.2098,0.0,0.0,0.0,0.0,0.0,0.0,0.0,0.0,0.0,0.0,0.0,0.0,0.0,0.0,0.0,0.0,0.0,0.0,0.0,0.0,0.0,0.0,0.0,0.0,0.0,0.0,0.0,0.0,0.0,0.0,0.0,0.0,0.0,0.0,0.0,0.0,0.0,0.0,0.0065,0.0097,0.0129,0.042,0.0612,0.0707,0.0964,0.0,0.2144,0.2494,0.332,0.4642,0.5086,0.0,0.0,0.0,0.0,0.0,0.0,0.0,0.0,0.0,0.0,0.0,0.8977,0.9186,0.9305,0.9824,1.0206,1.0229,1.0295,1.0308,1.0308,1.0308,1.0308,1.0308,1.0315,1.0356,1.0432,1.0453,1.0507,1.0623,1.0752,1.084,1.0833,1.1002,1.1084,1.1118,1.1159,1.1111,1.1084,1.1138,1.1159,1.1166,1.1267,1.1348,1.1348,1.145,1.1572,1.1667,1.1708,1.1755,1.1914,1.1918,1.1968,1.2057,1.2057,1.2064,1.2104,1.2098,1.2173,1.2223,1.2338,1.2345,1.2152,1.2104,1.2098,0.0,0.0,0.0,0.0,0.0,0.0,0.0,0.0,0.0,0.0,0.0,0.0,0.0,0.0,0.0,0.0,0.0,0.0,0.0,0.0,0.0,0.0,0.0,0.0,0.0,0.0,0.0,0.0,0.0,0.0,0.0,0.0,0.0,0.0,0.0,0.0,0.0,0.0,0.0,0.0,0.0,0.0165,0.0263,0.0261,0.0391,0.0,0.0,0.0,0.0,0.0,0.0,0.0,0.0,0.6688,0.0,0.7921,0.7993,0.8014,0.8055,0.8166,0.8176,0.802,0.8501,0.8939,0.9218,0.9621,0.9935,1.0134,1.0194,1.0338,1.0461,1.05,1.05,1.05,1.0405,1.0379,1.0445,1.0311,1.0282,1.0353,1.043,1.0468,1.0468,1.0526,1.0707,1.0946,1.0994,1.1091,1.1327,1.1356,1.1329,1.1375,1.1511,1.157,1.1584,1.1735,1.185,1.1932,1.1945,1.1979,1.2084,1.2098,1.2125,1.2193,1.2268,1.2336,1.2386,1.2492,1.2567,1.2642,1.2678,1.2724,1.2574,1.2547,1.2547,0.0,0.0,0.0,0.0,0.0,0.0,0.0,0.0,0.0,0.0,0.0,0.0,0.0,0.0,0.0,0.0,0.0,0.0,0.0,0.0,0.0,0.0,0.0,0.0,0.0,0.0,0.0,0.0,0.0,0.0,0.0,0.0,0.0,0.0,0.0,0.0,0.0,0.0,0.0,0.0,0.0,0.0,0.0,0.0,0.0,0.0296,0.0878,0.1235,0.1918,0.2894,0.3766,0.4574,0.5253,0.5884,0.652,0.7098,0.7276,0.7363,0.7427,0.7446,0.7369,0.7163,0.7792,0.8421,0.9102,0.9346,0.9588,0.9915,1.0075,1.0225,1.0525,1.0585,1.0565,1.0565,1.0441,1.0336,1.0308,1.0122,1.0005,1.0024,1.0036,1.0054,1.006,1.0119,1.0251,1.0651,1.0766,1.0954,1.1424,1.15,1.1531,1.1674,1.1789,1.1827,1.1884,1.1959,1.2104,1.2132,1.2139,1.2159,1.2207,1.222,1.2281,1.2413,1.2508,1.2617,1.2706,1.284,1.2996,1.3003,1.3023,1.3037,1.3037,1.3064,1.3043,0.0,0.0,0.0,0.0,0.0,0.0,0.0,0.0,0.0,0.0,0.0,0.0,0.0,0.0,0.0,0.0,0.0,0.0,0.0,0.0,0.0,0.0,0.0,0.0,0.0,0.0,0.0,0.0,0.0,0.0,0.0,0.0,0.0,0.0,0.0,0.0,0.0,0.0,0.0,0.0,0.0,0.0,0.0,0.0,0.0,0.0168,0.0569,0.0937,0.1539,0.2275,0.2744,0.3312,0.4011,0.4625,0.5148,0.5541,0.6029,0.6306,0.6342,0.6446,0.6657,0.7,0.7122,0.7687,0.8829,0.9387,0.967,0.9736,0.982,0.9894,0.9934,1.006,1.0122,1.0094,1.0084,1.0062,1.0068,0.9983,0.9938,0.9909,1.0092,1.013,1.0077,1.0226,1.0377,1.0565,1.062,1.0828,1.1328,1.1607,1.1807,1.1996,1.205,1.2064,1.2033,1.2084,1.2179,1.2237,1.2271,1.2366,1.2569,1.2596,1.2651,1.2867,1.2894,1.2935,1.2969,1.2982,1.3023,1.3043,1.3118,1.3193,1.3166,1.3254,1.3261,0.0,0.0,0.0,0.0,0.0,0.0,0.0,0.0,0.0,0.0,0.0,0.0,0.0,0.0,0.0,0.0,0.0,0.0,0.0,0.0,0.0,0.0,0.0,0.0,0.0,0.0,0.0,0.0,0.0,0.0,0.0,0.0,0.0,0.0,0.0,0.0,0.0,0.0,0.0,0.0,0.0,0.0,0.0,0.0,0.0,0.0168,0.0471,0.0673,0.1043,0.1582,0.2122,0.2591,0.2928,0.3544,0.4062,0.4395,0.47,0.4945,0.5109,0.5375,0.5724,0.6214,0.6427,0.6851,0.7655,0.8423,0.8991,0.9223,0.9491,0.972,0.9892,0.9953,1.0024,1.0024,0.991,0.9742,0.9543,0.9389,0.921,0.9007,0.9104,0.9173,0.9173,0.9463,0.9809,1.0019,1.0359,1.0903,1.1484,1.1678,1.1812,1.2037,1.2166,1.2213,1.2234,1.2332,1.244,1.2522,1.2603,1.2698,1.284,1.2854,1.2888,1.2989,1.3064,1.3111,1.3118,1.3186,1.3227,1.3214,1.3315,1.3403,1.3437,1.3497,1.3553,-0.0101,-0.0101,-0.0034,0.0,0.0,0.0,0.0,0.0,0.0,0.0,0.0,0.0,0.0,0.0,0.0,0.0,0.0,0.0,0.0,0.0,0.0,0.0,0.0,0.0,0.0,0.0,0.0,0.0,0.0,0.0,0.0,0.0,0.0,0.0,0.0,0.0,0.0,0.0,0.0,0.0,0.0,0.0,0.0,0.0,0.0,0.0136,0.0374,0.0475,0.0645,0.0951,0.1597,0.1938,0.1971,0.258,0.3123,0.3428,0.36,0.3801,0.4075,0.4353,0.4747,0.5181,0.5534,0.5887,0.6352,0.7209,0.805,0.8591,0.8935,0.923,0.941,0.9544,0.9555,0.9561,0.943,0.9218,0.8959,0.8745,0.8525,0.8221,0.8251,0.8336,0.8387,0.8636,0.9033,0.9505,1.0216,1.0974,1.1511,1.1696,1.1918,1.2204,1.2383,1.2393,1.2406,1.2596,1.2745,1.2747,1.2868,1.2975,1.3023,1.305,1.3077,1.3118,1.3193,1.3275,1.3295,1.3397,1.3485,1.3505,1.3587,1.3619,1.3626,1.3693,1.3754,-0.0446,-0.0412,-0.0139,0.0,0.0,0.0,0.0,0.0,0.0,0.0,0.0,0.0,0.0,0.0,0.0,0.0,0.0,0.0,0.0,0.0,0.0,0.0,0.0,0.0,0.0,0.0,0.0,0.0,0.0,0.0,0.0,0.0,0.0,0.0,0.0,0.0,0.0,0.0,0.0,0.0,0.0,0.0,0.0,0.0,0.0,0.0,0.0,0.0349,0.0524,0.0594,0.0978,0.1222,0.1258,0.1884,0.2303,0.2373,0.2965,0.3351,0.3386,0.3425,0.3641,0.403,0.4385,0.4759,0.5237,0.6019,0.6869,0.7638,0.8037,0.8227,0.8196,0.8274,0.8364,0.841,0.8353,0.8283,0.8323,0.8352,0.8358,0.8384,0.8206,0.837,0.8225,0.8323,0.8663,0.9262,0.9993,1.0752,1.1378,1.1768,1.2194,1.2621,1.2773,1.2691,1.2698,1.2827,1.2962,1.2982,1.2996,1.3071,1.3159,1.3207,1.3227,1.3315,1.3464,1.3553,1.3551,1.3653,1.3727,1.37,1.3734,1.3781,1.3781,1.3815,1.3815,-0.0905,-0.087,-0.049,-0.021,0.0,0.0,0.0,0.0,0.0,0.0,0.0,0.0,0.0,0.0,0.0,0.0,0.0,0.0,0.0,0.0,0.0,0.0,0.0,0.0,0.0,0.0,0.0,0.0,0.0,0.0,0.0,0.0,0.0,0.0,0.0,0.0,0.0,0.0,0.0,0.0,0.0,0.0,0.0,0.0,0.0,0.0,0.0,0.014,0.021,0.021,0.0561,0.0736,0.0736,0.1262,0.1543,0.1577,0.1823,0.2216,0.2694,0.2695,0.2989,0.3622,0.3767,0.4064,0.4482,0.5059,0.5686,0.6275,0.7193,0.7783,0.7806,0.7815,0.7897,0.7878,0.7701,0.7492,0.7306,0.7273,0.7219,0.703,0.7039,0.7071,0.7155,0.7536,0.8259,0.9168,0.9832,1.0335,1.1083,1.1586,1.205,1.2502,1.2809,1.2956,1.2901,1.303,1.3111,1.3146,1.3207,1.3254,1.3295,1.3397,1.3471,1.3484,1.3619,1.3707,1.37,1.3741,1.3795,1.3822,1.3946,1.4,1.4089,1.4109,1.4116,-0.1516,-0.1411,-0.0991,-0.0532,-0.0177,-0.0177,-0.0106,0.0,0.0,0.0,0.0,0.0,0.0,0.0,0.0,0.0,0.0,0.0,0.0,0.0,0.0,0.0,0.0,0.0,0.0,0.0,0.0,0.0,0.0,0.0,0.0,0.0,0.0,0.0,0.0,0.0,0.0,0.0,0.0,0.0,0.0,0.0,0.0,0.0,0.0,0.0,0.0,0.0,0.0,0.0,0.0248,0.0355,0.039,0.0744,0.0993,0.11,0.1135,0.1388,0.1939,0.2018,0.2285,0.2929,0.3125,0.339,0.3762,0.4196,0.4553,0.488,0.5954,0.6687,0.7216,0.7232,0.7265,0.7289,0.703,0.6732,0.6342,0.6308,0.6167,0.5809,0.5973,0.6052,0.6273,0.7036,0.8023,0.8835,0.9377,0.9897,1.0763,1.1403,1.1941,1.2343,1.2887,1.3159,1.3105,1.318,1.3227,1.3315,1.3403,1.3464,1.3505,1.3585,1.3639,1.3653,1.3774,1.3899,1.3919,1.3926,1.3916,1.3944,1.4055,1.4156,1.4238,1.4285,1.4292,-0.225,-0.2147,-0.1449,-0.0946,-0.0583,-0.0583,-0.0328,0.0,0.0,0.0,0.0,0.0,0.0,0.0,0.0,0.0,0.0,0.0,0.0,0.0,0.0,0.0,0.0,0.0,0.0,0.0,0.0,0.0,0.0,0.0,0.0,0.0,0.0,0.0,0.0,0.0,0.0,0.0,0.0,0.0,0.0,0.0,0.0,0.0,0.0,0.0,0.0,0.0,0.0,0.0,0.0,0.0,0.0,0.0401,0.0765,0.1093,0.1166,0.1166,0.1242,0.1289,0.1483,0.1895,0.2286,0.2644,0.3014,0.3474,0.3704,0.3704,0.4271,0.499,0.5865,0.605,0.6091,0.6105,0.6026,0.5828,0.558,0.5476,0.5382,0.5195,0.5335,0.5715,0.6247,0.7208,0.7686,0.819,0.8926,0.9896,1.052,1.1324,1.1986,1.2538,1.2991,1.3342,1.3261,1.3295,1.3444,1.3532,1.3587,1.3648,1.3714,1.3788,1.3788,1.3815,1.3973,1.4055,1.4132,1.418,1.4204,1.4231,1.4217,1.4285,1.4292,1.4299,1.4299,-0.3003,-0.2281,-0.1783,-0.1349,-0.0949,-0.0736,-0.0517,-0.037,-0.0112,0.0,0.0,0.0,0.0,0.0,0.0,0.0,0.0,0.0,0.0,0.0,0.0,0.0,0.0,0.0,0.0,0.0,0.0,0.0,0.0,0.0,0.0,0.0,0.0,0.0,0.0,0.0,0.0,0.0,0.0,0.0,0.0,0.0,0.0,0.0,0.0,0.0,0.0,0.0,0.0,0.0,0.0,0.0,0.0,0.0112,0.0299,0.0411,0.0449,0.0523,0.0785,0.0825,0.0978,0.1392,0.1774,0.2084,0.2313,0.2859,0.3295,0.3337,0.3706,0.4183,0.4449,0.477,0.4918,0.4951,0.4766,0.4592,0.4441,0.4419,0.4359,0.4361,0.4655,0.5107,0.5687,0.6405,0.717,0.7827,0.878,0.9609,1.0267,1.1044,1.1795,1.237,1.2833,1.3266,1.362,1.3553,1.3551,1.3653,1.3727,1.3734,1.3802,1.396,1.398,1.4,1.4153,1.4177,1.4241,1.4211,1.4299,1.4299,1.4299,1.4299,1.4299,1.4299,1.4299,-0.3727,-0.2767,-0.2361,-0.1993,-0.159,-0.1156,-0.0823,-0.0599,-0.0302,-0.0114,0.0,0.0,0.0,0.0,0.0,0.0,0.0,0.0,0.0,0.0,0.0,0.0,0.0,0.0,0.0,0.0,0.0,0.0,0.0,0.0,0.0,0.0,0.0,0.0,0.0,0.0,0.0,0.0,0.0,0.0,0.0,0.0,0.0,0.0,0.0,0.0,0.0,0.0,0.0,0.0,0.0,0.0,0.0,0.0,0.0,0.0,0.0,0.0114,0.0341,0.0418,0.0571,0.099,0.1224,0.1494,0.1802,0.2394,0.272,0.2969,0.3181,0.3399,0.3446,0.3627,0.3852,0.4108,0.3961,0.3743,0.3611,0.3615,0.3628,0.373,0.4076,0.4533,0.503,0.5947,0.6762,0.747,0.8508,0.9465,0.9933,1.0839,1.1681,1.2265,1.2762,1.3294,1.3696,1.3817,1.3797,1.3885,1.3919,1.3919,1.3966,1.4075,1.4173,1.42,1.4248,1.4265,1.4299,1.4299,1.4299,1.4299,1.4299,1.4299,1.4299,1.4299,1.4299,-0.4424,-0.37,-0.3255,-0.2832,-0.2417,-0.1929,-0.1325,-0.072,-0.0569,-0.0342,0.0,0.0,0.0,0.0,0.0,0.0,0.0,0.0,0.0,0.0,0.0,0.0,0.0,0.0,0.0,0.0,0.0,0.0,0.0,0.0,0.0,0.0,0.0,0.0,0.0,0.0,0.0,0.0,0.0,0.0,0.0,0.0,0.0,0.0,0.0,0.0,0.0,0.0,0.0,0.0,0.0,0.0,0.0,0.0,0.0,0.0,0.0,0.0,0.0,0.0,0.0231,0.0541,0.0662,0.1058,0.1686,0.1926,0.2213,0.2589,0.2677,0.2689,0.2712,0.2755,0.3027,0.3647,0.3705,0.3566,0.3292,0.3214,0.3214,0.3307,0.3742,0.4177,0.4767,0.5837,0.6714,0.7097,0.8328,0.9496,0.9757,1.071,1.1737,1.2344,1.2736,1.3167,1.369,1.4068,1.4068,1.4075,1.4075,1.4089,1.415,1.4231,1.4224,1.4245,1.4238,1.4299,1.4299,1.4299,1.4299,1.4299,1.4299,1.4299,1.4299,1.4299,1.4299,-0.4996,-0.4505,-0.4089,-0.3521,-0.2881,-0.2446,-0.1802,-0.0998,-0.0735,-0.0388,0.0,0.0,0.0,0.0,0.0,0.0,0.0,0.0,0.0,0.0,0.0,0.0,0.0,0.0,0.0,0.0,0.0,0.0,0.0,0.0,0.0,0.0,0.0,0.0,0.0,0.0,0.0,0.0,0.0,0.0,0.0,0.0,0.0,0.0,0.0,0.0,0.0,0.0,0.0,0.0,0.0,0.0,0.0,0.0,0.0,0.0,0.0,0.0,0.0,0.0,0.0,0.0235,0.0434,0.0874,0.1433,0.1762,0.2134,0.2507,0.2589,0.2594,0.2602,0.2581,0.2782,0.2956,0.3003,0.3021,0.292,0.2857,0.2997,0.3331,0.3717,0.4182,0.4777,0.5954,0.6799,0.7018,0.8412,0.9583,0.9826,1.0613,1.1435,1.2056,1.252,1.3078,1.3598,1.4052,1.4183,1.4177,1.4183,1.4183,1.4258,1.4299,1.4299,1.4299,1.4299,1.4299,1.4299,1.4299,1.4299,1.4299,1.4299,1.4299,1.4299,1.4312,1.4333,-0.5829,-0.5181,-0.4757,-0.4106,-0.3343,-0.2904,-0.2135,-0.1282,-0.0978,-0.055,0.0,0.0,0.0,0.0,0.0,0.0,0.0,0.0,0.0,0.0,0.0,0.0,0.0,0.0,0.0,0.0,0.0,0.0,0.0,0.0,0.0,0.0,0.0,0.0,0.0,0.0,0.0,0.0,0.0,0.0,0.0,0.0,0.0,0.0,0.0,0.0,0.0,0.0,0.0,0.0,0.0,0.0,0.0,0.0,0.0,0.0,0.0,0.0,0.0,0.0,0.0,0.0,0.0401,0.0804,0.1249,0.1704,0.2158,0.274,0.2864,0.2951,0.3089,0.3147,0.3109,0.3132,0.2842,0.2726,0.283,0.2931,0.3161,0.363,0.4062,0.4492,0.5152,0.6026,0.6963,0.7356,0.8637,0.974,0.9928,1.0598,1.1319,1.1954,1.2521,1.3054,1.3514,1.3932,1.4248,1.4278,1.4272,1.4265,1.4292,1.4299,1.4299,1.4299,1.4299,1.4299,1.4299,1.4299,1.4299,1.4299,1.4319,1.4333,1.4353,1.4394,1.4428,-0.6822,-0.5769,-0.5257,-0.4581,-0.376,-0.3333,-0.2433,-0.1376,-0.1259,-0.0788,0.0,0.0,0.0,0.0,0.0,0.0,0.0,0.0,0.0,0.0,0.0,0.0,0.0,0.0,0.0,0.0,0.0,0.0,0.0,0.0,0.0,0.0,0.0,0.0,0.0,0.0,0.0,0.0,0.0,0.0,0.0,0.0,0.0,0.0,0.0,0.0,0.0,0.0,0.0,0.0,0.0,0.0,0.0,0.0,0.0,0.0,0.0,0.0,0.0,0.0,0.0,0.0,0.0447,0.0855,0.1263,0.1798,0.2423,0.3144,0.3312,0.3532,0.385,0.3985,0.3988,0.3954,0.3402,0.3153,0.3369,0.3458,0.3693,0.4099,0.458,0.5022,0.558,0.6462,0.7125,0.7739,0.8835,0.9632,1.0029,1.0639,1.1428,1.1996,1.2435,1.2895,1.3369,1.3945,1.4255,1.4299,1.4299,1.4299,1.4299,1.4299,1.4299,1.4299,1.4299,1.4299,1.4299,1.4299,1.4326,1.436,1.438,1.4394,1.4448,1.4502,1.455,-0.7451,-0.6552,-0.6118,-0.5139,-0.3885,-0.365,-0.2723,-0.1392,-0.1313,-0.0799,0.0,0.0,0.0,0.0,0.0,0.0,0.0,0.0,0.0,0.0,0.0,0.0,0.0,0.0,0.0,0.0,0.0,0.0,0.0,0.0,0.0,0.0,0.0,0.0,0.0,0.0,0.0,0.0,0.0,0.0,0.0,0.0,0.0,0.0,0.0,0.0,0.0,0.0,0.0,0.0,0.0,0.0,0.0,0.0,0.0,0.0,0.0,0.0,0.0,0.0,0.0,0.0,0.0492,0.0865,0.1278,0.2076,0.2712,0.331,0.3601,0.4023,0.4414,0.4544,0.4726,0.4927,0.4344,0.3876,0.392,0.3946,0.4185,0.463,0.5148,0.5634,0.6221,0.6869,0.7596,0.8002,0.8916,0.9891,1.0136,1.077,1.1588,1.1821,1.2243,1.2692,1.3236,1.3856,1.4255,1.4299,1.4299,1.4299,1.4299,1.4299,1.4299,1.4299,1.4299,1.4299,1.4299,1.4306,1.4353,1.4414,1.4468,1.4502,1.4611,1.464,1.4647,-0.7783,-0.6684,-0.6475,-0.5416,-0.3944,-0.3865,-0.2882,-0.1529,-0.1289,-0.0808,0.0,0.0,0.0,0.0,0.0,0.0,0.0,0.0,0.0,0.0,0.0,0.0,0.0,0.0,0.0,0.0,0.0,0.0,0.0,0.0,0.0,0.0,0.0,0.0,0.0,0.0,0.0,0.0,0.0,0.0,0.0,0.0,0.0,0.0,0.0,0.0,0.0,0.0,0.0,0.0,0.0,0.0,0.0,0.0,0.0,0.0,0.0,0.0,0.0,0.0,0.0,0.033,0.0707,0.1249,0.1877,0.26,0.3239,0.4204,0.4474,0.495,0.5507,0.5651,0.581,0.6016,0.5658,0.5275,0.5082,0.5105,0.5312,0.5719,0.608,0.6442,0.6902,0.7523,0.785,0.8308,0.918,0.974,1.011,1.0921,1.1543,1.1721,1.2165,1.2742,1.3192,1.3768,1.421,1.4299,1.4299,1.4299,1.4299,1.4299,1.4299,1.4299,1.4299,1.4306,1.4319,1.4353,1.4421,1.4489,1.455,1.4658,1.4721,1.4789,1.4848,-0.7955,-0.6484,-0.6432,-0.5445,-0.4022,-0.3821,-0.2845,-0.1508,-0.1305,-0.0816,0.0,0.0,0.0,0.0,0.0,0.0,0.0,0.0,0.0,0.0,0.0,0.0,0.0,0.0,0.0,0.0,0.0,0.0,0.0,0.0,0.0,0.0,0.0,0.0,0.0,0.0,0.0,0.0,0.0,0.0,0.0,0.0,0.0,0.0,0.0,0.0,0.0,0.0,0.0,0.0,0.0,0.0,0.0,0.0,0.0,0.0,0.0,0.0,0.0,0.0,0.0252,0.063,0.1092,0.1726,0.2528,0.3208,0.4058,0.5084,0.5535,0.6072,0.6857,0.7166,0.7378,0.7447,0.737,0.7162,0.6775,0.6538,0.6563,0.7017,0.7071,0.7415,0.7725,0.7978,0.8108,0.8389,0.9264,0.9803,1.0253,1.0921,1.1366,1.1543,1.2121,1.2831,1.3274,1.3673,1.4078,1.4299,1.4299,1.4299,1.4299,1.4299,1.4299,1.4299,1.4299,1.4326,1.4367,1.4414,1.4496,1.4618,1.4719,1.4835,1.4943,1.4977,1.4991,-0.8209,-0.6879,-0.6206,-0.5161,-0.3943,-0.3496,-0.2577,-0.132,-0.132,-0.0787,0.0,0.0,0.0,0.0,0.0,0.0,0.0,0.0,0.0,0.0,0.0,0.0,0.0,0.0,0.0,0.0,0.0,0.0,0.0,0.0,0.0,0.0,0.0,0.0,0.0,0.0,0.0,0.0,0.0,0.0,0.0,0.0,0.0,0.0,0.0,0.0,0.0,0.0,0.0,0.0,0.0,0.0,0.0,0.0,0.0,0.0,0.0,0.0,0.0,0.0294,0.059,0.0801,0.1435,0.2111,0.2769,0.3878,0.4708,0.555,0.6225,0.7097,0.7976,0.8822,0.8996,0.9026,0.9127,0.918,0.8945,0.7873,0.7259,0.7273,0.7543,0.7777,0.7929,0.8246,0.8473,0.8697,0.9232,0.9897,1.0387,1.0921,1.1232,1.1499,1.221,1.2875,1.3147,1.3635,1.4078,1.4299,1.4299,1.4299,1.4299,1.4299,1.4299,1.4299,1.4299,1.434,1.4414,1.4516,1.4597,1.4746,1.4882,1.4977,1.5052,1.5092,1.5113,-0.7897,-0.6802,-0.5975,-0.4956,-0.3925,-0.3223,-0.2321,-0.1376,-0.1085,-0.0628,0.0,0.0,0.0,0.0,0.0,0.0,0.0,0.0,0.0,0.0,0.0,0.0,0.0,0.0,0.0,0.0,0.0,0.0,0.0,0.0,0.0,0.0,0.0,0.0,0.0,0.0,0.0,0.0,0.0,0.0,0.0,0.0,0.0,0.0,0.0,0.0,0.0,0.0,0.0,0.0,0.0,0.0,0.0,0.0,0.0,0.0,0.0,0.0,0.0,0.0423,0.0806,0.106,0.1874,0.2656,0.3442,0.4523,0.544,0.6206,0.7106,0.8106,0.9026,0.9462,0.9901,0.9954,0.9992,1.003,0.9808,0.8916,0.8201,0.8157,0.8242,0.8242,0.8339,0.8473,0.8563,0.8697,0.9411,1.003,1.0298,1.0787,1.1277,1.1677,1.2387,1.292,1.3103,1.3546,1.4166,1.4299,1.4299,1.4299,1.4299,1.4299,1.4299,1.4319,1.4346,1.4414,1.4489,1.4597,1.4726,1.4855,1.4984,1.5079,1.514,1.514,1.5147,-0.7331,-0.6346,-0.5613,-0.4752,-0.3868,-0.2942,-0.21,-0.1303,-0.0884,-0.0463,0.0,0.0,0.0,0.0,0.0,0.0,0.0,0.0,0.0,0.0,0.0,0.0,0.0,0.0,0.0,0.0,0.0,0.0,0.0,0.0,0.0,0.0,0.0,0.0,0.0,0.0,0.0,0.0,0.0,0.0,0.0,0.0,0.0,0.0,0.0,0.0,0.0,0.0,0.0,0.0,0.0,0.0,0.0,0.0,0.0,0.0,0.0,0.0,0.0,0.0598,0.1072,0.1544,0.2376,0.3391,0.4353,0.5227,0.6152,0.7181,0.8189,0.9176,0.9972,1.0283,1.0283,1.0293,1.0253,1.0209,1.0119,0.9808,0.9451,0.9098,0.8831,0.8697,0.8563,0.8563,0.8652,0.8831,0.954,1.0119,1.0387,1.0743,1.1321,1.181,1.2476,1.323,1.3502,1.3635,1.4255,1.4299,1.4299,1.4306,1.4312,1.436,1.4373,1.438,1.4421,1.4502,1.4618,1.4767,1.4882,1.5037,1.5105,1.514,1.5167,1.5181,1.5187,-0.708,-0.5538,-0.5043,-0.4332,-0.3407,-0.2524,-0.1808,-0.1304,-0.0842,-0.0421,0.0,0.0,0.0,0.0,0.0,0.0,0.0,0.0,0.0,0.0,0.0,0.0,0.0,0.0,0.0,0.0,0.0,0.0,0.0,0.0,0.0,0.0,0.0,0.0,0.0,0.0,0.0,0.0,0.0,0.0,0.0,0.0,0.0,0.0,0.0,0.0,0.0,0.0,0.0,0.0,0.0,0.0,0.0,0.0,0.0,0.0,0.0,0.0214,0.0517,0.1038,0.1691,0.243,0.309,0.4068,0.5095,0.603,0.7058,0.8252,0.9393,1.0367,1.056,1.0876,1.1188,1.1232,1.1143,1.1143,1.1054,1.0698,1.0119,0.9589,0.9322,0.9098,0.8964,0.8875,0.892,0.9183,0.9763,1.0253,1.052,1.101,1.1543,1.2077,1.2565,1.3318,1.3989,1.4078,1.4299,1.4299,1.4306,1.4319,1.4353,1.4428,1.4468,1.4529,1.457,1.4638,1.4774,1.4916,1.5011,1.5086,1.514,1.5181,1.5181,1.5181,1.5201,-0.6179,-0.53,-0.4416,-0.3659,-0.2945,-0.2061,-0.1388,-0.0968,-0.0547,-0.0211,0.0,0.0,0.0,0.0,0.0,0.0,0.0,0.0,0.0,0.0,0.0,0.0,0.0,0.0,0.0,0.0,0.0,0.0,0.0,0.0,0.0,0.0,0.0,0.0,0.0,0.0,0.0,0.0,0.0,0.0,0.0,0.0,0.0,0.0,0.0,0.0,0.0,0.0,0.0,0.0,0.0,0.0,0.0,0.0,0.0,0.0,0.0216,0.0432,0.0783,0.1353,0.2104,0.2807,0.3654,0.4648,0.5731,0.6808,0.8106,0.9384,1.0075,1.0832,1.1099,1.1366,1.1455,1.1499,1.1499,1.1499,1.1455,1.1232,1.0698,1.003,0.9589,0.9411,0.9455,0.9362,0.9317,0.9585,1.0075,1.0387,1.0698,1.1232,1.1766,1.2343,1.2875,1.3496,1.4122,1.4255,1.4299,1.4299,1.4333,1.4346,1.4407,1.4496,1.4638,1.4753,1.4787,1.4808,1.4882,1.5011,1.5099,1.516,1.5174,1.5181,1.5181,1.5187,1.5221,-0.5258,-0.488,-0.3743,-0.2987,-0.2439,-0.1557,-0.101,-0.0631,-0.0211,0.0,0.0,0.0,0.0,0.0,0.0,0.0,0.0,0.0,0.0,0.0,0.0,0.0,0.0,0.0,0.0,0.0,0.0,0.0,0.0,0.0,0.0,0.0,0.0,0.0,0.0,0.0,0.0,0.0,0.0,0.0,0.0,0.0,0.0,0.0,0.0,0.0,0.0,0.0,0.0,0.0,0.0,0.0,0.0,0.0,0.0,0.0306,0.0568,0.0742,0.1228,0.1807,0.2614,0.3278,0.4417,0.5328,0.6493,0.7959,0.9437,1.0476,1.101,1.1143,1.141,1.1588,1.1588,1.1499,1.1499,1.1499,1.1499,1.141,1.1277,1.0654,0.9986,0.9768,0.9808,0.9763,0.9674,0.9941,1.0387,1.0698,1.101,1.1455,1.1988,1.2609,1.3186,1.3768,1.4166,1.4255,1.4299,1.4299,1.436,1.4407,1.4489,1.4584,1.474,1.4903,1.4977,1.4997,1.5059,1.5086,1.5133,1.5174,1.5181,1.5181,1.5181,1.5242,1.5303,-0.4712,-0.3577,-0.3029,-0.2524,-0.1976,-0.1136,-0.0758,-0.0631,-0.0168,0.0,0.0,0.0,0.0,0.0,0.0,0.0,0.0,0.0,0.0,0.0,0.0,0.0,0.0,0.0,0.0,0.0,0.0,0.0,0.0,0.0,0.0,0.0,0.0,0.0,0.0,0.0,0.0,0.0,0.0,0.0,0.0,0.0,0.0,0.0,0.0,0.0,0.0,0.0,0.0,0.0,0.0,0.0222,0.0536,0.0626,0.085,0.0981,0.1022,0.1063,0.1871,0.25,0.3262,0.4066,0.5065,0.6231,0.7617,0.909,1.0387,1.0609,1.141,1.1766,1.1677,1.1899,1.1855,1.1677,1.1499,1.1499,1.1499,1.1499,1.1366,1.1277,1.0609,1.0298,1.0164,1.0119,1.0075,1.0387,1.0743,1.101,1.141,1.1899,1.2343,1.2964,1.3496,1.4033,1.4166,1.4299,1.4326,1.4319,1.4394,1.4482,1.4618,1.4733,1.4848,1.4991,1.5126,1.5173,1.5133,1.5147,1.5174,1.5181,1.5181,1.5181,1.5187,1.5262,1.5364,-0.3533,-0.2945,-0.2482,-0.1893,-0.1262,-0.0842,-0.0548,-0.0295,0.0,0.0,0.0,0.0,0.0,0.0,0.0,0.0,0.0,0.0,0.0,0.0,0.0,0.0,0.0,0.0,0.0,0.0,0.0,0.0,0.0,0.0,0.0,0.0,0.0,0.0,0.0,0.0,0.0,0.0,0.0,0.0,0.0,0.0,0.0,0.0,0.0,0.0,0.0,0.0,0.0,0.0,0.0223,0.0491,0.0717,0.0987,0.1391,0.2152,0.2101,0.2188,0.2555,0.3095,0.3902,0.489,0.5873,0.6991,0.8733,1.003,1.1054,1.1543,1.1899,1.2077,1.1988,1.2077,1.1855,1.1677,1.1543,1.1499,1.1499,1.1499,1.1455,1.1366,1.1321,1.0965,1.0654,1.0609,1.0698,1.0965,1.1232,1.1499,1.1988,1.2609,1.3008,1.3369,1.3812,1.4255,1.4255,1.4299,1.438,1.4401,1.4455,1.4577,1.4767,1.4949,1.4991,1.5059,1.5126,1.5167,1.5181,1.5181,1.5181,1.5181,1.5181,1.5221,1.5262,1.5337,1.5459,-0.2398,-0.2146,-0.1809,-0.1263,-0.0716,-0.059,-0.0337,0.0,0.0,0.0,0.0,0.0,0.0,0.0,0.0,0.0,0.0,0.0,0.0,0.0,0.0,0.0,0.0,0.0,0.0,0.0,0.0,0.0,0.0,0.0,0.0,0.0,0.0,0.0,0.0,0.0,0.0,0.0,0.0,0.0,0.0,0.0,0.0,0.0,0.0,0.0,0.0,0.0,0.0,0.0,0.0493,0.0762,0.1167,0.1661,0.2198,0.2916,0.318,0.3538,0.3766,0.4171,0.4711,0.5604,0.6857,0.8153,0.9714,1.0698,1.1277,1.2032,1.252,1.252,1.2387,1.2387,1.2165,1.1899,1.1588,1.1543,1.1499,1.1499,1.1499,1.1455,1.141,1.1455,1.1232,1.1188,1.1321,1.1588,1.1766,1.1988,1.252,1.3186,1.3502,1.3768,1.3989,1.4306,1.4312,1.4333,1.4407,1.4502,1.4557,1.4665,1.4908,1.503,1.5072,1.5133,1.5174,1.5181,1.5181,1.5181,1.5181,1.5194,1.5221,1.5303,1.5364,1.5438,1.5574,-0.1557,-0.0842,-0.0842,-0.0758,-0.0632,-0.0211,0.0,0.0,0.0,0.0,0.0,0.0,0.0,0.0,0.0,0.0,0.0,0.0,0.0,0.0,0.0,0.0,0.0,0.0,0.0,0.0,0.0,0.0,0.0,0.0,0.0,0.0,0.0,0.0,0.0,0.0,0.0,0.0,0.0,0.0,0.0,0.0,0.0,0.0,0.0,0.0,0.0,0.0,0.0224,0.0539,0.0808,0.1302,0.1885,0.2424,0.3006,0.3723,0.435,0.4798,0.5291,0.5336,0.5562,0.632,0.7658,0.9357,1.0565,1.1543,1.2077,1.2343,1.292,1.3097,1.2964,1.2831,1.2609,1.2121,1.1766,1.1632,1.1543,1.1499,1.1499,1.1499,1.1543,1.1677,1.181,1.1766,1.1677,1.1899,1.2343,1.2565,1.2964,1.3546,1.3812,1.4033,1.4166,1.4306,1.4326,1.4387,1.4489,1.4631,1.4733,1.4828,1.501,1.5105,1.5133,1.5153,1.5181,1.5181,1.5194,1.5221,1.5242,1.5235,1.5276,1.5371,1.552,1.5649,1.5791,-0.122,-0.0674,-0.0379,-0.0253,-0.0253,-0.0084,0.0,0.0,0.0,0.0,0.0,0.0,0.0,0.0,0.0,0.0,0.0,0.0,0.0,0.0,0.0,0.0,0.0,0.0,0.0,0.0,0.0,0.0,0.0,0.0,0.0,0.0,0.0,0.0,0.0,0.0,0.0,0.0,0.0,0.0,0.0,0.0,0.0,0.0,0.0,0.0,0.0,0.0,0.0494,0.0808,0.1302,0.193,0.2603,0.3095,0.3857,0.4664,0.5291,0.6007,0.6678,0.6633,0.6544,0.7706,0.909,1.0471,1.1143,1.1855,1.252,1.2964,1.3363,1.3502,1.3413,1.328,1.3059,1.2432,1.2032,1.1855,1.1721,1.1721,1.1721,1.181,1.1899,1.1988,1.2165,1.2343,1.2254,1.2254,1.2742,1.3186,1.3546,1.3812,1.4033,1.4166,1.4255,1.4367,1.4394,1.4482,1.4584,1.4733,1.4889,1.5017,1.5098,1.5153,1.5167,1.5181,1.5187,1.5194,1.5221,1.5276,1.5303,1.5309,1.5377,1.5472,1.5642,1.5888,1.6003,-0.0884,-0.0463,-0.0126,0.0,0.0,0.0,0.0,0.0,0.0,0.0,0.0,0.0,0.0,0.0,0.0,0.0,0.0,0.0,0.0,0.0,0.0,0.0,0.0,0.0,0.0,0.0,0.0,0.0,0.0,0.0,0.0,0.0,0.0,0.0,0.0,0.0,0.0,0.0,0.0,0.0,0.0,0.0,0.0,0.0,0.0,0.0,0.0,0.0673,0.1032,0.1436,0.193,0.2558,0.3185,0.3857,0.4709,0.5515,0.632,0.7081,0.7617,0.7885,0.7926,0.9134,1.0115,1.1054,1.1677,1.2254,1.3008,1.3413,1.3679,1.3812,1.3768,1.3635,1.3458,1.2881,1.2565,1.2343,1.221,1.2165,1.2121,1.2121,1.2254,1.2432,1.2609,1.2787,1.292,1.2964,1.3369,1.3679,1.3856,1.4078,1.421,1.4255,1.4299,1.4387,1.4482,1.4584,1.4685,1.4841,1.4977,1.5059,1.5133,1.5174,1.5181,1.5181,1.5187,1.5201,1.5262,1.5343,1.5377,1.5398,1.5513,1.5649,1.5798,1.5974,1.6058,-0.0463,-0.0042,0.0,0.0,0.0,0.0,0.0,0.0,0.0,0.0,0.0,0.0,0.0,0.0,0.0,0.0,0.0,0.0,0.0,0.0,0.0,0.0,0.0,0.0,0.0,0.0,0.0,0.0,0.0,0.0,0.0,0.0,0.0,0.0,0.0,0.0,0.0,0.0,0.0,0.0,0.0,0.0,0.0,0.0,0.0404,0.0539,0.0763,0.1167,0.1571,0.2065,0.2557,0.3185,0.3812,0.4798,0.5559,0.601,0.7527,0.8331,0.8644,0.8996,0.9665,1.0382,1.1143,1.1766,1.2299,1.2926,1.3502,1.3768,1.3989,1.4166,1.4122,1.3901,1.3679,1.3369,1.3014,1.2787,1.2654,1.2565,1.2476,1.2476,1.2698,1.292,1.3097,1.3274,1.3496,1.3723,1.4033,1.4166,1.4166,1.421,1.4299,1.4319,1.4333,1.4448,1.4557,1.4672,1.4794,1.495,1.5098,1.5126,1.516,1.5174,1.5181,1.5181,1.5228,1.5276,1.5343,1.5418,1.5506,1.5622,1.5737,1.5866,1.6001,1.6069,1.6126,-0.0421,0.0,0.0,0.0,0.0,0.0,0.0,0.0,0.0,0.0,0.0,0.0,0.0,0.0,0.0,0.0,0.0,0.0,0.0,0.0,0.0,0.0,0.0,0.0,0.0,0.0,0.0,0.0,0.0,0.0,0.0,0.0,0.0,0.0,0.0,0.0,0.0,0.0,0.0,0.0,0.0,0.0,0.0135,0.0404,0.0628,0.0898,0.1167,0.1661,0.2199,0.2693,0.314,0.3902,0.4666,0.5696,0.6365,0.717,0.8599,0.9224,1.0159,1.0916,1.1138,1.1543,1.1943,1.2565,1.3141,1.3369,1.3723,1.3945,1.4166,1.4299,1.421,1.4166,1.3989,1.3635,1.3325,1.3147,1.2964,1.2875,1.2787,1.2875,1.3053,1.3502,1.3723,1.3679,1.3856,1.3945,1.421,1.4255,1.4255,1.4255,1.4306,1.4346,1.4387,1.4516,1.4638,1.4767,1.4903,1.5052,1.512,1.5153,1.5181,1.5181,1.5201,1.5208,1.5282,1.535,1.5459,1.5574,1.5744,1.5872,1.5976,1.6017,1.6085,1.6126,1.6126,-0.0295,0.0,0.0,0.0,0.0,0.0,0.0,0.0,0.0,0.0,0.0,0.0,0.0,0.0,0.0,0.0,0.0,0.0,0.0,0.0,0.0,0.0,0.0,0.0,0.0,0.0,0.0,0.0,0.0,0.0,0.0,0.0,0.0,0.0,0.0,0.0,0.0,0.0,0.0,0.0,0.0,0.018,0.0404,0.0718,0.1032,0.1392,0.1795,0.2289,0.2828,0.3275,0.3947,0.4709,0.5562,0.6499,0.7215,0.8283,0.9268,1.0115,1.1316,1.2077,1.221,1.2387,1.2875,1.323,1.3591,1.3768,1.3989,1.4166,1.4299,1.4299,1.4299,1.4299,1.4166,1.3812,1.3768,1.3546,1.3502,1.3413,1.3413,1.3458,1.3546,1.3945,1.421,1.421,1.421,1.4255,1.4299,1.4299,1.4299,1.4299,1.4333,1.4394,1.4462,1.459,1.4733,1.4869,1.5011,1.5153,1.5181,1.5181,1.5181,1.5181,1.5208,1.5255,1.5337,1.5438,1.5601,1.5744,1.5893,1.603,1.6078,1.6105,1.6133,1.6133,1.6133,0.0,0.0,0.0,0.0,0.0,0.0,0.0,0.0,0.0,0.0,0.0,0.0,0.0,0.0,0.0,0.0,0.0,0.0,0.0,0.0,0.0,0.0,0.0,0.0,0.0,0.0,0.0,0.0,0.0,0.0,0.0,0.0,0.0,0.0,0.0,0.0,0.0,0.0,0.0,0.0,0.0,0.0449,0.0718,0.1077,0.1571,0.202,0.2469,0.2962,0.3499,0.4081,0.4888,0.5517,0.641,0.7613,0.8238,0.9045,1.007,1.1143,1.2032,1.2654,1.3097,1.328,1.3502,1.3635,1.3768,1.3989,1.4166,1.4255,1.4299,1.4299,1.4299,1.4299,1.4299,1.421,1.421,1.4166,1.4166,1.4166,1.4122,1.4122,1.4122,1.4299,1.4299,1.4299,1.4299,1.4299,1.4299,1.4299,1.4299,1.4299,1.4346,1.4468,1.4557,1.4672,1.4814,1.501,1.5098,1.5181,1.5181,1.5181,1.5181,1.5194,1.5242,1.5303,1.5398,1.554,1.575,1.59,1.6064,1.6133,1.6133,1.6133,1.6133,1.6133,1.6133,0.0,0.0,0.0,0.0,0.0,0.0,0.0,0.0,0.0,0.0,0.0,0.0,0.0,0.0,0.0,0.0,0.0,0.0,0.0,0.0,0.0,0.0,0.0,0.0,0.0,0.0,0.0,0.0,0.0,0.0,0.0,0.0,0.0,0.0,0.0,0.0,0.0,0.0,0.0,0.0,0.0404,0.0673,0.1077,0.1616,0.202,0.2513,0.3097,0.3456,0.4037,0.5067,0.5428,0.6099,0.7885,0.8376,0.8822,1.0115,1.1143,1.2077,1.266,1.3147,1.3591,1.3901,1.4078,1.4078,1.4122,1.421,1.4299,1.4299,1.4299,1.4299,1.4299,1.4299,1.4299,1.4299,1.4299,1.4299,1.4299,1.4299,1.4299,1.4299,1.4299,1.4299,1.4299,1.4299,1.4299,1.4299,1.4299,1.4299,1.4312,1.4319,1.4401,1.4523,1.4658,1.478,1.4909,1.5052,1.5113,1.5174,1.5181,1.5181,1.5187,1.5215,1.5276,1.5398,1.5567,1.5757,1.5961,1.6056,1.6126,1.6133,1.6133,1.6133,1.6133,1.6133,1.6133,0.0,0.0,0.0,0.0,0.0,0.0,0.0,0.0,0.0,0.0,0.0,0.0,0.0,0.0,0.0,0.0,0.0,0.0,0.0,0.0,0.0,0.0,0.0,0.0,0.0,0.0,0.0,0.0,0.0,0.0,0.0,0.0,0.0,0.0,0.0,0.0,0.0,0.0,0.0,0.0,0.0584,0.0898,0.1526,0.2111,0.2424,0.3097,0.3633,0.3947,0.4933,0.5873,0.6099,0.7304,0.8733,0.909,0.9937,1.1143,1.1721,1.2476,1.3053,1.3369,1.3856,1.4166,1.4299,1.4299,1.4299,1.4299,1.4299,1.4299,1.4299,1.4299,1.4299,1.4299,1.4299,1.4299,1.4299,1.4299,1.4299,1.4299,1.4299,1.4299,1.4299,1.4299,1.4299,1.4299,1.4299,1.4299,1.4299,1.4299,1.434,1.438,1.4482,1.4572,1.4753,1.4889,1.5018,1.5106,1.5147,1.5181,1.5181,1.5181,1.5187,1.5289,1.5398,1.5581,1.5833,1.594,1.6056,1.6062,1.6133,1.6133,1.6133,1.6133,1.6133,1.6133,1.6133,0.0,0.0,0.0,0.0,0.0,0.0,0.0,0.0,0.0,0.0,0.0,0.0,0.0,0.0,0.0,0.0,0.0,0.0,0.0,0.0,0.0,0.0,0.0,0.0,0.0,0.0,0.0,0.0,0.0,0.0,0.0,0.0,0.0,0.0,0.0,0.0,0.0,0.0,0.0,0.0404,0.0808,0.1212,0.1751,0.2379,0.3052,0.3678,0.4126,0.4843,0.5786,0.6499,0.7304,0.8421,0.9268,1.0115,1.1227,1.1855,1.2299,1.2831,1.3325,1.3679,1.3901,1.4166,1.4299,1.4299,1.4299,1.4299,1.4299,1.4299,1.4299,1.4299,1.4299,1.4299,1.4299,1.4299,1.4299,1.4299,1.4299,1.4299,1.4299,1.4299,1.4299,1.4299,1.4299,1.4299,1.4299,1.4299,1.4299,1.4299,1.438,1.4448,1.4563,1.466,1.4828,1.4957,1.5079,1.5153,1.5167,1.5181,1.5181,1.5228,1.5262,1.5391,1.5547,1.5716,1.5928,1.603,1.6126,1.6133,1.6133,1.6133,1.6133,1.6133,1.6133,1.6133,1.6133,0.0,0.0,0.0,0.0,0.0,0.0,0.0,0.0,0.0,0.0,0.0,0.0,0.0,0.0,0.0,0.0,0.0,0.0,0.0,0.0,0.0,0.0,0.0,0.0,0.0,0.0,0.0,0.0,0.0,0.0,0.0,0.0,0.0,0.0,0.0,0.0,0.0,0.0404,0.0628,0.0853,0.1302,0.184,0.2379,0.3007,0.3678,0.4305,0.4801,0.5473,0.6723,0.7751,0.8193,0.9134,1.0159,1.1232,1.1855,1.2254,1.2837,1.328,1.3591,1.3901,1.4166,1.421,1.4299,1.4299,1.4299,1.4299,1.4299,1.4299,1.4299,1.4299,1.4299,1.4299,1.4299,1.4299,1.4299,1.4299,1.4299,1.4299,1.4299,1.4299,1.4299,1.4299,1.4299,1.4299,1.4299,1.4299,1.4299,1.4333,1.4468,1.4563,1.4645,1.4774,1.4875,1.5004,1.5126,1.5181,1.5181,1.5181,1.5181,1.5242,1.533,1.552,1.5703,1.5818,1.5996,1.6078,1.6133,1.6133,1.6133,1.6133,1.6133,1.6133,1.6133,1.6133,1.6133,0.0,0.0,0.0,0.0,0.0,0.0,0.0,0.0,0.0,0.0,0.0,0.0,0.0,0.0,0.0,0.0,0.0,0.0,0.0,0.0,0.0,0.0,0.0,0.0,0.0,0.0,0.0,0.0,0.0,0.0,0.0,0.0,0.0,0.0,0.0045,0.018,0.0404,0.0673,0.1077,0.1571,0.1975,0.2423,0.2872,0.3454,0.4261,0.4935,0.5652,0.6368,0.7572,0.8595,0.9179,1.0204,1.1094,1.181,1.2387,1.2831,1.3318,1.3723,1.3901,1.4122,1.4299,1.4299,1.4299,1.4299,1.4299,1.4299,1.4299,1.4299,1.4299,1.4299,1.4299,1.4299,1.4299,1.4299,1.4299,1.4299,1.4299,1.4299,1.4299,1.4299,1.4299,1.4299,1.4299,1.4299,1.4299,1.4299,1.4299,1.4367,1.4509,1.4672,1.476,1.4848,1.4964,1.5045,1.5147,1.5181,1.5181,1.5181,1.5187,1.5323,1.5459,1.5676,1.5915,1.599,1.6051,1.6092,1.6133,1.6133,1.6133,1.6133,1.6133,1.6133,1.6133,1.6133,1.6133,0.0,0.0,0.0,0.0,0.0,0.0,0.0,0.0,0.0,0.0,0.0,0.0,0.0,0.0,0.0,0.0,0.0,0.0,0.0,0.0,0.0,0.0,0.0,0.0,0.0,0.0,0.0,0.0,0.0,0.0,0.0,0.0,0.0,0.0045,0.0224,0.0449,0.0763,0.1212,0.1751,0.2424,0.2781,0.3049,0.3454,0.4126,0.4935,0.5741,0.6544,0.7393,0.8461,0.9402,1.0159,1.1049,1.181,1.2343,1.2831,1.3318,1.3628,1.3945,1.4166,1.4255,1.4299,1.4299,1.4299,1.4299,1.4299,1.4299,1.4299,1.4299,1.4299,1.4299,1.4299,1.4299,1.4299,1.4299,1.4299,1.4299,1.4299,1.4299,1.4299,1.4299,1.4299,1.4299,1.4299,1.4299,1.4299,1.4299,1.4353,1.4428,1.4536,1.4726,1.4862,1.4957,1.5065,1.514,1.5181,1.5181,1.5181,1.5208,1.5242,1.5411,1.5588,1.5805,1.6003,1.6071,1.6126,1.6133,1.6133,1.6133,1.6133,1.6133,1.6133,1.6133,1.6133,1.6133,1.6133,0.0,0.0,0.0,0.0,0.0,0.0,0.0,0.0,0.0,0.0,0.0,0.0,0.0,0.0,0.0,0.0,0.0,0.0,0.0,0.0,0.0,0.0,0.0,0.0,0.0,0.0,0.0,0.0,0.0,0.0,0.0,0.0,0.0,0.0,0.0539,0.0808,0.1122,0.1706,0.2378,0.3006,0.3409,0.3768,0.4305,0.4933,0.5562,0.6678,0.7706,0.8331,0.9268,1.0248,1.1188,1.1855,1.2387,1.2875,1.3318,1.3635,1.3901,1.4122,1.4299,1.4299,1.4299,1.4299,1.4299,1.4299,1.4299,1.4299,1.4299,1.4299,1.4299,1.4299,1.4299,1.4299,1.4299,1.4299,1.4299,1.4299,1.4299,1.4299,1.4299,1.4299,1.4299,1.4299,1.4299,1.4299,1.4299,1.4326,1.4407,1.4496,1.4638,1.4801,1.501,1.5059,1.5153,1.5167,1.5181,1.5181,1.5187,1.5221,1.5309,1.5499,1.5703,1.592,1.6098,1.6119,1.6133,1.6133,1.6133,1.6133,1.6133,1.6133,1.6133,1.6133,1.6133,1.6133,1.6133]},{"header":{"parameterUnit":"m.s-1","parameterCategory":1,"la1":31.0,"la2":29.5877,"lo1":-88.7671,"lo2":-86.6584,"dy":0.0162,"dx":0.0185,"nx":115,"ny":88,"refTime":"2023-09-28T06:00:00:Z","depth":0,"parameterNumber":3,"parameterNumberName":"V-component_of_WINDS"},"data":[0.0,0.0,0.0,0.0,0.0,0.0,0.0,0.0,0.0,0.0,0.0,0.0,0.0,0.0,0.0,0.0,0.0,0.0,0.0,0.0,0.0,0.0,0.0,0.0,0.0,0.0,0.0,0.0,0.0,0.0,0.0,0.0,0.0,0.0,0.0,0.0,0.0,0.0,0.0,0.0,0.0,0.0,0.0,0.0,0.0,0.0,0.0,0.0,0.0,0.0,0.0,0.0,0.0,0.0,0.0,0.0,0.0,0.0,0.0,0.0,0.0,0.0,0.0,0.0,0.0,0.0,0.0,0.0,0.0,0.0,0.0,0.0,0.0,0.0,0.0,0.0,0.0,0.0,0.0,0.0,0.0,0.0,0.0,0.0,0.0,0.0,0.0,0.0,0.0,0.0,0.0,0.0,0.0,0.0,0.0,0.0,0.0,0.0,0.0,0.0,0.0,0.0,0.0,0.0,0.0,0.0,0.0,0.0,0.0,0.0,0.0,0.0,0.0,0.0,0.0,0.0,0.0,0.0,0.0,0.0,0.0,0.0,0.0,0.0,0.0,0.0,0.0,0.0,0.0,0.0,0.0,0.0,0.0,0.0,0.0,0.0,0.0,0.0,0.0,0.0,0.0,0.0,0.0,0.0,0.0,0.0,0.0,0.0,0.0,0.0,0.0,0.0,0.0,0.0,0.0,0.0,0.0,0.0,0.0,0.0,0.0,0.0,0.0,0.0,0.0,0.0,0.0,0.0,0.0,0.0,0.0,0.0,0.0,0.0,0.0,0.0,0.0,0.0,0.0,0.0,0.0,0.0,0.0,0.0,0.0,0.0,0.0,0.0,0.0,0.0,0.0,0.0,0.0,0.0,0.0,0.0,0.0,0.0,0.0,0.0,0.0,0.0,0.0,0.0,0.0,0.0,0.0,0.0,0.0,0.0,0.0,0.0,0.0,0.0,0.0,0.0,0.0,0.0,0.0,0.0,0.0,0.0,0.0,0.0,0.0,0.0,0.0,0.0,0.0,0.0,0.0,0.0,0.0,0.0,0.0,0.0,0.0,0.0,0.0,0.0,0.0,0.0,0.0,0.0,0.0,0.0,0.0,0.0,0.0,0.0,0.0,0.0,0.0,0.0,0.0,0.0,0.0,0.0,0.0,0.0,0.0,0.0,0.0,0.0,0.0,0.0,0.0,0.0,0.0,0.0,0.0,0.0,0.0,0.0,0.0,0.0,0.0,0.0,0.0,0.0,0.0,0.0,0.0,0.0,0.0,0.0,0.0,0.0,0.0,0.0,0.0,0.0,0.0,0.0,0.0,0.0,0.0,0.0,0.0,0.0,0.0,0.0,0.0,0.0,0.0,0.0,0.0,0.0,0.0,0.0,0.0,0.0,0.0,0.0,0.0,0.0,0.0,0.0,0.0,0.0,0.0,0.0,0.0,0.0,0.0,0.0,0.0,0.0,0.0,0.0,0.0,0.0,0.0,0.0,0.0,0.0,0.0,0.0,0.0,0.0,0.0,0.0,0.0,0.0,0.0,0.0,0.0,0.0,0.0,0.0,0.0,0.0,0.0,0.0,0.0,0.0,0.0,0.0,0.0,0.0,0.0,0.0,0.0,0.0,0.0,0.0,0.0,0.0,0.0,0.0,0.0,0.0,0.0,0.0,0.0,0.0,0.0,0.0,0.0,0.0,0.0,0.0,0.0,0.0,0.0,0.0,0.0,0.0,0.0,0.0,0.0,0.0,0.0,0.0,0.0,0.0,0.0,0.0,0.0,0.0,0.0,0.0,0.0,0.0,0.0,0.0,0.0,0.0,0.0,0.0,0.0,0.0,0.0,0.0,0.0,0.0,0.0,0.0,0.0,0.0,0.0,0.0,0.0,0.0,0.0,0.0,0.0,0.0,0.0,0.0,0.0,0.0,0.0,0.0,0.0,0.0,0.0,0.0,0.0,0.0,0.0,0.0,0.0,0.0,0.0,0.0,0.0,0.0,0.0,0.0,0.0,0.0,0.0,0.0,0.0,0.0,0.0,0.0,0.0,0.0,0.0,0.0,0.0,0.0,0.0,0.0,0.0,0.0,0.0,0.0,0.0,0.0,0.0,0.0,0.0,0.0,0.0,0.0,0.0,0.0,0.0,0.0,0.0,0.0,0.0,0.0,0.0,0.0,0.0,0.0,0.0,0.0,0.0,0.0,0.0,0.0,0.0,0.0,0.0,0.0,0.0,0.0,0.0,0.0,0.0,0.0,0.0,0.0,0.0,0.0,0.0,0.0,0.0,0.0,0.0,0.0,0.0,0.0,0.0,0.0,0.0,0.0,0.0,0.0,0.0,0.0,0.0,0.0,0.0,0.0,0.0,0.0,0.0,0.0,0.0,0.0,0.0,0.0,0.0,0.0,0.0,0.0,0.0,0.0,0.0,0.0,0.0,0.0,0.0,0.0,0.0,0.0,0.0,0.0,0.0,0.0,0.0,0.0,0.0,0.0,0.0,0.0,0.0,0.0,0.0,0.0,0.0,0.0,0.0,0.0,0.0,0.0,0.0,0.0,0.0,0.0,0.0,0.0,0.0,0.0,0.0,0.0,0.0,0.0,0.0,0.0,0.0,0.0,0.0,0.0,0.0,0.0,0.0,0.0,0.0,0.0,0.0,0.0,0.0,0.0,0.0,0.0,0.0,0.0,0.0,0.0,0.0,0.0,0.0,0.0,0.0,0.0,0.0,0.0,0.0,0.0,0.0,0.0,0.0,0.0,0.0,0.0,0.0,0.0,0.0,0.0,0.0,0.0,0.0,0.0,0.0,0.0,0.0,0.0,0.0,0.0,0.0,0.0,0.0,0.0,0.0,0.0,0.0,0.0,0.0,0.0,0.0,0.0,0.0,0.0,0.0,0.0,0.0,0.0,0.0,0.0,0.0,0.0,0.0,0.0,0.0,0.0,0.0,0.0,0.0,0.0,0.0,0.0,0.0,0.0,0.0,0.0,0.0,0.0,0.0,0.0,0.0,0.0,0.0,0.0,0.0,0.0,0.0,0.0,0.0,0.0,0.0,0.0,0.0,0.0,0.0,0.0,0.0,0.0,0.0,0.0,0.0,0.0,0.0,0.0,0.0,0.0,0.0,0.0,0.0,0.0,0.0,0.0,0.0,0.0,0.0,0.0,0.0,0.0,0.0,0.0,0.0,0.0,0.0,0.0,0.0,0.0,0.0,0.0,0.0,0.0,0.0,0.0,0.0,0.0,0.0,0.0,0.0,0.0,0.0,0.0,0.0,0.0,0.0,0.0,0.0,0.0,0.0,0.0,0.0,0.0,0.0,0.0,0.0,0.0,0.0,0.0,0.0,0.0,0.0,0.0,0.0,0.0,0.0,0.0,0.0,0.0,0.0,0.0,0.0,0.0,0.0,0.0,0.0,0.0,0.0,0.0,0.0,0.0,0.0,0.0,0.0,0.0,0.0,0.0,0.0,0.0,0.0,0.0,0.0,0.0,0.0,0.0,0.0,0.0,0.0,0.0,0.0,0.0,0.0,0.0,0.0,0.0,0.0,0.0,0.0,0.0,0.0,0.0,0.0,0.0,0.0,0.0,0.0,0.0,0.0,0.0,0.0,0.0,0.0,0.0,0.0,0.0,0.0,0.0,0.0,0.0,0.0,0.0,0.0,0.0,0.0,0.0,0.0,0.0,0.0,0.0,0.0,0.0,0.0,0.0,0.0,0.0,0.0,0.0,0.0,0.0,0.0,0.0,0.0,0.0,0.0,0.0,0.0,0.0,0.0,0.0,0.0,0.0,0.0,0.0,0.0,0.0,0.0,0.0,0.0,0.0,0.0,0.0,0.0,0.0,0.0,0.0,0.0,0.0,0.0,0.0,0.0,0.0,0.0,0.0,0.0,0.0,0.0,0.0,0.0,0.0,0.0,0.0,0.0,0.0,0.0,0.0,0.0,0.0,0.0,0.0,0.0,0.0,0.0,0.0,0.0,0.0,0.0,0.0,0.0,0.0,0.0,0.0,0.0,0.0,0.0,0.0,0.0,0.0,0.0,0.0,0.0,0.0,0.0,0.0,0.0,0.0,0.0,0.0,0.0,0.0,0.0,0.0,0.0,0.0,0.0,0.0,0.0,0.0,0.0,0.0,0.0,0.0,0.0,0.0,0.0,0.0,0.0,0.0,0.0,0.0,0.0,0.0,0.0,0.0,0.0,0.0,0.0,0.0,0.0,0.0,0.0,0.0,0.0,0.0,0.0,0.0,0.0,0.0,0.0,0.0,0.0,0.0,0.0,0.0,1.7773,0.0,0.0,0.0,0.0,0.0,0.0,0.0,0.0,0.0,0.0,0.0,0.0,0.0,0.0,0.0,0.0,0.0,0.0,0.0,0.0,0.0,0.0,0.0,0.0,0.0,0.0,0.0,0.0,0.0,0.0,0.0,0.0,0.0,0.0,0.0,0.0,0.0,0.0,0.0,0.0,0.0,0.0,0.0,0.0,0.0,0.0,0.0,0.0,0.0,0.0,0.0,0.0,0.0,0.0,0.0,0.0,0.0,0.0,0.0,0.0,0.0,0.0,0.0,0.0,0.0,0.0,0.0,0.0,0.0,0.0,0.0,0.0,0.0,0.0,0.0,0.0,0.0,0.0,0.0,0.0,0.0,0.0,0.0,0.0,0.0,0.0,0.0,0.0,0.0,0.0,0.0,0.0,0.0,0.0,0.0,0.0,0.0,0.0,0.0,0.0,0.0,0.0,0.0,0.0,0.0,0.0,0.0,0.0,0.0,0.0,1.6991,1.7381,1.7382,1.7811,1.867,0.0,0.0,0.0,0.0,0.0,0.0,0.0,0.0,0.0,0.0,0.0,0.0,0.0,0.0,0.0,0.0,0.0,0.0,0.0,0.0,0.0,0.0,0.0,0.0,0.0,0.0,0.0,0.0,0.0,0.0,0.0,0.0,0.0,0.0,0.0,0.0,0.0,0.0,0.0,0.0,0.0,0.0,0.0,0.0,0.0,0.0,0.0,0.0,0.0,0.0,0.0,0.0,0.0,0.0,0.0,0.0,0.0,0.0,0.0,0.0,0.0,0.0,0.0,0.0,0.0,0.0,0.0,0.0,0.0,0.0,0.0,0.0,0.0,0.0,0.0,0.0,0.0,0.0,0.0,0.0,0.0,0.0,0.0,0.0,0.0,0.0,0.0,0.0,0.0,0.0,0.0,0.0,0.0,0.0,0.0,0.0,0.0,0.0,0.0,0.0,0.0,0.0,0.0,0.0,0.0,0.0,0.0,0.0,0.0,0.0,0.0,0.0,1.8316,1.8707,1.9566,0.0,0.0,0.0,0.0,0.0,0.0,0.0,0.0,0.0,0.0,0.0,0.0,0.0,0.0,0.0,0.0,0.0,0.0,0.0,0.0,0.0,0.0,0.0,0.0,0.0,0.0,0.0,0.0,0.0,0.0,0.0,0.0,0.0,0.0,0.0,0.0,0.0,0.0,0.0,0.0,0.0,0.0,0.0,0.0,0.0,0.0,0.0,0.0,0.0,0.0,0.0,0.0,0.0,0.0,0.0,0.0,0.0,0.0,0.0,0.0,0.0,0.0,0.0,0.0,0.0,0.0,0.0,0.0,0.0,0.0,0.0,0.0,0.0,0.0,0.0,0.0,0.0,0.0,0.0,0.0,0.0,0.0,0.0,0.0,0.0,0.0,0.0,0.0,0.0,0.0,0.0,0.0,0.0,0.0,0.0,0.0,0.0,0.0,0.0,0.0,0.0,0.0,0.0,0.0,0.0,0.0,0.0,0.0,0.0,0.0,1.8355,1.9176,1.9176,0.0,2.0426,0.0,0.0,0.0,0.0,0.0,0.0,0.0,0.0,0.0,0.0,0.0,0.0,0.0,0.0,0.0,0.0,0.0,0.0,0.0,0.0,0.0,0.0,0.0,0.0,0.0,0.0,0.0,0.0,0.0,0.0,0.0,0.0,0.0,0.0,0.0,0.0,0.0,0.0,0.0,0.0,0.0,0.0,0.0,0.0,0.0,0.0,0.0,0.0,0.0,0.0,0.0,0.0,0.0,0.0,0.0,0.0,0.0,0.0,0.0,0.0,0.0,0.0,0.0,0.0,0.0,0.0,0.0,0.0,0.0,0.0,0.0,0.0,0.0,0.0,0.0,0.0,0.0,0.0,0.0,0.0,0.0,0.0,0.0,0.0,0.0,0.0,0.0,0.0,0.0,0.0,0.0,0.0,0.0,0.0,0.0,0.0,0.0,0.0,0.0,0.0,0.0,0.0,0.0,0.0,0.0,0.0,0.0,0.0,0.0,0.0,1.9718,2.007,2.007,2.0227,0.0,0.0,0.0,0.0,0.0,0.0,0.0,0.0,0.0,0.0,0.0,0.0,0.0,0.0,0.0,0.0,0.0,0.0,0.0,0.0,0.0,0.0,0.0,0.0,0.0,0.0,0.0,0.0,0.0,0.0,0.0,0.0,0.0,0.0,0.0,0.0,0.0,0.0,0.0,0.0,0.0,0.0,0.0,0.0,0.0,0.0,0.0,0.0,0.0,0.0,0.0,0.0,0.0,0.0,0.0,0.0,0.0,0.0,0.0,0.0,0.0,0.0,0.0,0.0,0.0,0.0,0.0,0.0,0.0,0.0,0.0,0.0,0.0,0.0,0.0,0.0,0.0,0.0,0.0,0.0,0.0,0.0,0.0,0.0,0.0,0.0,0.0,0.0,0.0,0.0,0.0,0.0,0.0,0.0,0.0,0.0,0.0,0.0,0.0,0.0,0.0,0.0,0.0,0.0,0.0,0.0,0.0,0.0,0.0,0.0,2.0261,2.0613,2.0613,2.0613,2.0613,2.0613,0.0,0.0,0.0,0.0,0.0,0.0,0.0,0.0,0.0,0.0,0.0,0.0,0.0,0.0,0.0,0.0,0.0,0.0,0.0,0.0,0.0,0.0,0.0,0.0,0.0,0.0,0.0,0.0,0.0,0.0,0.0,0.0,0.0,0.0,0.0,0.0,0.0,0.0,0.0,0.0,0.0,0.0,0.0,0.0,0.0,0.0,0.0,0.0,0.0,0.0,0.0,0.0,0.0,0.0,0.0,0.0,0.0,0.0,0.0,0.0,0.0,0.0,0.0,0.0,0.0,0.0,0.0,0.0,0.0,0.0,0.0,0.0,0.0,0.0,0.0,0.0,0.0,0.0,0.0,0.0,0.0,0.0,0.0,0.0,0.0,0.0,0.0,0.0,0.0,0.0,0.0,0.0,0.0,0.0,0.0,0.0,0.0,0.0,0.0,0.0,0.0,0.0,0.0,0.0,0.0,0.0,0.0,0.0,2.0496,2.0574,2.0613,2.0613,2.0613,2.0613,0.0,0.0,0.0,0.0,0.0,0.0,0.0,0.0,0.0,0.0,0.0,0.0,0.0,0.0,0.0,0.0,0.0,0.0,0.0,0.0,0.0,0.0,0.0,0.0,0.0,0.0,0.0,0.0,0.0,0.0,0.0,0.0,0.0,0.0,0.0,0.0,0.0,0.0,0.0,0.0,0.0,0.0,0.0,0.0,0.0,0.0,0.0,0.0,0.0,0.0,0.0,0.0,0.0,0.0,0.0,0.0,0.0,0.0,0.0,0.0,0.0,0.0,0.0,0.0,0.0,0.0,0.0,0.0,0.0,0.0,0.0,0.0,0.0,0.0,0.0,0.0,0.0,0.0,0.0,0.0,0.0,0.0,0.0,0.0,0.0,0.0,0.0,0.0,0.0,0.0,0.0,0.0,0.0,0.0,0.0,0.0,0.0,0.0,0.0,0.0,0.0,0.0,0.0,0.0,0.0,0.0,0.0,0.0,0.0,2.0574,2.0613,2.0613,2.0613,2.0613,2.0612,0.0,0.0,0.0,0.0,0.0,0.0,0.0,0.0,0.0,0.0,0.0,0.0,0.0,0.0,0.0,0.0,0.0,0.0,0.0,0.0,0.0,0.0,0.0,0.0,0.0,0.0,0.0,0.0,0.0,0.0,0.0,0.0,0.0,0.0,0.0,0.0,0.0,0.0,0.0,0.0,0.0,0.0,0.0,0.0,0.0,0.0,0.0,0.0,0.0,0.0,0.0,0.0,0.0,0.0,0.0,0.0,0.0,0.0,0.0,0.0,0.0,0.0,0.0,0.0,0.0,0.0,0.0,0.0,0.0,0.0,0.0,0.0,0.0,0.0,0.0,0.0,0.0,0.0,0.0,0.0,0.0,0.0,0.0,0.0,0.0,0.0,0.0,0.0,0.0,0.0,0.0,0.0,0.0,0.0,0.0,0.0,0.0,0.0,0.0,0.0,0.0,0.0,0.0,0.0,0.0,0.0,0.0,0.0,0.0,2.1002,0.0,2.1433,2.1394,2.1394,2.1274,0.0,0.0,0.0,0.0,0.0,0.0,0.0,0.0,0.0,0.0,0.0,0.0,0.0,0.0,0.0,0.0,0.0,0.0,0.0,0.0,0.0,0.0,0.0,0.0,0.0,0.0,0.0,0.0,0.0,0.0,0.0,0.0,0.0,0.0,0.0,0.0,0.0,0.0,0.0,0.0,0.0,0.0,0.0,0.0,0.0,0.0,0.0,0.0,0.0,0.0,0.0,0.0,0.0,0.0,0.0,0.0,0.0,0.0,0.0,0.0,0.0,0.0,0.0,0.0,0.0,0.0,0.0,0.0,0.0,0.0,0.0,0.0,0.0,0.0,0.0,0.0,0.0,0.0,0.0,0.0,0.0,0.0,0.0,0.0,0.0,0.0,0.0,0.0,0.0,0.0,0.0,0.0,0.0,0.0,0.0,0.0,0.0,0.0,0.0,0.0,0.0,0.0,0.0,0.0,0.0,0.0,0.0,0.0,2.1115,2.1938,2.2681,2.3072,2.3111,2.3072,2.268,0.0,0.0,0.0,0.0,0.0,0.0,0.0,0.0,0.0,0.0,0.0,0.0,0.0,0.0,0.0,0.0,0.0,0.0,0.0,0.0,0.0,0.0,0.0,0.0,0.0,0.0,0.0,0.0,0.0,0.0,0.0,0.0,0.0,0.0,0.0,0.0,0.0,0.0,0.0,0.0,0.0,0.0,0.0,0.0,0.0,0.0,0.0,0.0,0.0,0.0,0.0,0.0,0.0,0.0,0.0,0.0,0.0,0.0,0.0,0.0,0.0,0.0,0.0,0.0,0.0,0.0,0.0,0.0,0.0,0.0,0.0,0.0,0.0,0.0,0.0,0.0,0.0,0.0,0.0,0.0,0.0,0.0,0.0,0.0,0.0,0.0,0.0,0.0,0.0,0.0,0.0,0.0,0.0,0.0,0.0,0.0,0.0,0.0,0.0,0.0,0.0,0.0,0.0,0.0,0.0,0.0,0.0,0.0,0.0,2.3617,2.3851,2.4008,2.4008,2.4007,2.3575,0.0,0.0,0.0,0.0,0.0,0.0,0.0,0.0,0.0,0.0,0.0,0.0,0.0,0.0,0.0,0.0,0.0,0.0,0.0,0.0,0.0,0.0,0.0,0.0,0.0,0.0,0.0,0.0,0.0,0.0,0.0,0.0,0.0,0.0,0.0,0.0,0.0,0.0,0.0,0.0,0.0,0.0,0.0,0.0,0.0,0.0,0.0,0.0,0.0,0.0,0.0,0.0,0.0,0.0,0.0,0.0,0.0,0.0,0.0,0.0,0.0,0.0,0.0,0.0,0.0,0.0,0.0,0.0,0.0,0.0,0.0,0.0,0.0,0.0,0.0,0.0,0.0,0.0,0.0,0.0,0.0,0.0,0.0,0.0,0.0,0.0,0.0,0.0,0.0,0.0,0.0,0.0,0.0,0.0,0.0,0.0,0.0,0.0,0.0,0.0,0.0,0.0,0.0,0.0,0.0,0.0,0.0,0.0,0.0,2.6311,2.6038,2.5842,2.5881,2.5842,2.5292,2.411,0.0,0.0,0.0,0.0,0.0,0.0,0.0,0.0,0.0,0.0,0.0,0.0,0.0,0.0,0.0,0.0,0.0,0.0,0.0,0.0,0.0,0.0,0.0,0.0,0.0,0.0,0.0,0.0,0.0,0.0,0.0,0.0,0.0,0.0,0.0,0.0,0.0,0.0,0.0,0.0,0.0,0.0,0.0,0.0,0.0,0.0,0.0,0.0,0.0,0.0,0.0,0.0,0.0,0.0,0.0,0.0,0.0,0.0,0.0,0.0,0.0,0.0,0.0,0.0,0.0,0.0,0.0,0.0,0.0,0.0,0.0,0.0,0.0,0.0,0.0,0.0,0.0,0.0,0.0,0.0,0.0,0.0,0.0,0.0,0.0,0.0,0.0,0.0,0.0,0.0,0.0,0.0,0.0,0.0,0.0,0.0,0.0,0.0,0.0,0.0,0.0,0.0,0.0,0.0,0.0,0.0,0.0,0.0,2.9631,2.8966,2.8497,2.8341,2.8341,2.7556,0.0,0.0,0.0,0.0,0.0,0.0,0.0,0.0,0.0,0.0,0.0,0.0,0.0,0.0,0.0,0.0,0.0,0.0,0.0,0.0,0.0,0.0,0.0,0.0,0.0,0.0,0.0,0.0,0.0,0.0,0.0,0.0,0.0,0.0,0.0,0.0,0.0,0.0,0.0,0.0,0.0,0.0,0.0,0.0,0.0,0.0,0.0,0.0,0.0,0.0,0.0,0.0,0.0,0.0,0.0,0.0,0.0,0.0,0.0,0.0,0.0,0.0,0.0,0.0,0.0,0.0,0.0,0.0,0.0,0.0,0.0,0.0,0.0,0.0,0.0,0.0,0.0,0.0,0.0,0.0,0.0,0.0,0.0,0.0,0.0,0.0,0.0,0.0,0.0,0.0,0.0,0.0,0.0,0.0,0.0,0.0,0.0,0.0,0.0,0.0,0.0,0.0,0.0,0.0,0.0,0.0,0.0,0.0,0.0,3.0479,3.1527,3.118,2.9357,2.924,2.8455,0.0,0.0,0.0,0.0,0.0,0.0,0.0,0.0,0.0,0.0,0.0,0.0,0.0,0.0,0.0,0.0,0.0,0.0,0.0,0.0,0.0,0.0,0.0,0.0,0.0,0.0,0.0,0.0,0.0,0.0,0.0,0.0,0.0,0.0,0.0,0.0,0.0,0.0,0.0,0.0,0.0,0.0,0.0,0.0,0.0,0.0,0.0,0.0,0.0,0.0,0.0,0.0,0.0,0.0,0.0,0.0,0.0,0.0,0.0,0.0,0.0,0.0,0.0,0.0,0.0,0.0,0.0,0.0,0.0,0.0,0.0,0.0,0.0,0.0,0.0,0.0,0.0,0.0,0.0,0.0,0.0,0.0,0.0,0.0,0.0,0.0,0.0,0.0,0.0,0.0,0.0,0.0,0.0,0.0,0.0,0.0,0.0,0.0,0.0,0.0,0.0,0.0,0.0,0.0,0.0,0.0,0.0,0.0,3.1155,3.1875,3.2884,3.2691,3.1216,3.1219,3.0395,0.0,0.0,0.0,0.0,0.0,0.0,0.0,0.0,0.0,0.0,0.0,0.0,0.0,0.0,0.0,0.0,0.0,0.0,0.0,0.0,0.0,0.0,0.0,0.0,0.0,0.0,0.0,0.0,0.0,0.0,0.0,0.0,0.0,0.0,0.0,0.0,0.0,0.0,0.0,0.0,0.0,0.0,0.0,0.0,0.0,0.0,0.0,0.0,0.0,0.0,0.0,0.0,0.0,0.0,0.0,0.0,0.0,0.0,0.0,0.0,0.0,0.0,0.0,0.0,0.0,0.0,0.0,0.0,0.0,0.0,0.0,0.0,0.0,0.0,0.0,0.0,0.0,0.0,0.0,0.0,0.0,0.0,0.0,0.0,0.0,0.0,0.0,0.0,0.0,0.0,0.0,0.0,0.0,0.0,0.0,0.0,0.0,0.0,0.0,0.0,0.0,0.0,0.0,0.0,0.0,0.0,0.0,0.0,3.1957,3.35,3.3617,3.365,3.364,3.3497,3.2597,0.0,0.0,0.0,0.0,0.0,0.0,0.0,0.0,0.0,0.0,0.0,0.0,0.0,0.0,0.0,0.0,0.0,0.0,0.0,0.0,0.0,0.0,0.0,0.0,0.0,0.0,0.0,0.0,0.0,0.0,0.0,0.0,0.0,0.0,0.0,0.0,0.0,0.0,0.0,0.0,0.0,0.0,0.0,0.0,0.0,0.0,0.0,0.0,0.0,0.0,0.0,0.0,0.0,0.0,0.0,0.0,0.0,0.0,0.0,0.0,0.0,0.0,0.0,0.0,0.0,0.0,0.0,0.0,0.0,0.0,0.0,0.0,0.0,0.0,0.0,0.0,0.0,0.0,0.0,0.0,0.0,0.0,0.0,0.0,0.0,0.0,0.0,0.0,0.0,0.0,0.0,0.0,0.0,0.0,0.0,0.0,0.0,0.0,0.0,0.0,0.0,0.0,0.0,0.0,0.0,0.0,0.0,0.0,3.3933,3.4315,3.5009,3.5355,3.535,3.4099,3.258,0.0,0.0,0.0,0.0,0.0,0.0,0.0,0.0,0.0,0.0,0.0,0.0,0.0,0.0,0.0,0.0,0.0,0.0,0.0,0.0,0.0,0.0,0.0,0.0,0.0,0.0,0.0,0.0,0.0,0.0,0.0,0.0,0.0,0.0,0.0,0.0,0.0,0.0,0.0,0.0,0.0,0.0,0.0,0.0,0.0,0.0,0.0,0.0,3.1256,0.0,0.0,0.0,0.0,0.0,0.0,0.0,0.0,0.0,0.0,0.0,0.0,0.0,0.0,0.0,0.0,0.0,0.0,0.0,0.0,0.0,0.0,0.0,0.0,0.0,0.0,0.0,0.0,0.0,0.0,0.0,0.0,0.0,0.0,0.0,0.0,0.0,0.0,0.0,0.0,0.0,0.0,0.0,0.0,0.0,0.0,0.0,0.0,0.0,0.0,0.0,0.0,0.0,0.0,0.0,0.0,0.0,0.0,0.0,3.5339,3.5795,3.6616,3.7076,3.702,3.5797,3.4322,0.0,0.0,0.0,0.0,0.0,0.0,0.0,0.0,0.0,0.0,0.0,0.0,0.0,0.0,0.0,0.0,0.0,0.0,0.0,0.0,0.0,0.0,0.0,0.0,0.0,0.0,0.0,0.0,0.0,0.0,0.0,0.0,0.0,0.0,0.0,0.0,0.0,0.0,0.0,0.0,0.0,0.0,0.0,0.0,0.0,0.0,0.0,0.0,0.0,0.0,0.0,0.0,0.0,0.0,0.0,0.0,0.0,0.0,0.0,0.0,0.0,0.0,0.0,0.0,0.0,0.0,0.0,0.0,0.0,0.0,0.0,0.0,0.0,0.0,0.0,0.0,0.0,0.0,0.0,0.0,0.0,0.0,0.0,0.0,0.0,0.0,0.0,0.0,0.0,0.0,0.0,0.0,0.0,0.0,0.0,0.0,0.0,0.0,0.0,0.0,0.0,0.0,0.0,0.0,0.0,0.0,0.0,3.4898,3.6507,3.727,3.8027,3.8406,3.8369,3.7663,3.6535,3.4904,0.0,0.0,0.0,0.0,0.0,0.0,0.0,0.0,0.0,0.0,0.0,0.0,0.0,0.0,0.0,0.0,0.0,0.0,0.0,0.0,0.0,0.0,0.0,0.0,0.0,0.0,0.0,0.0,0.0,0.0,0.0,0.0,0.0,0.0,0.0,0.0,0.0,0.0,2.95,3.1708,0.0,0.0,0.0,0.0,0.0,0.0,0.0,0.0,3.642,0.0,0.0,0.0,0.0,0.0,0.0,0.0,0.0,0.0,0.0,0.0,0.0,0.0,0.0,0.0,0.0,0.0,0.0,0.0,0.0,0.0,0.0,0.0,0.0,0.0,0.0,0.0,0.0,0.0,0.0,0.0,0.0,0.0,0.0,0.0,0.0,0.0,0.0,0.0,0.0,0.0,0.0,0.0,0.0,0.0,0.0,0.0,0.0,0.0,0.0,0.0,0.0,0.0,0.0,0.0,0.0,3.5059,3.688,3.7905,3.8091,3.8212,3.8329,3.8316,3.8117,3.7547,3.6502,0.0,0.0,0.0,0.0,0.0,0.0,0.0,0.0,0.0,0.0,0.0,0.0,0.0,0.0,0.0,0.0,0.0,0.0,0.0,0.0,0.0,0.0,0.0,0.0,0.0,0.0,0.0,0.0,0.0,0.0,0.0,0.0,0.0,0.0,0.0,0.0,0.0,0.0,0.0,3.4541,3.5679,0.0,0.0,0.0,0.0,0.0,0.0,0.0,0.0,3.6641,0.0,0.0,0.0,0.0,0.0,0.0,0.0,0.0,0.0,0.0,0.0,0.0,0.0,0.0,0.0,0.0,0.0,0.0,0.0,0.0,0.0,0.0,0.0,0.0,0.0,0.0,0.0,0.0,0.0,0.0,0.0,0.0,0.0,0.0,0.0,0.0,0.0,0.0,0.0,0.0,0.0,0.0,0.0,0.0,0.0,0.0,0.0,0.0,0.0,0.0,0.0,0.0,0.0,0.0,0.0,3.5665,3.7782,3.8889,3.8944,3.9384,3.9572,3.9542,3.9126,3.8468,0.0,0.0,0.0,0.0,0.0,0.0,0.0,0.0,0.0,0.0,0.0,0.0,0.0,0.0,0.0,0.0,0.0,0.0,0.0,0.0,0.0,0.0,0.0,0.0,0.0,0.0,0.0,0.0,0.0,0.0,0.0,0.0,0.0,0.0,0.0,0.0,0.0,0.0,0.0,0.0,3.5605,3.7081,3.7477,0.0,0.0,0.0,0.0,0.0,0.0,3.8762,3.8329,0.0,0.0,0.0,0.0,0.0,0.0,0.0,0.0,0.0,0.0,0.0,0.0,0.0,0.0,0.0,0.0,0.0,0.0,0.0,0.0,0.0,0.0,0.0,0.0,0.0,0.0,0.0,0.0,0.0,0.0,0.0,0.0,0.0,0.0,0.0,0.0,0.0,0.0,0.0,0.0,0.0,0.0,0.0,0.0,0.0,0.0,0.0,0.0,0.0,0.0,0.0,0.0,0.0,0.0,0.0,3.6357,3.8617,3.9765,3.9768,4.0449,4.0784,4.0687,4.0062,3.921,0.0,0.0,0.0,0.0,0.0,0.0,0.0,0.0,0.0,0.0,0.0,0.0,0.0,0.0,0.0,0.0,0.0,0.0,0.0,0.0,0.0,0.0,0.0,0.0,0.0,0.0,0.0,0.0,0.0,0.0,0.0,0.0,0.0,0.0,0.0,0.0,0.0,0.0,0.0,0.0,0.0,3.8264,3.8866,3.9638,0.0,0.0,0.0,0.0,4.112,4.0585,0.0,0.0,0.0,0.0,0.0,0.0,0.0,0.0,0.0,0.0,0.0,0.0,0.0,0.0,0.0,0.0,0.0,0.0,0.0,0.0,0.0,0.0,0.0,0.0,0.0,0.0,0.0,0.0,0.0,0.0,0.0,0.0,0.0,0.0,0.0,0.0,0.0,0.0,0.0,0.0,0.0,0.0,0.0,0.0,0.0,0.0,0.0,0.0,0.0,0.0,0.0,0.0,0.0,0.0,0.0,0.0,3.8907,4.0066,4.0664,4.0664,4.0745,4.0768,4.0726,4.0542,3.9739,0.0,0.0,0.0,0.0,0.0,0.0,0.0,0.0,0.0,0.0,0.0,0.0,0.0,0.0,0.0,0.0,0.0,0.0,0.0,0.0,0.0,0.0,0.0,0.0,0.0,0.0,0.0,0.0,0.0,0.0,0.0,0.0,0.0,0.0,0.0,0.0,0.0,0.0,0.0,0.0,0.0,3.9807,3.9857,4.0533,4.1114,0.0,0.0,4.1128,4.1172,4.1114,0.0,0.0,0.0,0.0,0.0,0.0,0.0,0.0,0.0,0.0,0.0,0.0,0.0,0.0,0.0,0.0,0.0,0.0,0.0,0.0,0.0,0.0,0.0,0.0,0.0,0.0,0.0,0.0,0.0,0.0,0.0,0.0,0.0,0.0,0.0,0.0,0.0,0.0,0.0,0.0,0.0,0.0,0.0,0.0,0.0,0.0,0.0,0.0,0.0,0.0,0.0,0.0,0.0,0.0,0.0,3.7324,3.9341,4.0784,4.1467,4.1509,4.197,4.2179,4.2121,4.1605,4.0759,0.0,0.0,0.0,0.0,0.0,0.0,0.0,0.0,0.0,0.0,0.0,0.0,0.0,0.0,0.0,0.0,0.0,0.0,0.0,0.0,0.0,0.0,0.0,0.0,0.0,0.0,0.0,0.0,0.0,0.0,0.0,0.0,0.0,0.0,0.0,0.0,0.0,0.0,0.0,0.0,0.0,0.0,4.1343,4.1722,0.0,0.0,0.0,4.2692,4.3175,0.0,0.0,0.0,0.0,0.0,0.0,0.0,0.0,0.0,0.0,0.0,0.0,0.0,0.0,0.0,0.0,0.0,0.0,0.0,0.0,0.0,0.0,0.0,0.0,0.0,0.0,0.0,0.0,0.0,0.0,0.0,0.0,0.0,0.0,0.0,0.0,0.0,0.0,0.0,0.0,0.0,0.0,0.0,0.0,0.0,0.0,0.0,0.0,0.0,0.0,0.0,0.0,0.0,0.0,0.0,0.0,0.0,4.0019,4.1319,4.2086,4.2357,4.2976,4.3294,4.3198,4.2566,0.0,0.0,0.0,0.0,0.0,0.0,0.0,0.0,0.0,0.0,0.0,0.0,0.0,0.0,0.0,0.0,0.0,0.0,0.0,0.0,0.0,0.0,0.0,0.0,0.0,0.0,0.0,3.1211,0.0,0.0,0.0,0.0,0.0,0.0,0.0,0.0,0.0,0.0,0.0,0.0,0.0,0.0,4.1431,4.2793,4.3085,4.3664,0.0,0.0,4.4518,4.5171,4.4321,4.3519,0.0,0.0,0.0,0.0,0.0,0.0,0.0,0.0,0.0,0.0,0.0,0.0,0.0,0.0,0.0,0.0,0.0,0.0,0.0,0.0,0.0,0.0,0.0,0.0,0.0,0.0,0.0,0.0,0.0,0.0,0.0,0.0,0.0,0.0,0.0,0.0,0.0,0.0,0.0,0.0,0.0,0.0,0.0,0.0,0.0,0.0,0.0,0.0,0.0,0.0,0.0,0.0,0.0,0.0,3.8434,4.1598,4.1899,4.2434,4.3208,4.3282,4.3269,4.3199,4.3163,4.2313,0.0,0.0,0.0,0.0,0.0,0.0,0.0,0.0,0.0,0.0,0.0,0.0,0.0,0.0,0.0,0.0,0.0,0.0,0.0,0.0,0.0,0.0,0.0,0.0,0.0,0.0,0.0,0.0,0.0,0.0,0.0,0.0,0.0,0.0,0.0,0.0,0.0,0.0,0.0,0.0,0.0,4.324,4.399,4.4735,4.5501,0.0,4.6376,4.6359,4.647,4.6374,4.6084,4.5346,0.0,0.0,0.0,0.0,0.0,0.0,0.0,0.0,0.0,0.0,0.0,0.0,0.0,0.0,0.0,0.0,0.0,0.0,0.0,0.0,0.0,0.0,0.0,0.0,0.0,0.0,0.0,0.0,0.0,0.0,0.0,0.0,0.0,0.0,0.0,0.0,0.0,0.0,0.0,0.0,0.0,0.0,0.0,0.0,0.0,0.0,0.0,0.0,0.0,0.0,0.0,0.0,0.0,3.9554,4.1931,4.306,4.3789,4.416,4.4647,4.4853,4.4819,4.4281,4.3689,0.0,0.0,0.0,0.0,0.0,0.0,0.0,0.0,0.0,0.0,0.0,0.0,0.0,0.0,0.0,0.0,0.0,0.0,0.0,0.0,0.0,0.0,0.0,0.0,0.0,0.0,0.0,0.0,3.8683,3.9045,3.937,0.0,0.0,0.0,0.0,0.0,0.0,0.0,0.0,0.0,0.0,4.437,4.5041,4.5761,0.0,0.0,4.7054,4.6844,4.7343,4.7093,4.6727,4.6345,4.5701,0.0,0.0,0.0,0.0,0.0,0.0,0.0,0.0,0.0,0.0,0.0,0.0,0.0,0.0,0.0,0.0,0.0,0.0,0.0,0.0,0.0,0.0,0.0,0.0,0.0,0.0,0.0,0.0,0.0,0.0,0.0,0.0,0.0,0.0,0.0,0.0,0.0,0.0,0.0,0.0,0.0,0.0,0.0,0.0,0.0,0.0,0.0,0.0,0.0,0.0,0.0,0.0,4.0807,4.2763,4.3992,4.4795,4.5052,4.5883,4.6132,4.5838,4.5483,4.5004,0.0,0.0,0.0,0.0,0.0,0.0,0.0,0.0,0.0,0.0,0.0,0.0,0.0,0.0,0.0,0.0,0.0,0.0,0.0,0.0,0.0,0.0,0.0,0.0,0.0,0.0,0.0,0.0,4.102,4.1142,4.0925,0.0,0.0,0.0,0.0,0.0,0.0,0.0,0.0,0.0,0.0,4.581,4.6495,4.7043,4.7699,4.858,4.8377,4.831,4.8814,4.8739,4.8587,4.8543,0.0,0.0,0.0,0.0,0.0,0.0,0.0,0.0,0.0,0.0,0.0,0.0,0.0,0.0,0.0,0.0,0.0,0.0,0.0,0.0,0.0,0.0,0.0,0.0,0.0,0.0,0.0,3.0502,0.0,0.0,2.9338,0.0,0.0,0.0,0.0,0.0,0.0,0.0,0.0,0.0,0.0,0.0,0.0,0.0,0.0,0.0,0.0,0.0,0.0,0.0,0.0,0.0,0.0,4.2029,4.4508,4.4691,4.5133,4.5914,4.6722,4.68,4.5983,4.6654,4.6268,4.4681,0.0,0.0,0.0,0.0,0.0,0.0,0.0,0.0,0.0,0.0,0.0,0.0,0.0,0.0,0.0,0.0,0.0,0.0,0.0,0.0,0.0,0.0,0.0,0.0,0.0,0.0,4.257,4.3453,4.355,0.0,0.0,0.0,0.0,0.0,0.0,0.0,0.0,0.0,4.4858,4.639,4.7763,4.8511,4.8663,4.9055,4.9936,5.0658,5.1105,5.1098,5.174,5.2312,0.0,0.0,0.0,0.0,0.0,0.0,0.0,0.0,0.0,0.0,0.0,0.0,0.0,0.0,0.0,0.0,0.0,0.0,0.0,0.0,0.0,0.0,0.0,0.0,0.0,0.0,0.0,3.4065,3.4059,0.0,0.0,0.0,0.0,0.0,0.0,0.0,0.0,0.0,0.0,0.0,3.9322,3.9339,0.0,0.0,0.0,0.0,0.0,0.0,0.0,0.0,0.0,0.0,0.0,0.0,4.3568,4.553,4.6193,4.6906,4.774,4.7994,4.7972,4.7717,4.7911,4.7194,4.5459,0.0,0.0,0.0,0.0,0.0,0.0,0.0,0.0,0.0,0.0,0.0,0.0,0.0,0.0,0.0,0.0,0.0,0.0,0.0,0.0,0.0,0.0,0.0,0.0,0.0,4.2718,0.0,0.0,0.0,0.0,0.0,0.0,0.0,0.0,0.0,0.0,0.0,4.6189,4.7603,4.8743,4.9719,5.0535,5.1095,5.1559,0.0,0.0,0.0,0.0,0.0,0.0,0.0,0.0,0.0,0.0,0.0,0.0,0.0,0.0,4.9883,4.8623,4.8396,4.842,4.848,0.0,0.0,0.0,0.0,0.0,0.0,0.0,0.0,0.0,0.0,0.0,0.0,0.0,0.0,3.7169,3.717,3.7197,0.0,0.0,0.0,0.0,0.0,0.0,0.0,0.0,4.1226,4.1943,4.2006,4.2016,4.2178,0.0,4.2449,4.1427,0.0,0.0,0.0,0.0,0.0,0.0,0.0,0.0,4.5291,4.6943,4.7564,4.8111,4.8697,4.8956,4.8934,4.8632,4.8594,4.7979,4.6735,4.6658,4.5557,0.0,0.0,0.0,0.0,0.0,0.0,0.0,0.0,0.0,0.0,0.0,0.0,0.0,0.0,0.0,0.0,0.0,0.0,0.0,0.0,0.0,0.0,0.0,4.5168,0.0,0.0,0.0,0.0,0.0,0.0,0.0,0.0,0.0,4.6377,4.7282,4.8503,4.9926,5.0801,5.1518,5.2049,0.0,0.0,0.0,0.0,0.0,0.0,0.0,5.4605,5.46,5.5084,5.5306,5.4732,5.4691,5.4709,5.4709,0.0,0.0,5.157,5.1114,5.1208,5.155,5.1865,5.2211,5.2552,5.3359,5.4006,0.0,0.0,0.0,0.0,3.7378,0.0,0.0,0.0,3.9543,3.9908,0.0,3.9905,0.0,0.0,0.0,0.0,4.1162,4.2018,0.0,0.0,4.3441,4.3801,4.3892,4.3902,4.4297,4.5079,4.5125,4.552,4.6066,4.2907,0.0,0.0,0.0,0.0,0.0,0.0,4.7083,4.8679,4.8718,4.8746,4.888,4.9657,4.9725,4.8922,4.879,4.866,4.8449,4.8434,4.7608,4.5829,4.493,0.0,0.0,0.0,0.0,0.0,0.0,0.0,0.0,0.0,0.0,0.0,0.0,0.0,0.0,0.0,0.0,0.0,0.0,0.0,0.0,4.6679,0.0,0.0,0.0,0.0,0.0,0.0,0.0,0.0,0.0,5.0139,4.8585,4.9639,5.0933,5.182,0.0,0.0,0.0,0.0,5.3337,5.3418,5.4693,5.5692,5.5692,5.6996,5.804,5.804,0.0,0.0,5.8117,5.8078,5.8002,5.8078,5.7925,5.7075,5.3803,5.3255,5.3485,5.4258,5.4986,5.5792,5.6609,5.7119,5.7834,4.2231,0.0,0.0,0.0,0.0,4.0924,4.1392,4.2208,4.2458,4.2581,4.2579,4.2572,0.0,0.0,0.0,0.0,0.0,0.0,4.5445,4.6083,4.6909,4.7348,4.7435,4.7405,4.7526,4.7799,4.7761,4.7919,4.8114,4.7132,4.5991,4.4806,0.0,0.0,0.0,0.0,4.8606,4.9609,4.9687,5.0309,5.1514,5.1785,5.1771,5.1503,5.1377,5.0721,4.952,4.9386,4.8806,4.7646,4.6714,0.0,0.0,0.0,0.0,0.0,0.0,0.0,0.0,0.0,0.0,0.0,0.0,0.0,0.0,0.0,0.0,0.0,0.0,0.0,4.8654,4.8389,4.8586,0.0,0.0,0.0,0.0,0.0,0.0,0.0,0.0,0.0,5.3402,5.2854,5.2964,0.0,0.0,5.5396,5.6637,5.6797,5.6841,5.6852,5.7225,0.0,5.7522,5.7933,5.8229,5.8229,5.8229,5.8422,5.9004,5.8614,5.8229,5.8268,5.8268,5.7883,5.7071,5.67,5.673,5.6998,5.7252,5.7468,5.7743,5.8047,5.8427,4.5924,4.4852,4.3291,4.294,4.3447,4.3805,4.4234,4.4737,4.5098,4.5256,4.5254,4.5251,4.494,4.4474,4.5013,0.0,0.0,0.0,4.7549,4.8062,4.8573,4.9046,4.9363,4.9366,4.972,5.0383,5.0423,5.0579,5.0892,5.0933,5.0384,4.9324,0.0,4.8888,4.9546,5.0091,5.0791,5.1605,5.1644,5.2147,5.319,5.3178,5.3156,5.3118,5.3062,5.25,5.1441,5.1328,5.0713,4.9443,4.8833,4.7532,0.0,0.0,0.0,0.0,0.0,0.0,0.0,0.0,0.0,0.0,0.0,3.9892,4.0743,0.0,0.0,0.0,4.7697,4.962,5.151,5.0741,0.0,0.0,0.0,0.0,0.0,0.0,0.0,5.3197,5.3857,5.4857,5.6472,5.5857,5.5621,5.6588,5.6742,5.7126,5.8159,0.0,5.8275,5.8275,5.8544,5.8781,5.8775,5.905,5.9281,5.9319,5.9281,5.9588,6.0358,6.0127,5.9935,6.0198,6.0275,6.0275,6.0275,6.0222,5.9905,5.9296,5.9205,5.9415,6.0068,6.0252,6.0429,4.9174,4.8979,4.6636,4.5503,4.5385,4.6166,4.6518,4.6557,4.7337,4.769,4.7693,4.769,4.7729,4.781,4.7808,0.0,4.9212,4.9212,4.9251,4.9329,4.9291,4.9682,5.0424,5.0424,5.1244,5.2806,5.2806,5.3196,5.3939,5.3943,5.4022,5.4022,5.1793,5.1361,5.2727,5.2805,5.3196,5.3977,5.3977,5.405,5.4112,5.4127,5.4057,5.4027,5.4019,5.3896,5.3716,5.3701,5.2903,5.1208,5.1111,4.993,4.7491,0.0,0.0,0.0,0.0,0.0,0.0,0.0,0.0,0.0,0.0,0.0,0.0,0.0,0.0,4.8505,5.0659,0.0,5.3203,5.3241,0.0,0.0,0.0,5.3241,5.339,5.3395,5.4049,5.5703,0.0,0.0,5.8198,5.8473,5.8506,5.8506,5.8434,5.8429,5.8511,5.855,5.8511,5.8583,5.9165,5.9627,5.9819,6.0473,6.1012,6.1012,6.0979,6.1281,6.1979,6.2133,6.248,6.2968,6.3275,6.3198,6.3275,6.3038,6.2858,6.1506,6.1089,6.1435,6.2698,6.3006,6.3045,5.1796,5.1757,5.1132,4.9764,4.8001,4.8197,4.8275,4.8314,4.847,4.8588,4.8588,4.8588,4.8939,4.9526,4.9525,5.0345,5.1789,5.1789,5.218,5.2766,5.2809,5.2888,5.3044,5.3085,5.3281,5.3671,5.371,5.3789,5.3984,5.3984,5.4336,5.4961,5.5039,5.4608,5.3709,5.3669,5.3785,5.3977,5.3977,5.4327,5.4988,5.5595,5.5581,5.4989,5.4918,5.4566,5.3864,5.3727,5.3462,5.2983,5.2895,5.2262,5.0923,5.0193,0.0,0.0,0.0,0.0,0.0,0.0,0.0,0.0,0.0,4.6312,4.7778,0.0,5.1269,0.0,5.2544,5.3236,5.4087,5.3582,0.0,0.0,5.3587,5.3703,5.4939,5.5093,5.578,5.7473,5.8204,5.8742,5.9165,5.9781,6.0204,6.0204,5.9627,5.9473,6.0089,6.0204,6.0204,6.0204,6.0364,6.0748,6.1364,6.2166,6.2666,6.2704,6.2704,6.2775,6.2968,6.3006,6.3089,6.3275,6.3314,6.3314,6.3391,6.3314,6.3737,6.432,6.3666,6.2814,6.3237,6.3352,6.3506,5.3281,5.3281,5.3281,5.2461,5.117,5.117,5.117,5.117,5.117,5.117,5.117,5.117,5.1404,5.1834,5.1834,5.2381,5.324,5.3279,5.3552,5.3982,5.3983,5.4218,5.457,5.457,5.4805,5.5156,5.5156,5.5351,5.5742,5.5742,5.6172,5.7031,5.7539,5.7265,5.6367,5.6328,5.6327,5.6326,5.6324,5.6558,5.7026,5.7446,5.7242,5.6458,5.6402,5.5947,5.5092,5.497,5.4713,5.4235,5.4146,5.3689,5.2747,5.2158,5.125,0.0,0.0,0.0,0.0,0.0,0.0,0.0,0.0,0.0,0.0,0.0,5.3582,5.478,5.5241,5.5659,5.6126,5.578,5.5665,5.6126,5.5775,5.5813,5.6742,5.6857,5.7357,5.8665,5.9242,5.9627,6.0012,6.0512,6.0941,6.1325,6.0941,6.0666,6.0787,6.1095,6.1364,6.1402,6.1666,6.205,6.2557,6.3012,6.3314,6.3314,6.3314,6.3391,6.3775,6.3891,6.4089,6.4814,6.4974,6.5128,6.5468,6.5583,6.5929,6.6551,6.6282,6.566,6.5583,6.5583,6.5737,5.4336,5.4336,5.4336,5.4336,5.4336,5.4336,5.4219,5.3984,5.3984,5.3984,5.3984,5.3984,5.4062,5.418,5.418,5.4297,5.4492,5.4492,5.457,5.4648,5.4648,5.5078,5.5781,5.582,5.6211,5.6914,5.6914,5.7344,5.8047,5.8086,5.8476,5.918,5.9297,5.9336,5.9375,5.9453,5.9414,5.9219,5.9218,5.9217,5.9217,5.9136,5.874,5.8031,5.7951,5.7586,5.6883,5.6785,5.6347,5.5553,5.5446,5.4996,5.4126,5.3803,5.3272,0.0,5.2222,0.0,0.0,0.0,0.0,0.0,0.0,0.0,0.0,5.3972,5.5593,5.7055,5.7857,5.8275,5.8275,5.8275,5.8275,5.8275,5.8275,5.8352,5.8429,5.8467,5.8781,5.9544,5.9781,6.0127,6.0864,6.1056,6.1435,6.2095,6.221,6.1935,6.1402,6.1787,6.2249,6.2287,6.2935,6.3391,6.3468,6.3583,6.3775,6.3814,6.3968,6.4083,6.5045,6.5166,6.559,6.6821,6.7128,6.7436,6.8276,6.8276,6.8353,6.843,6.8507,6.8468,6.8199,6.8084,6.8391,5.6094,5.6094,5.6094,5.6094,5.6094,5.6094,5.5273,5.3984,5.3984,5.3984,5.3984,5.3984,5.4375,5.5039,5.5039,5.582,5.7148,5.7148,5.7539,5.8203,5.8242,5.8281,5.8476,5.8476,5.8555,5.8711,5.8711,5.8789,5.8945,5.8945,5.9023,5.9219,5.9844,6.0195,6.0195,0.0,0.0,0.0,5.9219,5.9219,5.9218,5.9178,5.9098,5.8941,5.8898,0.0,5.8633,5.858,5.846,5.8174,5.8137,0.0,0.0,0.0,0.0,0.0,0.0,0.0,0.0,0.0,0.0,0.0,5.6281,5.6405,5.5237,5.6615,5.7698,5.8011,5.8198,5.8275,5.8275,5.8275,5.8275,5.8275,5.8313,5.8544,5.9165,5.9281,5.9588,6.0441,6.1172,6.1672,6.1831,6.2397,6.2858,6.3051,6.3083,6.3012,6.2858,6.2968,6.3083,6.3121,6.3897,6.4359,6.4359,6.4936,6.5628,6.6167,6.6397,6.6667,6.7353,6.759,6.766,6.816,6.816,6.8199,6.843,6.8391,6.8814,6.9321,6.9975,7.0014,6.8699,6.843,6.8391,5.789,5.789,5.789,5.789,0.0,5.789,5.7383,5.6562,5.6133,5.6172,5.6562,5.6562,5.6836,5.7226,5.7226,5.7695,5.8555,5.8515,5.8789,5.918,5.9219,5.9219,5.9219,5.9219,5.9219,5.9219,5.9219,5.9414,5.9805,5.9805,6.0,6.043,6.0859,6.1055,6.1055,6.1484,6.1289,6.043,6.043,6.043,6.043,6.0429,6.0234,5.9804,5.9764,0.0,0.0,0.0,0.0,0.0,0.0,0.0,0.0,5.7857,0.0,5.7267,5.6429,5.5913,5.5986,5.6759,5.7271,5.7293,5.8408,5.8501,5.7191,5.8273,5.8974,5.8979,5.9326,5.9578,5.9517,5.955,5.955,5.955,5.9963,6.0404,6.0789,6.1208,6.1648,6.2072,6.2535,6.2766,6.2766,6.3112,6.3557,6.3913,6.3984,6.4126,6.4442,6.4199,6.4045,6.4512,6.5282,6.5827,6.5904,6.6551,6.7205,6.7667,6.7744,6.7936,6.8314,6.8391,6.8545,6.893,6.9353,6.9738,7.0244,7.0622,7.1045,7.1468,7.1898,7.193,7.1084,7.093,7.093,5.9219,5.9219,5.9219,5.9219,5.9219,5.9219,5.9297,5.9336,5.8476,0.0,0.0,5.9219,5.9219,5.9219,5.9219,5.9258,5.9414,5.9414,5.9492,5.9648,5.9648,5.9648,5.9648,5.9648,5.9648,5.9648,5.9648,6.0,6.0625,6.0625,6.1015,6.164,6.1719,6.1719,6.1719,6.1719,6.1719,6.1719,6.1719,6.1719,6.1719,6.1719,6.1367,6.0664,6.0625,6.0312,5.9603,5.9557,5.9578,5.9578,5.9451,5.9355,5.9299,5.9083,5.8937,5.887,5.8731,5.8641,5.8633,5.8788,5.8955,5.9138,5.9689,5.9682,5.8713,5.9426,5.9901,5.9848,6.0614,6.1103,6.1052,6.1201,6.1283,6.1283,6.1978,6.2392,6.2436,6.302,6.3395,6.3511,6.3588,6.3704,6.3742,6.3891,6.4266,6.4953,6.5211,6.5457,6.605,6.5641,6.5397,6.6205,6.6859,6.7289,6.7398,6.7821,6.843,6.8584,6.8622,6.8737,6.9007,6.9084,6.943,7.0398,7.0937,7.1552,7.229,7.2822,7.3469,7.3507,7.3623,7.3699,7.3699,7.3853,7.3738,5.9219,5.9219,5.9219,5.9219,5.9219,5.9219,5.9609,6.0156,5.9375,5.9101,5.9219,5.9219,5.9219,5.9219,5.9219,5.957,6.0234,6.0234,6.0625,6.1328,6.1328,6.1367,6.1367,6.1367,6.1328,6.1367,6.1367,6.1406,6.1484,6.1523,6.1601,6.1719,6.1719,6.1719,6.1719,6.1719,6.1719,6.1719,6.1719,6.1719,6.1719,6.1719,6.164,6.1523,6.1523,6.1484,6.1325,6.1321,6.1348,6.1325,6.1306,6.1278,6.1197,6.0448,5.9975,5.994,5.9225,5.8764,5.8799,5.9456,6.018,6.0849,6.1031,6.0687,5.9742,6.0329,6.0838,6.0827,6.1565,6.2028,6.2061,6.2635,6.302,6.3064,6.3224,6.3307,6.3345,6.3477,6.3643,6.3687,6.4172,6.4641,6.4767,6.5258,6.5986,6.6707,6.6817,6.718,6.7691,6.7327,6.7173,6.7814,6.8122,6.8199,6.8244,6.8314,6.8853,6.9398,6.959,7.0129,7.1283,7.1437,7.1745,7.2738,7.2892,7.3122,7.3315,7.3392,7.3623,7.3738,7.4161,7.4584,7.4668,7.5168,7.5207,6.0547,6.0547,6.0547,6.0547,6.0547,6.0547,6.0781,6.1055,6.0742,6.0547,6.0547,6.0547,6.0547,6.0547,6.0547,6.0742,6.1094,6.1094,6.1328,6.1719,6.2187,6.2422,6.2461,6.289,6.3125,6.3125,6.3125,6.3086,6.3125,6.3125,6.3125,6.3086,6.3086,6.3125,6.3125,6.3125,6.3125,6.3086,6.2187,6.1719,6.1719,6.1719,6.1719,6.1719,6.1719,6.1718,6.1717,6.1715,6.171,6.1698,6.1721,6.1664,6.1649,6.1226,6.0958,6.0935,6.056,6.0305,6.0292,6.1053,6.1923,6.274,6.2797,6.2556,6.2069,6.189,6.2008,6.2408,6.2802,6.2925,6.2899,6.3285,6.3511,6.3511,6.3924,6.4226,6.4335,6.4752,6.5015,6.5122,6.5819,6.6322,6.6322,6.707,6.7652,6.8055,6.8044,6.8355,6.9091,6.886,6.852,6.8481,6.8776,6.9045,6.9161,6.9937,7.0552,7.1014,7.1475,7.2014,7.2822,7.2899,7.3091,7.343,7.3853,7.4123,7.4161,7.4546,7.4776,7.4938,7.5515,7.6015,7.6207,7.6791,7.6861,6.1992,6.1992,6.2187,6.2305,6.2305,6.2265,6.2305,6.2305,6.2265,6.2305,6.2265,6.207,6.1992,6.1992,6.2187,6.2305,6.2265,6.2305,6.2305,6.2344,6.2969,6.3281,6.3359,6.3984,6.4297,6.4297,6.4297,6.4297,6.4297,6.4297,6.4297,6.4297,6.4297,6.4297,6.4297,6.4297,6.4297,6.4219,6.2969,6.2265,6.2265,6.2265,6.2305,6.2305,6.2305,6.2265,6.2303,6.2264,6.2262,6.2297,6.2284,6.2313,6.2273,6.2212,6.2187,6.2171,6.22,6.2149,6.2171,6.274,6.3416,6.4048,6.4058,6.4066,6.4139,6.3577,6.3279,6.3641,6.3831,6.3907,6.392,6.4098,6.4175,6.4214,6.4786,6.5329,6.5562,6.6143,6.6723,6.6958,6.7505,6.7888,6.8,6.8481,6.8902,6.8997,6.9132,6.953,7.0195,7.0363,7.0048,6.988,7.0007,7.0283,7.036,7.1437,7.2283,7.2521,7.2976,7.3353,7.3623,7.3776,7.393,7.4161,7.4822,7.5284,7.5399,7.5976,7.6476,7.6592,7.7053,7.7484,7.7522,7.7907,7.8253,6.2889,6.3006,6.3672,6.4062,6.3984,6.4023,6.3984,6.3984,6.4023,6.4062,6.3906,6.3242,6.289,6.3008,6.3672,6.3984,6.3984,6.4062,6.4023,6.3984,6.414,6.418,6.418,6.4297,6.4297,6.4375,6.4414,6.4453,6.4453,6.4414,6.4336,6.4297,6.4297,6.4375,6.4336,6.4336,6.4336,6.4297,6.414,6.4062,6.4062,6.4062,6.4062,6.4062,6.4023,6.4062,6.3945,6.4061,6.406,6.406,6.4016,6.4012,6.405,6.3956,6.3943,6.394,6.3915,6.3936,6.3934,6.401,6.4115,6.417,6.4225,6.4512,6.518,6.5113,6.4675,6.4235,6.458,6.495,6.4993,6.5613,6.6035,6.6108,6.6233,6.6557,6.7182,6.7414,6.7768,6.8591,6.8691,6.8789,6.8846,6.9031,6.9304,7.0054,7.0546,7.1145,7.1839,7.2013,7.2141,7.2503,7.2437,7.1975,7.2014,7.2745,7.3276,7.3392,7.3469,7.3892,7.4392,7.4661,7.4776,7.5515,7.6361,7.6861,7.7099,7.7676,7.8099,7.7946,7.8138,7.8407,7.8407,7.86,7.86,6.3783,6.3822,6.4139,6.4296,6.4297,6.4297,6.4297,6.4297,6.4297,6.4297,6.4336,6.4453,6.4258,6.3828,6.414,6.4297,6.4297,6.4297,6.4297,6.4336,6.4805,6.5078,6.5117,6.5625,6.582,6.5859,6.5859,6.582,6.582,6.5859,6.582,6.582,6.582,6.582,6.582,6.5859,6.582,6.582,6.5859,6.582,6.5742,6.4805,6.4297,6.4297,6.4297,6.4297,6.4297,6.4297,6.4296,6.4296,6.4294,6.4293,6.4293,6.4284,6.4278,6.4238,6.4271,6.4454,6.4944,6.4983,6.5205,6.5681,6.5712,6.5851,6.6176,6.6605,6.6672,6.6305,6.6015,6.6066,6.6575,6.6967,6.7351,6.7825,6.7924,6.8065,6.8439,6.8482,6.8684,6.9057,6.9527,6.9838,6.9908,7.0222,7.077,7.1445,7.1948,7.2391,7.307,7.3151,7.3234,7.3475,7.3581,7.3476,7.3168,7.3661,7.4123,7.4315,7.4661,7.5168,7.5399,7.5976,7.6399,7.6714,7.7484,7.7984,7.7946,7.8176,7.8484,7.8638,7.9092,7.94,7.99,8.0015,8.0054,6.4631,6.4672,6.4914,6.4998,6.5,6.5,6.5,6.5,6.5,6.5,6.5078,6.5703,6.5625,6.5078,6.5,6.5,6.5039,6.5,6.5,6.5078,6.5664,6.5976,6.6015,6.6562,6.6914,6.6914,6.6875,6.6992,6.7226,6.7265,6.7383,6.7539,6.7617,6.7617,6.7617,6.7617,6.7578,6.7578,6.7578,6.7578,6.7461,6.6367,6.5508,6.5078,6.5,6.5039,6.5,6.5,6.5,6.5039,6.4999,6.4999,6.4999,6.4996,6.4992,6.503,6.5029,6.5259,6.5831,6.6063,6.6484,6.7084,6.7349,6.7493,6.7551,6.7995,6.8325,6.8185,6.7629,6.7521,6.7938,6.8093,6.8404,6.8991,6.9057,6.9126,6.9437,6.948,6.961,6.9915,7.0489,7.0953,7.1248,7.1844,7.2526,7.2943,7.3073,7.3319,7.3947,7.4088,7.4083,7.4254,7.4756,7.463,7.4084,7.4507,7.5014,7.5515,7.6015,7.6361,7.6592,7.7292,7.7599,7.7676,7.8369,7.8823,7.8938,7.8977,7.9177,7.9331,7.9708,8.0285,8.0746,8.1016,8.1054,6.5469,6.559,6.6429,6.6673,6.6755,6.6755,6.6757,6.668,6.6758,6.6797,6.6797,6.6836,6.6836,6.6797,6.6797,6.6758,6.6719,6.664,6.668,6.6719,6.6797,6.6836,6.6836,6.6875,6.6953,6.7148,6.7148,6.7461,6.8125,6.8164,6.8555,6.9219,6.918,6.9297,6.9219,6.914,6.9258,6.9101,6.9101,6.9219,6.9297,6.918,6.8281,6.6953,6.6797,6.6797,6.6797,6.6797,6.6797,6.6797,6.6797,6.6797,6.6797,6.6796,6.6792,6.6788,6.6787,6.6787,6.6981,6.7527,6.7952,6.8098,6.8673,6.9207,6.9036,6.917,6.9237,6.9237,6.9204,6.9195,6.9205,6.915,6.9185,6.9341,6.9309,6.9678,7.0404,7.0569,7.085,7.1491,7.1794,7.2117,7.2779,7.3593,7.3898,7.404,7.4034,7.4226,7.485,7.493,7.5144,7.5687,7.5849,7.5668,7.4969,7.5399,7.6245,7.6746,7.7053,7.74,7.8023,7.8446,7.8446,7.86,7.9246,7.9708,7.9892,8.0162,8.0554,8.0708,8.0631,8.1016,8.1054,8.1093,8.1093,6.6299,6.6367,6.6695,6.6861,6.6946,6.7496,6.7732,6.7772,6.8281,6.8515,6.8555,6.8515,6.8515,6.8476,6.8515,6.793,6.6953,6.6914,6.7187,6.7695,6.7734,6.8008,6.8476,6.8555,6.8555,6.8555,6.8515,6.8672,6.8984,6.8984,6.914,6.9375,6.9492,6.9492,6.9453,6.9414,6.9414,6.9453,6.9453,6.9453,6.9492,6.9453,6.9101,6.8555,6.8555,6.8555,6.8555,6.8555,6.8555,6.8515,6.8476,6.8476,6.8515,6.8554,6.8554,6.8553,6.8553,6.8553,6.855,6.8745,6.8938,6.897,6.9196,6.9461,6.9493,6.9863,7.0196,7.0272,7.0723,7.0931,7.0837,7.0424,7.0336,7.0804,7.0934,7.1258,7.1972,7.2248,7.2564,7.3269,7.3485,7.3612,7.3804,7.4138,7.446,7.4865,7.4877,7.5209,7.5752,7.588,7.6083,7.6744,7.6945,7.6951,7.7246,7.6861,7.7099,7.7676,7.8099,7.8138,7.8523,7.9169,7.9285,7.94,8.0008,8.04,8.0508,8.0592,8.1093,8.1093,8.1093,8.1093,8.1093,8.1093,8.1093,6.7592,6.7599,6.7615,6.7666,6.7794,6.8349,6.8589,6.863,6.9179,6.9414,6.9453,6.9414,6.9414,6.9414,6.9414,6.8867,6.7773,6.7734,6.8008,6.8555,6.8594,6.8867,6.9336,6.9492,6.9492,6.9453,6.9453,6.9531,6.9844,6.9844,7.0,7.0312,7.0312,7.0273,7.0234,7.0234,7.0273,7.0312,7.0312,7.0273,7.0234,7.0234,7.0234,7.0234,7.0273,7.0,6.9492,6.9453,6.9453,6.9414,6.9414,6.9414,6.9414,6.9453,6.9492,6.9453,6.9453,6.9453,6.9452,6.9647,6.9841,6.9837,7.0106,7.0218,7.0289,7.078,7.1198,7.1579,7.1961,7.242,7.2574,7.2214,7.2006,7.2344,7.2548,7.2951,7.3505,7.3583,7.3856,7.4281,7.4654,7.4784,7.487,7.5038,7.54,7.5844,7.5774,7.6054,7.6742,7.6817,7.701,7.771,7.7828,7.8135,7.8422,7.8361,7.8246,7.8746,7.8938,7.8938,7.9208,7.9823,8.0123,8.0277,8.0546,8.09,8.1093,8.1093,8.1093,8.1093,8.1093,8.1093,8.1093,8.1093,8.1093,6.9234,6.9159,6.9338,6.92,6.9215,6.9348,6.9401,6.9449,6.9529,6.9686,6.9765,6.957,6.9687,6.957,6.9765,6.957,6.9453,6.9414,6.9414,6.9414,6.9414,6.9492,6.9648,6.9765,6.9765,6.9765,6.957,6.9922,7.0664,7.0742,7.1055,7.1758,7.1758,7.168,7.1914,7.1758,7.1836,7.1797,7.1719,7.1836,7.1953,7.1797,7.1758,7.1797,7.1797,7.1094,6.9609,6.957,6.9687,6.9648,6.9609,6.9492,6.9687,6.9687,6.9531,6.9648,6.9531,6.9492,6.9609,7.0312,7.0703,7.0818,7.1442,7.1867,7.1855,7.2044,7.2427,7.3001,7.3232,7.3544,7.4169,7.4246,7.3961,7.3425,7.3774,7.425,7.4458,7.454,7.454,7.481,7.5337,7.5744,7.5905,7.63,7.6738,7.6782,7.6815,7.6995,7.771,7.7742,7.7949,7.8488,7.8742,7.8948,7.9414,7.9785,7.9785,7.9823,7.9823,7.99,8.0246,8.0708,8.0669,8.0785,8.0746,8.1093,8.1093,8.1093,8.1093,8.1093,8.1093,8.1093,8.1093,8.1093,8.1093,6.9273,6.9307,6.9333,6.9364,6.9471,7.0035,7.0289,7.0383,7.0894,7.121,7.1211,7.1211,7.1211,7.1172,7.1211,7.1211,7.1211,7.1172,7.0859,7.039,7.0312,7.0586,7.1055,7.1172,7.125,7.1211,7.1211,7.1289,7.1523,7.1562,7.1758,7.1953,7.1992,7.1992,7.1992,7.1992,7.1992,7.1992,7.1992,7.1992,7.1992,7.1992,7.1992,7.1992,7.1992,7.168,7.125,7.1172,7.1211,7.1172,7.1211,7.1211,7.1172,7.1211,7.1211,7.1211,7.1211,7.1172,7.1211,7.1406,7.164,7.1757,7.242,7.2846,7.2955,7.3416,7.3797,7.4098,7.4134,7.429,7.4525,7.5073,7.4987,7.4199,7.4353,7.4822,7.5373,7.5884,7.6269,7.6294,7.6511,7.6604,7.6726,7.7271,7.7711,7.777,7.7985,7.8401,7.8607,7.8623,7.8863,7.9481,7.9607,7.9755,8.0183,8.0462,8.0439,8.04,8.0439,8.0439,8.0862,8.1093,8.1093,8.1093,8.1093,8.1093,8.1093,8.1093,8.1093,8.1093,8.1093,8.1093,8.1093,8.117,8.1285,7.0149,7.0239,7.023,7.0271,7.0389,7.0956,7.114,7.1238,7.1751,7.199,7.1992,7.1992,7.1992,7.1992,7.1992,7.1992,7.1992,7.1992,7.1719,7.125,7.1172,7.1523,7.1953,7.1992,7.1992,7.1992,7.1992,7.1992,7.1992,7.1992,7.1992,7.1992,7.1992,7.1992,7.1992,7.1992,7.1992,7.1992,7.1992,7.1992,7.207,7.2305,7.25,7.2539,7.2812,7.2969,7.2969,7.2969,7.2656,7.2148,7.1992,7.1992,7.1992,7.1953,7.1992,7.207,7.2305,7.2461,7.25,7.2812,7.2969,7.3086,7.3475,7.3745,7.3856,7.4355,7.4617,7.495,7.4984,7.5098,7.5483,7.5872,7.5952,7.5521,7.5493,7.5693,7.6275,7.6741,7.724,7.7337,7.7511,7.7604,7.7955,7.8205,7.8598,7.8641,7.8864,7.9326,7.9421,7.9492,7.9905,8.0287,8.0477,8.0709,8.1029,8.1077,8.1062,8.0977,8.0939,8.09,8.1054,8.1093,8.1093,8.1093,8.1093,8.1093,8.1093,8.1093,8.1093,8.1093,8.1208,8.1285,8.14,8.1631,8.1823,7.1668,7.18,7.18,7.169,7.1737,7.1837,7.1912,7.2096,7.2137,7.2222,7.2265,7.2383,7.2305,7.2226,7.2422,7.2422,7.2187,7.2344,7.2422,7.2265,7.2226,7.2265,7.2031,7.1992,7.1992,7.1992,7.2109,7.2148,7.2226,7.2344,7.2148,7.2344,7.2422,7.2226,7.2383,7.2187,7.2344,7.2422,7.2305,7.2305,7.2344,7.2969,7.3359,7.3398,7.4023,7.4375,7.4336,7.4297,7.3711,7.2422,7.2344,7.2422,7.2226,7.2148,7.2305,7.2422,7.2969,7.3281,7.3555,7.3906,7.4336,7.4336,7.4491,7.4682,7.4716,7.49,7.5273,7.5794,7.5865,7.6129,7.6661,7.685,7.6889,7.7047,7.6956,7.7045,7.7153,7.7266,7.7764,7.8213,7.8382,7.859,7.9178,7.9346,7.9447,7.9468,7.9471,7.989,8.0235,8.0471,8.0679,8.0873,8.1083,8.113,8.1251,8.1154,8.11,8.1093,8.1093,8.1093,8.1093,8.1093,8.1093,8.1093,8.1093,8.1093,8.1093,8.1093,8.1246,8.1439,8.1554,8.1631,8.1939,8.2247,8.2516,7.1645,7.1732,7.1732,7.1808,7.1887,7.1899,7.2331,7.2916,7.2957,7.3277,7.375,7.3906,7.3828,7.3906,7.3867,7.3906,7.3828,7.3828,7.3906,7.3906,7.3906,7.3125,7.2226,7.2031,7.207,7.2148,7.2695,7.2969,7.3008,7.3515,7.3789,7.3906,7.375,7.3867,7.3906,7.3828,7.3906,7.3945,7.3906,7.3867,7.3867,7.4101,7.4258,7.4297,7.4531,7.4648,7.4609,7.457,7.4453,7.4023,7.3906,7.3906,7.3828,7.3789,7.375,7.3828,7.4062,7.4258,7.4297,7.4531,7.4648,7.4648,7.5233,7.5542,7.5575,7.6104,7.6475,7.6764,7.6712,7.6769,7.6983,7.7053,7.7277,7.7774,7.8004,7.8029,7.8065,7.8573,7.903,7.924,7.9208,7.9331,7.9601,8.0018,8.0266,8.0345,8.0602,8.0921,8.1088,8.1124,8.1169,8.1214,8.131,8.128,8.1273,8.1169,8.11,8.1093,8.1093,8.1093,8.1093,8.1093,8.1093,8.1093,8.1093,8.1093,8.1093,8.1131,8.14,8.1747,8.2054,8.2247,8.2862,8.3293,8.3332,7.2159,7.2309,7.2642,7.2885,7.2979,7.2984,7.3342,7.3773,7.3856,7.4097,7.4531,7.457,7.457,7.457,7.457,7.457,7.457,7.457,7.457,7.457,7.4531,7.3984,7.3281,7.3086,7.3086,7.3125,7.3594,7.3789,7.3906,7.4375,7.457,7.4531,7.457,7.457,7.4492,7.457,7.4609,7.457,7.457,7.457,7.4609,7.5,7.5156,7.5234,7.543,7.5703,7.5703,7.5703,7.543,7.4805,7.457,7.457,7.457,7.457,7.457,7.4609,7.4922,7.5156,7.5234,7.5469,7.5703,7.5741,7.6207,7.6357,7.6461,7.687,7.708,7.6995,7.7292,7.7459,7.7539,7.7764,7.8183,7.8637,7.9055,7.916,7.886,7.921,7.9706,7.9913,8.0043,8.0171,8.0407,8.0901,8.1066,8.1177,8.1359,8.1529,8.1602,8.1577,8.1491,8.1466,8.14,8.1312,8.128,8.1184,8.1108,8.1093,8.1093,8.1093,8.1093,8.1093,8.1093,8.1093,8.1093,8.1131,8.1208,8.14,8.1785,8.217,8.2516,8.3131,8.3755,8.414,8.4209,7.3005,7.319,7.3979,7.4371,7.4422,7.4472,7.4477,7.4711,7.4754,7.4839,7.5,7.4922,7.5117,7.4883,7.5195,7.4961,7.4961,7.5156,7.5039,7.5078,7.5078,7.4961,7.4883,7.4375,7.4297,7.4375,7.4609,7.4726,7.4805,7.4883,7.4961,7.5117,7.5078,7.4922,7.5156,7.5039,7.4922,7.5078,7.5156,7.5195,7.5273,7.5742,7.6015,7.6094,7.6562,7.6875,7.6992,7.6992,7.6445,7.4961,7.4883,7.5039,7.4961,7.4922,7.4961,7.5117,7.5664,7.6015,7.6133,7.664,7.707,7.6989,7.6984,7.7168,7.7224,7.7355,7.7433,7.7568,7.7929,7.8241,7.8372,7.8933,7.9345,7.9613,8.0209,8.0345,7.9948,7.9732,8.0044,8.0711,8.0824,8.1185,8.1627,8.1917,8.1865,8.1522,8.1703,8.1679,8.1663,8.1577,8.1516,8.1491,8.1407,8.1298,8.1227,8.1161,8.1131,8.1093,8.1093,8.1093,8.1093,8.1093,8.1093,8.1093,8.1093,8.1246,8.1477,8.1747,8.2208,8.2901,8.3478,8.4132,8.4747,8.4939,8.5016,7.3842,7.3978,7.4194,7.4391,7.4466,7.4488,7.4956,7.5613,7.5613,7.5933,7.6484,7.6601,7.6562,7.6601,7.6484,7.664,7.6484,7.6484,7.664,7.664,7.664,7.664,7.6289,7.539,7.4687,7.4844,7.5351,7.5586,7.5703,7.6133,7.6601,7.6562,7.6406,7.664,7.6523,7.6406,7.664,7.6601,7.6601,7.6484,7.6484,7.668,7.6836,7.6875,7.707,7.7187,7.7226,7.7226,7.7031,7.6719,7.6562,7.6406,7.6445,7.6484,7.6484,7.6484,7.664,7.6875,7.6953,7.707,7.7224,7.7261,7.7369,7.7393,7.8076,7.8068,7.8374,7.875,7.9091,7.9135,7.9209,7.9748,8.0121,8.0393,8.0893,8.1359,8.1267,8.1299,8.1435,8.159,8.1605,8.1701,8.1882,8.189,8.1906,8.1883,8.1824,8.1707,8.1646,8.1577,8.1534,8.1497,8.1394,8.1291,8.1287,8.1207,8.1131,8.1093,8.1093,8.1093,8.1093,8.1093,8.1093,8.1093,8.1093,8.1323,8.1747,8.2324,8.2785,8.3632,8.4401,8.4939,8.5363,8.5593,8.5709,7.474,7.4926,7.5388,7.5619,7.5679,7.5713,7.598,7.6433,7.6516,7.6755,7.7109,7.7226,7.7226,7.7226,7.7226,7.7187,7.7226,7.7226,7.7187,7.7148,7.7187,7.7187,7.7109,7.6406,7.582,7.5859,7.625,7.6484,7.668,7.6914,7.7109,7.7226,7.7226,7.7109,7.7226,7.7226,7.7148,7.7148,7.7226,7.7226,7.7226,7.7226,7.7226,7.7226,7.7226,7.7226,7.7226,7.7226,7.7226,7.7226,7.7226,7.7226,7.7226,7.7226,7.7226,7.7226,7.7226,7.7226,7.7226,7.7538,7.7769,7.7766,7.8063,7.851,7.8831,7.8894,7.9032,7.9406,7.9723,8.0059,8.0393,8.0697,8.0999,8.1071,8.1381,8.1691,8.1718,8.182,8.1895,8.1899,8.1852,8.1852,8.192,8.1906,8.1897,8.1883,8.1804,8.1691,8.1658,8.1595,8.1528,8.1472,8.1367,8.1284,8.1294,8.1222,8.1116,8.1093,8.1093,8.1093,8.1093,8.1093,8.1093,8.1208,8.1362,8.1747,8.217,8.2785,8.3516,8.4247,8.4978,8.5517,8.5863,8.5863,8.5901,7.57,7.5868,7.667,7.7002,7.7012,7.7014,7.7002,7.7059,7.7182,7.7147,7.7226,7.7226,7.7226,7.7226,7.7226,7.7226,7.7226,7.7226,7.7226,7.7226,7.7226,7.7226,7.7148,7.7031,7.6953,7.7187,7.7109,7.7109,7.7109,7.7226,7.7226,7.7226,7.7226,7.7226,7.7226,7.7226,7.7226,7.7226,7.7226,7.7226,7.7226,7.7226,7.7226,7.7226,7.7226,7.7226,7.7226,7.7226,7.7265,7.7383,7.7422,7.7461,7.75,7.7226,7.7344,7.7383,7.75,7.7695,7.7969,7.8279,7.8586,7.8617,7.9183,7.9654,7.9725,7.9751,7.9841,8.0069,8.0443,8.0927,8.158,8.1541,8.1541,8.1619,8.1663,8.1669,8.168,8.1718,8.176,8.1839,8.1869,8.1883,8.1897,8.1897,8.1888,8.1869,8.175,8.168,8.1646,8.16,8.1522,8.1453,8.1353,8.1234,8.1229,8.1207,8.11,8.1093,8.1093,8.1131,8.117,8.1439,8.1516,8.1554,8.1785,8.2247,8.2901,8.3747,8.4401,8.5008,8.5393,8.5863,8.6017,8.6094,8.6132,7.6587,7.6793,7.6944,7.7027,7.7073,7.7107,7.7088,7.7098,7.7144,7.7225,7.7226,7.7226,7.7226,7.7226,7.7226,7.7226,7.7226,7.7226,7.7226,7.7226,7.7226,7.7226,7.7226,7.7226,7.7226,7.7226,7.7226,7.7226,7.7226,7.7226,7.7226,7.7226,7.7226,7.7226,7.7226,7.7226,7.7226,7.7226,7.7226,7.7226,7.7226,7.7226,7.7226,7.7226,7.7305,7.7344,7.7305,7.7305,7.7539,7.8164,7.8281,7.8633,7.875,7.7969,7.7773,7.8125,7.8281,7.8476,7.8943,7.9329,7.9474,7.9533,7.9745,8.0131,8.0425,8.0556,8.0668,8.1065,8.1256,8.1491,8.1585,8.1583,8.1541,8.1534,8.1547,8.1547,8.1559,8.1606,8.168,8.1783,8.1814,8.1839,8.1854,8.1864,8.1859,8.1791,8.1723,8.1663,8.1629,8.1565,8.1491,8.1414,8.134,8.122,8.1147,8.1131,8.1093,8.1093,8.1131,8.1208,8.14,8.1823,8.2054,8.2401,8.2631,8.3016,8.3785,8.4593,8.5132,8.5555,8.5863,8.6094,8.6094,8.6094,8.6209,7.69,7.7005,7.7022,7.7061,7.7092,7.7082,7.7136,7.7142,7.7185,7.7226,7.7226,7.7226,7.7226,7.7226,7.7226,7.7226,7.7226,7.7226,7.7226,7.7226,7.7226,7.7226,7.7226,7.7226,7.7226,7.7226,7.7226,7.7226,7.7226,7.7226,7.7226,7.7226,7.7226,7.7226,7.7226,7.7226,7.7226,7.7226,7.7226,7.7226,7.7226,7.7226,7.7226,7.7305,7.7656,7.7851,7.793,7.8359,7.8672,7.9023,7.914,7.9336,7.9336,7.914,7.8672,7.9062,7.914,7.9256,7.9762,8.0027,8.0363,8.0381,8.0659,8.1078,8.1322,8.1395,8.1394,8.1571,8.1686,8.1589,8.1553,8.1516,8.1504,8.1497,8.1497,8.1497,8.1504,8.1534,8.1606,8.1691,8.1783,8.1804,8.1799,8.177,8.1775,8.1745,8.1686,8.1646,8.1606,8.1534,8.1459,8.1374,8.1291,8.1191,8.1124,8.11,8.1093,8.1093,8.1285,8.1362,8.1708,8.2208,8.3016,8.367,8.3862,8.3978,8.4401,8.5132,8.5632,8.5978,8.6055,8.6094,8.6094,8.6132,8.6324,7.7008,7.7033,7.7057,7.709,7.7071,7.7133,7.7142,7.7185,7.7226,7.7226,7.7226,7.7226,7.7226,7.7226,7.7226,7.7226,7.7226,7.7226,7.7226,7.7226,7.7226,7.7226,7.7226,7.7226,7.7226,7.7226,7.7226,7.7226,7.7226,7.7226,7.7226,7.7226,7.7226,7.7226,7.7226,7.7226,7.7226,7.7226,7.7226,7.7226,7.7422,7.7461,7.7578,7.7695,7.8398,7.875,7.8789,7.918,7.9648,7.9844,7.9961,8.0078,8.0195,8.0234,8.0234,8.0195,8.0076,8.0035,8.042,8.08,8.1208,8.1184,8.1716,8.1975,8.193,8.1723,8.1644,8.1635,8.1565,8.1547,8.151,8.1485,8.1485,8.1497,8.1497,8.1497,8.1497,8.151,8.1528,8.1612,8.1696,8.1762,8.1718,8.1723,8.1734,8.1702,8.1646,8.1606,8.1565,8.1504,8.1427,8.1333,8.1241,8.1184,8.1116,8.11,8.1093,8.1093,8.1439,8.1708,8.217,8.2708,8.3593,8.4516,8.4939,8.5055,8.5401,8.5555,8.5824,8.6055,8.6094,8.6094,8.6094,8.644,8.6786,7.7043,7.7104,7.7089,7.7107,7.7084,7.714,7.7184,7.7185,7.7226,7.7226,7.7226,7.7226,7.7226,7.7226,7.7226,7.7226,7.7226,7.7226,7.7226,7.7226,7.7226,7.7226,7.7226,7.7226,7.7226,7.7226,7.7226,7.7226,7.7305,7.7305,7.7226,7.7226,7.7226,7.7226,7.7226,7.7344,7.7226,7.7226,7.7265,7.7656,7.8203,7.832,7.8672,7.914,7.9453,7.957,7.9609,7.9883,8.0195,8.0781,8.0859,8.125,8.1834,8.199,8.1988,8.1752,8.1439,8.1165,8.1658,8.1837,8.1888,8.1852,8.207,8.2029,8.1912,8.1762,8.1646,8.1618,8.151,8.1459,8.1472,8.144,8.1446,8.1472,8.1497,8.1497,8.1497,8.1497,8.1516,8.1528,8.1618,8.1658,8.1674,8.168,8.1686,8.1646,8.16,8.1565,8.151,8.144,8.1374,8.1277,8.1191,8.1139,8.1116,8.1093,8.1246,8.1208,8.1631,8.2131,8.2901,8.3555,8.4209,8.5016,8.5508,8.5778,8.5824,8.5901,8.6055,8.6094,8.6094,8.6094,8.6132,8.6555,8.7132,7.7067,7.7092,7.7108,7.7125,7.7138,7.7183,7.7224,7.7226,7.7226,7.7226,7.7226,7.7226,7.7226,7.7226,7.7226,7.7226,7.7226,7.7226,7.7226,7.7226,7.7226,7.7226,7.7226,7.7226,7.7226,7.7344,7.7305,7.7617,7.7617,7.7461,7.7226,7.7265,7.7265,7.7226,7.7461,7.7734,7.789,7.8086,7.8359,7.8789,7.9062,7.918,7.9336,7.9726,8.0195,8.039,8.0508,8.1015,8.1289,8.1719,8.1718,8.1873,8.2184,8.226,8.2254,8.2198,8.1926,8.1846,8.2148,8.2207,8.2173,8.2159,8.2056,8.1968,8.1801,8.1691,8.1559,8.1491,8.144,8.1414,8.1427,8.1414,8.1446,8.1472,8.1491,8.1497,8.1497,8.1497,8.1504,8.1516,8.1522,8.1571,8.1612,8.1618,8.1606,8.1571,8.1534,8.1497,8.1427,8.1333,8.127,8.1251,8.1177,8.11,8.11,8.1093,8.1554,8.167,8.1977,8.267,8.3747,8.4508,8.5016,8.5401,8.5786,8.6017,8.6094,8.6094,8.6094,8.6094,8.6094,8.6324,8.6555,8.6978,8.7671,7.7111,7.7118,7.7127,7.7177,7.7223,7.7224,7.7226,7.7226,7.7226,7.7226,7.7226,7.7226,7.7226,7.7226,7.7226,7.7226,7.7226,7.7226,7.7226,7.7226,7.7226,7.7383,7.7578,7.7578,7.7734,7.7812,7.8086,7.832,7.8437,7.8281,7.8008,7.7812,7.8086,7.7969,7.8047,7.8437,7.8789,7.8828,7.9258,7.9687,7.9961,8.0039,8.0195,8.0508,8.0937,8.1328,8.1406,8.1836,8.2226,8.2226,8.2225,8.2223,8.2296,8.2288,8.2236,8.2214,8.2087,8.2072,8.214,8.216,8.217,8.2074,8.1979,8.186,8.169,8.1606,8.1528,8.142,8.1347,8.1347,8.1367,8.1367,8.14,8.144,8.1485,8.1491,8.1497,8.1497,8.1497,8.1504,8.151,8.1504,8.1534,8.1541,8.1522,8.1485,8.1459,8.1427,8.1347,8.1241,8.1229,8.1184,8.1147,8.1131,8.117,8.1285,8.1708,8.2247,8.2554,8.317,8.4277,8.497,8.5478,8.5824,8.6055,8.6094,8.6094,8.6094,8.6094,8.617,8.6324,8.6786,8.7132,8.7555,8.8325,7.7133,7.7183,7.7183,7.7184,7.7224,7.7226,7.7226,7.7226,7.7226,7.7226,7.7226,7.7226,7.7226,7.7226,7.7226,7.7226,7.7265,7.7226,7.7383,7.7383,7.7305,7.7812,7.8164,7.8476,7.8711,7.9219,7.918,7.9258,7.957,7.9492,7.9414,7.9531,7.9219,7.9414,7.9414,7.9414,7.9726,7.9805,8.0039,8.0351,8.0742,8.0976,8.1211,8.1836,8.2109,8.2226,8.2187,8.2265,8.2304,8.2303,8.2301,8.2294,8.2283,8.2269,8.2211,8.2181,8.215,8.2125,8.2095,8.2092,8.2116,8.2022,8.1869,8.1732,8.1624,8.1491,8.1414,8.1374,8.1284,8.1256,8.1277,8.1298,8.1333,8.1407,8.1459,8.1478,8.1491,8.1497,8.1497,8.1497,8.1491,8.1472,8.1453,8.1459,8.1472,8.144,8.1374,8.134,8.1277,8.1222,8.1177,8.1139,8.1116,8.1131,8.1246,8.1593,8.217,8.2978,8.3555,8.4093,8.4854,8.5393,8.5824,8.594,8.6094,8.6094,8.617,8.6324,8.644,8.6401,8.6632,8.7171,8.8017,8.8748,8.9556,7.7139,7.7223,7.7225,7.7226,7.7226,7.7226,7.7226,7.7226,7.7226,7.7226,7.7226,7.7226,7.7226,7.7226,7.7265,7.7539,7.793,7.8008,7.8242,7.8594,7.8828,7.8945,7.9219,7.9258,7.9414,7.9726,7.9765,8.0078,8.0469,8.0469,8.0937,8.0898,8.0312,7.9765,7.9765,8.0312,8.0742,8.1133,8.125,8.1523,8.164,8.1797,8.1953,8.2226,8.2304,8.2304,8.2304,8.2304,8.2303,8.2301,8.2294,8.2282,8.2263,8.2207,8.2175,8.2133,8.2095,8.2046,8.1994,8.1998,8.2005,8.1904,8.1762,8.1596,8.1547,8.1446,8.1347,8.1277,8.1212,8.1229,8.1244,8.1266,8.1301,8.136,8.142,8.1446,8.1466,8.1466,8.1466,8.1453,8.144,8.1427,8.14,8.1374,8.1387,8.1387,8.1312,8.1241,8.1222,8.1177,8.1139,8.1116,8.11,8.1477,8.1631,8.2131,8.2708,8.3555,8.4439,8.4893,8.5354,8.5662,8.6017,8.6094,8.6132,8.617,8.6324,8.6632,8.6786,8.6824,8.7209,8.7748,8.8709,8.9816,9.047,7.7143,7.7186,7.7226,7.7226,7.7226,7.7226,7.7226,7.7226,7.7226,7.7226,7.7226,7.7226,7.7383,7.75,7.7617,7.8086,7.8672,7.8906,7.9219,7.9414,7.957,7.9844,8.0,8.0156,8.0273,8.0351,8.0508,8.0898,8.1367,8.1367,8.164,8.164,8.1172,8.0703,8.0703,8.1054,8.1719,8.2148,8.2304,8.2304,8.2265,8.2265,8.2265,8.2304,8.2304,8.2304,8.2304,8.2302,8.2298,8.2292,8.2282,8.2265,8.2204,8.2175,8.2131,8.208,8.2022,8.196,8.1912,8.1887,8.1844,8.1757,8.1641,8.1559,8.1472,8.1387,8.127,8.1244,8.1199,8.1177,8.1184,8.1207,8.1236,8.133,8.134,8.1374,8.1394,8.14,8.1407,8.1407,8.1387,8.136,8.1333,8.1305,8.1284,8.1277,8.1251,8.1199,8.1169,8.1131,8.1108,8.11,8.1093,8.1593,8.2131,8.2708,8.3285,8.417,8.4939,8.5401,8.5824,8.6055,8.6094,8.6094,8.6132,8.6209,8.6555,8.7017,8.7209,8.7325,8.7979,8.8748,8.9594,9.0594,9.0778,7.7186,7.7226,7.7226,7.7226,7.7226,7.7226,7.7226,7.7226,7.7226,7.7265,7.7344,7.7305,7.7773,7.832,7.8476,7.8945,7.9531,7.9687,7.9883,8.0039,8.0234,8.039,8.0742,8.1054,8.1211,8.2031,8.1953,8.1836,8.2148,8.2031,8.2226,8.2265,8.1953,8.1875,8.2148,8.2226,8.2304,8.2304,8.2304,8.2304,8.2304,8.2304,8.2304,8.2304,8.2304,8.2303,8.2301,8.2296,8.2289,8.2279,8.2226,8.2204,8.2177,8.2125,8.2077,8.2085,8.192,8.1842,8.181,8.1733,8.1656,8.1608,8.1547,8.1459,8.138,8.1323,8.1229,8.1184,8.1147,8.1116,8.1124,8.1162,8.1199,8.1251,8.1309,8.1305,8.1326,8.134,8.1353,8.1353,8.1319,8.1284,8.1256,8.1227,8.1191,8.1192,8.1139,8.1116,8.1116,8.1108,8.1093,8.1208,8.1285,8.1939,8.2554,8.3208,8.3901,8.4786,8.5354,8.5786,8.5978,8.6055,8.6094,8.6094,8.6363,8.6632,8.7017,8.744,8.794,8.8594,8.9248,8.9979,9.0748,9.1133,9.1163,7.7225,7.7226,7.7226,7.7226,7.7226,7.7226,7.7226,7.7226,7.7226,7.75,7.7969,7.8047,7.8515,7.9101,7.9375,7.9765,8.0429,8.0586,8.0703,8.1367,8.1289,8.1562,8.1797,8.1797,8.1992,8.2226,8.2304,8.2304,8.2265,8.2304,8.2304,8.2304,8.2304,8.2304,8.2265,8.2304,8.2304,8.2304,8.2304,8.2304,8.2304,8.2304,8.2304,8.2304,8.2302,8.23,8.2296,8.2288,8.2275,8.226,8.2205,8.2173,8.2172,8.2107,8.2019,8.1952,8.1815,8.1747,8.1636,8.1538,8.1508,8.1491,8.1433,8.134,8.1249,8.1251,8.1192,8.1154,8.1116,8.1093,8.1108,8.1116,8.1147,8.1207,8.1258,8.1287,8.1277,8.1291,8.1305,8.1291,8.1263,8.1229,8.1192,8.1199,8.1169,8.1154,8.1108,8.11,8.11,8.11,8.1131,8.1362,8.1593,8.2324,8.3016,8.3747,8.4516,8.5363,8.5747,8.594,8.6094,8.6094,8.6209,8.6247,8.6671,8.7055,8.7671,8.8325,8.9286,9.0017,9.0316,9.0547,9.0932,9.1163,9.1163,7.7226,7.7226,7.7226,7.7226,7.7226,7.7226,7.7344,7.7617,7.7695,7.8125,7.8789,7.8906,7.9375,7.9961,8.0234,8.0625,8.1406,8.1445,8.1562,8.2304,8.2265,8.2226,8.2226,8.2304,8.2226,8.2304,8.2304,8.2304,8.2304,8.2304,8.2304,8.2304,8.2304,8.2304,8.2304,8.2304,8.2304,8.2304,8.2304,8.2304,8.2304,8.2304,8.2304,8.2301,8.2298,8.2293,8.2285,8.2273,8.2256,8.22,8.2171,8.2131,8.2116,8.2008,8.1948,8.1808,8.1742,8.1641,8.1483,8.1414,8.1394,8.1367,8.1291,8.1234,8.1214,8.1184,8.1147,8.1116,8.1093,8.1093,8.1093,8.1093,8.1116,8.1177,8.1184,8.1222,8.1229,8.1244,8.1244,8.1236,8.1222,8.1154,8.1108,8.1108,8.1108,8.11,8.1093,8.1093,8.1093,8.1093,8.1285,8.1631,8.2016,8.2747,8.3555,8.4324,8.5132,8.594,8.6094,8.6094,8.6094,8.6094,8.6247,8.6517,8.6978,8.7555,8.8479,8.9286,9.0133,9.0624,9.0893,9.1047,9.1201,9.1201,9.1201,7.7226,7.7226,7.7226,7.7226,7.7226,7.7305,7.7734,7.8476,7.8515,7.8984,7.9726,7.9726,8.0234,8.0898,8.1054,8.1445,8.2031,8.2148,8.2226,8.2265,8.2304,8.2304,8.2304,8.2304,8.2304,8.2304,8.2304,8.2304,8.2304,8.2304,8.2304,8.2304,8.2304,8.2304,8.2304,8.2304,8.2304,8.2304,8.2304,8.2304,8.2304,8.2303,8.2301,8.2297,8.2289,8.228,8.2267,8.2251,8.2191,8.2164,8.212,8.2119,8.2015,8.1873,8.1813,8.1767,8.1647,8.1547,8.142,8.1326,8.1256,8.1266,8.1229,8.1207,8.1184,8.1147,8.1116,8.11,8.1093,8.1093,8.1093,8.1093,8.1093,8.1108,8.1108,8.1116,8.1116,8.1116,8.1124,8.1124,8.1124,8.1093,8.1093,8.1093,8.1093,8.1093,8.1093,8.1093,8.1093,8.1093,8.1362,8.2054,8.2554,8.3208,8.4016,8.4854,8.5354,8.6094,8.6094,8.6094,8.6094,8.617,8.644,8.6786,8.7325,8.8132,8.9325,9.0171,9.0816,9.1201,9.1201,9.1201,9.1201,9.1201,9.1201,7.7226,7.7226,7.7226,7.7226,7.7305,7.7851,7.8281,7.8555,7.9062,7.9844,8.0625,8.0625,8.1094,8.1875,8.1914,8.207,8.2187,8.2304,8.2304,8.2304,8.2304,8.2304,8.2304,8.2304,8.2304,8.2304,8.2304,8.2304,8.2304,8.2304,8.2304,8.2304,8.2304,8.2304,8.2304,8.2304,8.2304,8.2304,8.2304,8.2304,8.2304,8.2302,8.2297,8.2289,8.228,8.2266,8.2246,8.2232,8.2166,8.2109,8.2125,8.2078,8.1887,8.1838,8.1791,8.1641,8.1547,8.1414,8.1365,8.1287,8.1214,8.1162,8.1131,8.1131,8.1124,8.1108,8.1093,8.1093,8.1093,8.1093,8.1093,8.1093,8.1093,8.1093,8.1093,8.1093,8.1093,8.1093,8.1093,8.1093,8.1093,8.1093,8.1093,8.1093,8.1093,8.1093,8.1093,8.1093,8.117,8.1208,8.167,8.2362,8.3131,8.3824,8.4555,8.5363,8.5709,8.6055,8.6094,8.6094,8.6132,8.6286,8.6632,8.7325,8.8286,8.9363,9.0517,9.1056,9.1163,9.1201,9.1201,9.1201,9.1201,9.1201,9.1201,7.7226,7.7226,7.7226,7.7383,7.789,7.8984,7.9492,7.957,8.0039,8.0703,8.1445,8.1523,8.1797,8.2187,8.2265,8.2265,8.2304,8.2304,8.2304,8.2304,8.2304,8.2304,8.2304,8.2304,8.2304,8.2304,8.2304,8.2304,8.2304,8.2304,8.2304,8.2304,8.2304,8.2304,8.2304,8.2304,8.2304,8.2304,8.2304,8.2304,8.2302,8.23,8.229,8.2317,8.2269,8.2246,8.2185,8.2171,8.2117,8.2056,8.2078,8.1941,8.1801,8.1762,8.1663,8.1547,8.1466,8.1353,8.1263,8.1251,8.1169,8.1116,8.1093,8.1093,8.1093,8.1093,8.1093,8.1093,8.1093,8.1093,8.1093,8.1093,8.1093,8.1093,8.1093,8.1093,8.1093,8.1093,8.1093,8.1093,8.1093,8.1093,8.1093,8.1093,8.1093,8.1093,8.1093,8.1093,8.1323,8.1554,8.2131,8.2909,8.367,8.4439,8.517,8.567,8.5901,8.6094,8.6094,8.6094,8.6132,8.6709,8.7325,8.8363,8.9509,9.0402,9.1056,9.1095,9.1201,9.1201,9.1201,9.1201,9.1201,9.1201,9.1201,7.7226,7.7226,7.7305,7.7851,7.875,8.0234,8.0937,8.1094,8.1094,8.1523,8.2148,8.2265,8.2226,8.2304,8.2304,8.2304,8.2304,8.2304,8.2304,8.2304,8.2304,8.2304,8.2304,8.2304,8.2304,8.2304,8.2304,8.2304,8.2304,8.2304,8.2304,8.2304,8.2304,8.2304,8.2304,8.2304,8.2304,8.2304,8.2304,8.2304,8.2301,8.2296,8.2286,8.227,8.2248,8.2183,8.2162,8.2123,8.2101,8.2008,8.1941,8.1833,8.1742,8.1641,8.1496,8.1446,8.138,8.1298,8.1258,8.1199,8.1162,8.1116,8.1093,8.1093,8.1093,8.1093,8.1093,8.1093,8.1093,8.1093,8.1093,8.1093,8.1093,8.1093,8.1093,8.1093,8.1093,8.1093,8.1093,8.1093,8.1093,8.1093,8.1093,8.1093,8.1093,8.1093,8.1093,8.1093,8.1554,8.1939,8.2593,8.3409,8.4093,8.4824,8.5517,8.594,8.6017,8.6094,8.6094,8.6363,8.6555,8.7286,8.8171,8.9133,9.0047,9.0624,9.1163,9.1201,9.1201,9.1201,9.1201,9.1201,9.1201,9.1201,9.1201,7.7226,7.7265,7.793,7.8672,7.9492,8.0547,8.1406,8.1953,8.1992,8.207,8.2304,8.2304,8.2304,8.2304,8.2304,8.2304,8.2304,8.2304,8.2304,8.2304,8.2304,8.2304,8.2304,8.2304,8.2304,8.2304,8.2304,8.2304,8.2304,8.2304,8.2304,8.2304,8.2304,8.2304,8.2304,8.2304,8.2304,8.2304,8.2302,8.23,8.2294,8.2284,8.227,8.225,8.2183,8.2153,8.2164,8.2122,8.199,8.1899,8.1817,8.1757,8.1636,8.1534,8.1446,8.1387,8.1337,8.1266,8.1214,8.1162,8.1116,8.1108,8.1093,8.1093,8.1093,8.1093,8.1093,8.1093,8.1093,8.1093,8.1093,8.1093,8.1093,8.1093,8.1093,8.1093,8.1093,8.1093,8.1093,8.1093,8.1093,8.1093,8.1093,8.1093,8.1093,8.1093,8.1093,8.1285,8.2054,8.2593,8.3054,8.3785,8.4362,8.5093,8.5786,8.6094,8.6094,8.6094,8.6094,8.644,8.694,8.8017,8.9056,8.971,9.0432,9.0893,9.1201,9.1201,9.1201,9.1201,9.1201,9.1201,9.1201,9.1201,9.1201,7.7226,7.7383,7.8515,7.9492,8.0351,8.1211,8.1875,8.2226,8.2304,8.2304,8.2304,8.2304,8.2304,8.2304,8.2304,8.2304,8.2304,8.2304,8.2304,8.2304,8.2304,8.2304,8.2304,8.2304,8.2304,8.2304,8.2304,8.2304,8.2304,8.2304,8.2304,8.2304,8.2304,8.2304,8.2304,8.2304,8.2304,8.2302,8.2297,8.2289,8.2281,8.223,8.2254,8.2193,8.2155,8.2156,8.211,8.2058,8.1916,8.1776,8.1752,8.163,8.1514,8.1453,8.1367,8.1298,8.122,8.1192,8.1162,8.1124,8.1093,8.1093,8.1093,8.1093,8.1093,8.1093,8.1093,8.1093,8.1093,8.1093,8.1093,8.1093,8.1093,8.1093,8.1093,8.1093,8.1093,8.1093,8.1093,8.1093,8.1093,8.1093,8.1093,8.1093,8.1093,8.1093,8.1093,8.1477,8.2285,8.3208,8.3708,8.4209,8.4863,8.5324,8.5901,8.6094,8.6094,8.6094,8.6132,8.6901,8.7671,8.8902,8.997,9.0393,9.074,9.097,9.1201,9.1201,9.1201,9.1201,9.1201,9.1201,9.1201,9.1201,9.1201,7.7265,7.7578,7.918,8.0273,8.1054,8.1914,8.2304,8.2304,8.2304,8.2304,8.2304,8.2304,8.2304,8.2304,8.2304,8.2304,8.2304,8.2304,8.2304,8.2304,8.2304,8.2304,8.2304,8.2304,8.2304,8.2304,8.2304,8.2304,8.2304,8.2304,8.2304,8.2304,8.2304,8.2304,8.2304,8.2303,8.2301,8.2296,8.2286,8.2269,8.2218,8.217,8.2193,8.2162,8.2156,8.2104,8.2005,8.1933,8.179,8.1726,8.1636,8.152,8.1453,8.1374,8.1298,8.122,8.1168,8.1154,8.1116,8.11,8.1093,8.1093,8.1093,8.1093,8.1093,8.1093,8.1093,8.1093,8.1093,8.1093,8.1093,8.1093,8.1093,8.1093,8.1093,8.1093,8.1093,8.1093,8.1093,8.1093,8.1093,8.1093,8.1093,8.1093,8.1093,8.1093,8.14,8.1823,8.2439,8.3516,8.4286,8.4824,8.544,8.5863,8.6094,8.6094,8.6094,8.6247,8.644,8.7401,8.8402,8.9633,9.047,9.0855,9.1163,9.1201,9.1201,9.1201,9.1201,9.1201,9.1201,9.1201,9.1201,9.1201,9.1201,7.7617,7.8398,8.0078,8.0859,8.1133,8.1914,8.2304,8.2304,8.2304,8.2304,8.2304,8.2304,8.2304,8.2304,8.2304,8.2304,8.2304,8.2304,8.2304,8.2304,8.2304,8.2304,8.2304,8.2304,8.2304,8.2304,8.2304,8.2304,8.2304,8.2304,8.2304,8.2304,8.2304,8.2304,8.2303,8.2301,8.2297,8.2287,8.2231,8.2211,8.2195,8.2179,8.2153,8.2117,8.2116,8.1994,8.1904,8.1842,8.1742,8.1625,8.1541,8.1446,8.1367,8.1291,8.122,8.1207,8.1162,8.1124,8.1093,8.1093,8.1093,8.1093,8.1093,8.1093,8.1093,8.1093,8.1093,8.1093,8.1093,8.1093,8.1093,8.1093,8.1093,8.1093,8.1093,8.1093,8.1093,8.1093,8.1093,8.1093,8.1093,8.1093,8.1093,8.1093,8.1093,8.1246,8.1708,8.2208,8.3016,8.3939,8.4854,8.5401,8.594,8.6017,8.6094,8.6094,8.6132,8.6324,8.6824,8.7902,8.9056,9.0287,9.1009,9.1124,9.1201,9.1201,9.1201,9.1201,9.1201,9.1201,9.1201,9.1201,9.1201,9.1201,9.1201]}]]